<?xml version="1.0" encoding="UTF-8" standalone="no" ?>
<gpx xmlns="http://www.topografix.com/GPX/1/1" xmlns:xsi="http://www.w3.org/2001/XMLSchema-instance" xsi:schemaLocation="http://www.topografix.com/GPX/1/1 http://www.topografix.com/GPX/1/1/gpx.xsd" version="1.1" creator="VisuGPX - https://www.visugpx.com">
  <metadata>
    <name>RocdAzé-Gravel-2324-100km</name>
  </metadata>
  <trk>
    <name><![CDATA[RocdAzé-Gravel-23#début]]></name>
    <desc><![CDATA[]]></desc>
    <extensions>
      <line xmlns="http://www.topografix.com/GPX/gpx_style/0/2">
        <color>285ff4</color>
        <width>4</width>
      </line>
    </extensions>
    <trkseg>
      <trkpt lat="46.43377" lon="4.76464">
        <ele>243</ele>
        <time>2024-08-27T10:51:07Z</time>
      </trkpt>
      <trkpt lat="46.43617" lon="4.76546">
        <ele>250</ele>
        <time>2024-08-27T10:50:23Z</time>
      </trkpt>
      <trkpt lat="46.43668" lon="4.76519">
        <ele>246</ele>
        <time>2024-08-27T10:50:13Z</time>
      </trkpt>
      <trkpt lat="46.4368" lon="4.76502">
        <ele>245</ele>
        <time>2024-08-27T10:50:10Z</time>
      </trkpt>
      <trkpt lat="46.43695" lon="4.76474">
        <ele>245</ele>
        <time>2024-08-27T10:50:06Z</time>
      </trkpt>
      <trkpt lat="46.43703" lon="4.76467">
        <ele>245</ele>
        <time>2024-08-27T10:50:04Z</time>
      </trkpt>
      <trkpt lat="46.43736" lon="4.76453">
        <ele>246</ele>
        <time>2024-08-27T10:49:58Z</time>
      </trkpt>
      <trkpt lat="46.43772" lon="4.76438">
        <ele>246</ele>
        <time>2024-08-27T10:49:51Z</time>
      </trkpt>
      <trkpt lat="46.43793" lon="4.76427">
        <ele>246</ele>
        <time>2024-08-27T10:49:47Z</time>
      </trkpt>
      <trkpt lat="46.4381" lon="4.76451">
        <ele>247</ele>
        <time>2024-08-27T10:49:43Z</time>
      </trkpt>
      <trkpt lat="46.43833" lon="4.7648">
        <ele>249</ele>
        <time>2024-08-27T10:49:38Z</time>
      </trkpt>
      <trkpt lat="46.43842" lon="4.76495">
        <ele>249</ele>
        <time>2024-08-27T10:49:35Z</time>
      </trkpt>
      <trkpt lat="46.43846" lon="4.76501">
        <ele>250</ele>
        <time>2024-08-27T10:49:34Z</time>
      </trkpt>
      <trkpt lat="46.43855" lon="4.76522">
        <ele>251</ele>
        <time>2024-08-27T10:49:31Z</time>
      </trkpt>
      <trkpt lat="46.43863" lon="4.7655">
        <ele>252</ele>
        <time>2024-08-27T10:49:27Z</time>
      </trkpt>
      <trkpt lat="46.43872" lon="4.76607">
        <ele>254</ele>
        <time>2024-08-27T10:49:20Z</time>
      </trkpt>
      <trkpt lat="46.43872" lon="4.76608">
        <ele>254</ele>
        <time>2024-08-27T10:49:20Z</time>
      </trkpt>
      <trkpt lat="46.43872" lon="4.76607">
        <ele>254</ele>
        <time>2024-08-27T10:49:20Z</time>
      </trkpt>
      <trkpt lat="46.43904" lon="4.76608">
        <ele>255</ele>
        <time>2024-08-27T10:49:14Z</time>
      </trkpt>
      <trkpt lat="46.43938" lon="4.76586">
        <ele>256</ele>
        <time>2024-08-27T10:49:08Z</time>
      </trkpt>
      <trkpt lat="46.43961" lon="4.76572">
        <ele>257</ele>
        <time>2024-08-27T10:49:03Z</time>
      </trkpt>
      <trkpt lat="46.43976" lon="4.76565">
        <ele>257</ele>
        <time>2024-08-27T10:49:00Z</time>
      </trkpt>
      <trkpt lat="46.43991" lon="4.76562">
        <ele>258</ele>
        <time>2024-08-27T10:48:58Z</time>
      </trkpt>
      <trkpt lat="46.44007" lon="4.76563">
        <ele>259</ele>
        <time>2024-08-27T10:48:55Z</time>
      </trkpt>
      <trkpt lat="46.44053" lon="4.76581">
        <ele>261</ele>
        <time>2024-08-27T10:48:46Z</time>
      </trkpt>
      <trkpt lat="46.4409" lon="4.76486">
        <ele>262</ele>
        <time>2024-08-27T10:48:33Z</time>
      </trkpt>
      <trkpt lat="46.44098" lon="4.76485">
        <ele>263</ele>
        <time>2024-08-27T10:48:32Z</time>
      </trkpt>
      <trkpt lat="46.44158" lon="4.76514">
        <ele>267</ele>
        <time>2024-08-27T10:48:20Z</time>
      </trkpt>
      <trkpt lat="46.44164" lon="4.76519">
        <ele>267</ele>
        <time>2024-08-27T10:48:19Z</time>
      </trkpt>
      <trkpt lat="46.44209" lon="4.7653">
        <ele>269</ele>
        <time>2024-08-27T10:48:11Z</time>
      </trkpt>
      <trkpt lat="46.44265" lon="4.76543">
        <ele>272</ele>
        <time>2024-08-27T10:48:01Z</time>
      </trkpt>
      <trkpt lat="46.44306" lon="4.76569">
        <ele>273</ele>
        <time>2024-08-27T10:47:53Z</time>
      </trkpt>
      <trkpt lat="46.44311" lon="4.7657">
        <ele>273</ele>
        <time>2024-08-27T10:47:52Z</time>
      </trkpt>
      <trkpt lat="46.44314" lon="4.76563">
        <ele>274</ele>
        <time>2024-08-27T10:47:51Z</time>
      </trkpt>
      <trkpt lat="46.44327" lon="4.76513">
        <ele>278</ele>
        <time>2024-08-27T10:47:44Z</time>
      </trkpt>
      <trkpt lat="46.4436" lon="4.76522">
        <ele>279</ele>
        <time>2024-08-27T10:47:39Z</time>
      </trkpt>
      <trkpt lat="46.44407" lon="4.76535">
        <ele>280</ele>
        <time>2024-08-27T10:47:30Z</time>
      </trkpt>
      <trkpt lat="46.44411" lon="4.76529">
        <ele>281</ele>
        <time>2024-08-27T10:47:29Z</time>
      </trkpt>
      <trkpt lat="46.44413" lon="4.76527">
        <ele>281</ele>
        <time>2024-08-27T10:47:29Z</time>
      </trkpt>
      <trkpt lat="46.44502" lon="4.76567">
        <ele>283</ele>
        <time>2024-08-27T10:47:12Z</time>
      </trkpt>
      <trkpt lat="46.44509" lon="4.76558">
        <ele>284</ele>
        <time>2024-08-27T10:47:10Z</time>
      </trkpt>
      <trkpt lat="46.44515" lon="4.76554">
        <ele>285</ele>
        <time>2024-08-27T10:47:09Z</time>
      </trkpt>
      <trkpt lat="46.44552" lon="4.76568">
        <ele>285</ele>
        <time>2024-08-27T10:47:02Z</time>
      </trkpt>
      <trkpt lat="46.44585" lon="4.76595">
        <ele>284</ele>
        <time>2024-08-27T10:46:56Z</time>
      </trkpt>
      <trkpt lat="46.44645" lon="4.76619">
        <ele>284</ele>
        <time>2024-08-27T10:46:45Z</time>
      </trkpt>
      <trkpt lat="46.44703" lon="4.76659">
        <ele>281</ele>
        <time>2024-08-27T10:46:33Z</time>
      </trkpt>
      <trkpt lat="46.44756" lon="4.76701">
        <ele>279</ele>
        <time>2024-08-27T10:46:22Z</time>
      </trkpt>
      <trkpt lat="46.44771" lon="4.76712">
        <ele>278</ele>
        <time>2024-08-27T10:46:19Z</time>
      </trkpt>
      <trkpt lat="46.44862" lon="4.76763">
        <ele>275</ele>
        <time>2024-08-27T10:46:02Z</time>
      </trkpt>
      <trkpt lat="46.44969" lon="4.76818">
        <ele>275</ele>
        <time>2024-08-27T10:45:42Z</time>
      </trkpt>
      <trkpt lat="46.44975" lon="4.76822">
        <ele>275</ele>
        <time>2024-08-27T10:45:41Z</time>
      </trkpt>
      <trkpt lat="46.44979" lon="4.76828">
        <ele>275</ele>
        <time>2024-08-27T10:45:40Z</time>
      </trkpt>
      <trkpt lat="46.44982" lon="4.76773">
        <ele>277</ele>
        <time>2024-08-27T10:45:33Z</time>
      </trkpt>
      <trkpt lat="46.44992" lon="4.76702">
        <ele>281</ele>
        <time>2024-08-27T10:45:24Z</time>
      </trkpt>
      <trkpt lat="46.44991" lon="4.76673">
        <ele>283</ele>
        <time>2024-08-27T10:45:20Z</time>
      </trkpt>
      <trkpt lat="46.44989" lon="4.76663">
        <ele>284</ele>
        <time>2024-08-27T10:45:19Z</time>
      </trkpt>
      <trkpt lat="46.44974" lon="4.76616">
        <ele>287</ele>
        <time>2024-08-27T10:45:13Z</time>
      </trkpt>
      <trkpt lat="46.44925" lon="4.76492">
        <ele>302</ele>
        <time>2024-08-27T10:44:55Z</time>
      </trkpt>
      <trkpt lat="46.44916" lon="4.76475">
        <ele>305</ele>
        <time>2024-08-27T10:44:53Z</time>
      </trkpt>
      <trkpt lat="46.44913" lon="4.76458">
        <ele>307</ele>
        <time>2024-08-27T10:44:50Z</time>
      </trkpt>
      <trkpt lat="46.44914" lon="4.76448">
        <ele>309</ele>
        <time>2024-08-27T10:44:49Z</time>
      </trkpt>
      <trkpt lat="46.44924" lon="4.76443">
        <ele>308</ele>
        <time>2024-08-27T10:44:47Z</time>
      </trkpt>
      <trkpt lat="46.44938" lon="4.7644">
        <ele>308</ele>
        <time>2024-08-27T10:44:45Z</time>
      </trkpt>
      <trkpt lat="46.45025" lon="4.76441">
        <ele>306</ele>
        <time>2024-08-27T10:44:29Z</time>
      </trkpt>
      <trkpt lat="46.4506" lon="4.76439">
        <ele>307</ele>
        <time>2024-08-27T10:44:23Z</time>
      </trkpt>
      <trkpt lat="46.45078" lon="4.76445">
        <ele>307</ele>
        <time>2024-08-27T10:44:20Z</time>
      </trkpt>
      <trkpt lat="46.45128" lon="4.76472">
        <ele>304</ele>
        <time>2024-08-27T10:44:10Z</time>
      </trkpt>
      <trkpt lat="46.45237" lon="4.76483">
        <ele>306</ele>
        <time>2024-08-27T10:43:51Z</time>
      </trkpt>
      <trkpt lat="46.45294" lon="4.76492">
        <ele>307</ele>
        <time>2024-08-27T10:43:41Z</time>
      </trkpt>
      <trkpt lat="46.45292" lon="4.76482">
        <ele>308</ele>
        <time>2024-08-27T10:43:39Z</time>
      </trkpt>
      <trkpt lat="46.45293" lon="4.76473">
        <ele>309</ele>
        <time>2024-08-27T10:43:38Z</time>
      </trkpt>
      <trkpt lat="46.45298" lon="4.76463">
        <ele>310</ele>
        <time>2024-08-27T10:43:37Z</time>
      </trkpt>
      <trkpt lat="46.45306" lon="4.76456">
        <ele>311</ele>
        <time>2024-08-27T10:43:35Z</time>
      </trkpt>
      <trkpt lat="46.45335" lon="4.76437">
        <ele>314</ele>
        <time>2024-08-27T10:43:29Z</time>
      </trkpt>
      <trkpt lat="46.45353" lon="4.76427">
        <ele>316</ele>
        <time>2024-08-27T10:43:26Z</time>
      </trkpt>
      <trkpt lat="46.45377" lon="4.76424">
        <ele>318</ele>
        <time>2024-08-27T10:43:22Z</time>
      </trkpt>
      <trkpt lat="46.4543" lon="4.76419">
        <ele>321</ele>
        <time>2024-08-27T10:43:12Z</time>
      </trkpt>
      <trkpt lat="46.45509" lon="4.76417">
        <ele>327</ele>
        <time>2024-08-27T10:42:58Z</time>
      </trkpt>
      <trkpt lat="46.45529" lon="4.76417">
        <ele>328</ele>
        <time>2024-08-27T10:42:55Z</time>
      </trkpt>
      <trkpt lat="46.45928" lon="4.76407">
        <ele>356</ele>
        <time>2024-08-27T10:41:44Z</time>
      </trkpt>
      <trkpt lat="46.45962" lon="4.76399">
        <ele>358</ele>
        <time>2024-08-27T10:41:38Z</time>
      </trkpt>
      <trkpt lat="46.45984" lon="4.76387">
        <ele>360</ele>
        <time>2024-08-27T10:41:33Z</time>
      </trkpt>
      <trkpt lat="46.46003" lon="4.7637">
        <ele>363</ele>
        <time>2024-08-27T10:41:29Z</time>
      </trkpt>
      <trkpt lat="46.46052" lon="4.76311">
        <ele>369</ele>
        <time>2024-08-27T10:41:18Z</time>
      </trkpt>
      <trkpt lat="46.46069" lon="4.76289">
        <ele>370</ele>
        <time>2024-08-27T10:41:14Z</time>
      </trkpt>
      <trkpt lat="46.46079" lon="4.7627">
        <ele>371</ele>
        <time>2024-08-27T10:41:11Z</time>
      </trkpt>
      <trkpt lat="46.46081" lon="4.7626">
        <ele>372</ele>
        <time>2024-08-27T10:41:10Z</time>
      </trkpt>
      <trkpt lat="46.46082" lon="4.76251">
        <ele>372</ele>
        <time>2024-08-27T10:41:09Z</time>
      </trkpt>
      <trkpt lat="46.46081" lon="4.76234">
        <ele>372</ele>
        <time>2024-08-27T10:41:07Z</time>
      </trkpt>
      <trkpt lat="46.4607" lon="4.76178">
        <ele>371</ele>
        <time>2024-08-27T10:40:59Z</time>
      </trkpt>
      <trkpt lat="46.46059" lon="4.76139">
        <ele>370</ele>
        <time>2024-08-27T10:40:54Z</time>
      </trkpt>
      <trkpt lat="46.46062" lon="4.76132">
        <ele>369</ele>
        <time>2024-08-27T10:40:53Z</time>
      </trkpt>
      <trkpt lat="46.46118" lon="4.76155">
        <ele>372</ele>
        <time>2024-08-27T10:40:43Z</time>
      </trkpt>
      <trkpt lat="46.46214" lon="4.76195">
        <ele>377</ele>
        <time>2024-08-27T10:40:25Z</time>
      </trkpt>
      <trkpt lat="46.46223" lon="4.76203">
        <ele>377</ele>
        <time>2024-08-27T10:40:23Z</time>
      </trkpt>
      <trkpt lat="46.46313" lon="4.762">
        <ele>384</ele>
        <time>2024-08-27T10:40:07Z</time>
      </trkpt>
      <trkpt lat="46.46353" lon="4.76187">
        <ele>387</ele>
        <time>2024-08-27T10:40:00Z</time>
      </trkpt>
      <trkpt lat="46.46372" lon="4.76183">
        <ele>389</ele>
        <time>2024-08-27T10:39:57Z</time>
      </trkpt>
      <trkpt lat="46.46467" lon="4.76159">
        <ele>397</ele>
        <time>2024-08-27T10:39:39Z</time>
      </trkpt>
      <trkpt lat="46.46517" lon="4.76143">
        <ele>401</ele>
        <time>2024-08-27T10:39:30Z</time>
      </trkpt>
      <trkpt lat="46.46521" lon="4.76143">
        <ele>402</ele>
        <time>2024-08-27T10:39:30Z</time>
      </trkpt>
      <trkpt lat="46.46554" lon="4.76148">
        <ele>406</ele>
        <time>2024-08-27T10:39:24Z</time>
      </trkpt>
      <trkpt lat="46.4659" lon="4.7616">
        <ele>413</ele>
        <time>2024-08-27T10:39:17Z</time>
      </trkpt>
      <trkpt lat="46.46607" lon="4.76151">
        <ele>414</ele>
        <time>2024-08-27T10:39:14Z</time>
      </trkpt>
      <trkpt lat="46.46632" lon="4.76119">
        <ele>413</ele>
        <time>2024-08-27T10:39:08Z</time>
      </trkpt>
      <trkpt lat="46.46642" lon="4.76115">
        <ele>414</ele>
        <time>2024-08-27T10:39:06Z</time>
      </trkpt>
      <trkpt lat="46.46684" lon="4.76115">
        <ele>419</ele>
        <time>2024-08-27T10:38:59Z</time>
      </trkpt>
      <trkpt lat="46.46727" lon="4.76122">
        <ele>425</ele>
        <time>2024-08-27T10:38:51Z</time>
      </trkpt>
      <trkpt lat="46.46764" lon="4.76133">
        <ele>429</ele>
        <time>2024-08-27T10:38:44Z</time>
      </trkpt>
      <trkpt lat="46.46796" lon="4.76139">
        <ele>431</ele>
        <time>2024-08-27T10:38:38Z</time>
      </trkpt>
      <trkpt lat="46.46995" lon="4.76189">
        <ele>442</ele>
        <time>2024-08-27T10:38:03Z</time>
      </trkpt>
      <trkpt lat="46.47044" lon="4.76205">
        <ele>443</ele>
        <time>2024-08-27T10:37:54Z</time>
      </trkpt>
      <trkpt lat="46.47123" lon="4.76224">
        <ele>444</ele>
        <time>2024-08-27T10:37:39Z</time>
      </trkpt>
      <trkpt lat="46.4715" lon="4.76238">
        <ele>445</ele>
        <time>2024-08-27T10:37:34Z</time>
      </trkpt>
      <trkpt lat="46.47161" lon="4.76244">
        <ele>446</ele>
        <time>2024-08-27T10:37:32Z</time>
      </trkpt>
      <trkpt lat="46.47192" lon="4.76248">
        <ele>448</ele>
        <time>2024-08-27T10:37:27Z</time>
      </trkpt>
      <trkpt lat="46.47256" lon="4.76254">
        <ele>451</ele>
        <time>2024-08-27T10:37:15Z</time>
      </trkpt>
      <trkpt lat="46.47396" lon="4.76279">
        <ele>455</ele>
        <time>2024-08-27T10:36:50Z</time>
      </trkpt>
      <trkpt lat="46.47461" lon="4.76297">
        <ele>459</ele>
        <time>2024-08-27T10:36:38Z</time>
      </trkpt>
      <trkpt lat="46.47546" lon="4.76333">
        <ele>463</ele>
        <time>2024-08-27T10:36:23Z</time>
      </trkpt>
      <trkpt lat="46.47601" lon="4.7635">
        <ele>462</ele>
        <time>2024-08-27T10:36:13Z</time>
      </trkpt>
      <trkpt lat="46.47611" lon="4.76355">
        <ele>462</ele>
        <time>2024-08-27T10:36:11Z</time>
      </trkpt>
      <trkpt lat="46.47646" lon="4.76375">
        <ele>463</ele>
        <time>2024-08-27T10:36:04Z</time>
      </trkpt>
      <trkpt lat="46.47694" lon="4.76436">
        <ele>467</ele>
        <time>2024-08-27T10:35:53Z</time>
      </trkpt>
      <trkpt lat="46.47723" lon="4.7645">
        <ele>467</ele>
        <time>2024-08-27T10:35:47Z</time>
      </trkpt>
      <trkpt lat="46.4783" lon="4.76459">
        <ele>467</ele>
        <time>2024-08-27T10:35:28Z</time>
      </trkpt>
      <trkpt lat="46.47848" lon="4.76469">
        <ele>467</ele>
        <time>2024-08-27T10:35:25Z</time>
      </trkpt>
      <trkpt lat="46.4786" lon="4.76481">
        <ele>467</ele>
        <time>2024-08-27T10:35:22Z</time>
      </trkpt>
      <trkpt lat="46.47863" lon="4.76497">
        <ele>469</ele>
        <time>2024-08-27T10:35:20Z</time>
      </trkpt>
      <trkpt lat="46.47869" lon="4.765">
        <ele>469</ele>
        <time>2024-08-27T10:35:19Z</time>
      </trkpt>
      <trkpt lat="46.47904" lon="4.76514">
        <ele>467</ele>
        <time>2024-08-27T10:35:13Z</time>
      </trkpt>
      <trkpt lat="46.47929" lon="4.76527">
        <ele>465</ele>
        <time>2024-08-27T10:35:08Z</time>
      </trkpt>
      <trkpt lat="46.47953" lon="4.76548">
        <ele>465</ele>
        <time>2024-08-27T10:35:03Z</time>
      </trkpt>
      <trkpt lat="46.47978" lon="4.76563">
        <ele>465</ele>
        <time>2024-08-27T10:34:58Z</time>
      </trkpt>
      <trkpt lat="46.48014" lon="4.76582">
        <ele>466</ele>
        <time>2024-08-27T10:34:51Z</time>
      </trkpt>
      <trkpt lat="46.48033" lon="4.76586">
        <ele>466</ele>
        <time>2024-08-27T10:34:48Z</time>
      </trkpt>
      <trkpt lat="46.48053" lon="4.76582">
        <ele>467</ele>
        <time>2024-08-27T10:34:44Z</time>
      </trkpt>
      <trkpt lat="46.48103" lon="4.76551">
        <ele>467</ele>
        <time>2024-08-27T10:34:34Z</time>
      </trkpt>
      <trkpt lat="46.48114" lon="4.76546">
        <ele>467</ele>
        <time>2024-08-27T10:34:32Z</time>
      </trkpt>
      <trkpt lat="46.48122" lon="4.76547">
        <ele>467</ele>
        <time>2024-08-27T10:34:31Z</time>
      </trkpt>
      <trkpt lat="46.48131" lon="4.76562">
        <ele>468</ele>
        <time>2024-08-27T10:34:29Z</time>
      </trkpt>
      <trkpt lat="46.48151" lon="4.76612">
        <ele>468</ele>
        <time>2024-08-27T10:34:21Z</time>
      </trkpt>
      <trkpt lat="46.48162" lon="4.76622">
        <ele>468</ele>
        <time>2024-08-27T10:34:19Z</time>
      </trkpt>
      <trkpt lat="46.48181" lon="4.76635">
        <ele>468</ele>
        <time>2024-08-27T10:34:15Z</time>
      </trkpt>
      <trkpt lat="46.48196" lon="4.7665">
        <ele>467</ele>
        <time>2024-08-27T10:34:12Z</time>
      </trkpt>
      <trkpt lat="46.48213" lon="4.76672">
        <ele>467</ele>
        <time>2024-08-27T10:34:08Z</time>
      </trkpt>
      <trkpt lat="46.4824" lon="4.76691">
        <ele>465</ele>
        <time>2024-08-27T10:34:03Z</time>
      </trkpt>
      <trkpt lat="46.4826" lon="4.76702">
        <ele>464</ele>
        <time>2024-08-27T10:33:59Z</time>
      </trkpt>
      <trkpt lat="46.48304" lon="4.76749">
        <ele>460</ele>
        <time>2024-08-27T10:33:49Z</time>
      </trkpt>
      <trkpt lat="46.48312" lon="4.76753">
        <ele>460</ele>
        <time>2024-08-27T10:33:48Z</time>
      </trkpt>
      <trkpt lat="46.4832" lon="4.76754">
        <ele>459</ele>
        <time>2024-08-27T10:33:46Z</time>
      </trkpt>
      <trkpt lat="46.48347" lon="4.76751">
        <ele>458</ele>
        <time>2024-08-27T10:33:42Z</time>
      </trkpt>
      <trkpt lat="46.48365" lon="4.76755">
        <ele>456</ele>
        <time>2024-08-27T10:33:38Z</time>
      </trkpt>
      <trkpt lat="46.48379" lon="4.76754">
        <ele>454</ele>
        <time>2024-08-27T10:33:36Z</time>
      </trkpt>
      <trkpt lat="46.48394" lon="4.76751">
        <ele>453</ele>
        <time>2024-08-27T10:33:33Z</time>
      </trkpt>
      <trkpt lat="46.48419" lon="4.76746">
        <ele>451</ele>
        <time>2024-08-27T10:33:29Z</time>
      </trkpt>
      <trkpt lat="46.4844" lon="4.76746">
        <ele>448</ele>
        <time>2024-08-27T10:33:25Z</time>
      </trkpt>
      <trkpt lat="46.48474" lon="4.76688">
        <ele>446</ele>
        <time>2024-08-27T10:33:16Z</time>
      </trkpt>
      <trkpt lat="46.48491" lon="4.76674">
        <ele>445</ele>
        <time>2024-08-27T10:33:12Z</time>
      </trkpt>
      <trkpt lat="46.48514" lon="4.76663">
        <ele>446</ele>
        <time>2024-08-27T10:33:08Z</time>
      </trkpt>
      <trkpt lat="46.48527" lon="4.76663">
        <ele>447</ele>
        <time>2024-08-27T10:33:05Z</time>
      </trkpt>
      <trkpt lat="46.48529" lon="4.76654">
        <ele>448</ele>
        <time>2024-08-27T10:33:04Z</time>
      </trkpt>
      <trkpt lat="46.48536" lon="4.7665">
        <ele>449</ele>
        <time>2024-08-27T10:33:03Z</time>
      </trkpt>
      <trkpt lat="46.48544" lon="4.76639">
        <ele>451</ele>
        <time>2024-08-27T10:33:01Z</time>
      </trkpt>
      <trkpt lat="46.48562" lon="4.76627">
        <ele>453</ele>
        <time>2024-08-27T10:32:57Z</time>
      </trkpt>
      <trkpt lat="46.4857" lon="4.76629">
        <ele>453</ele>
        <time>2024-08-27T10:32:56Z</time>
      </trkpt>
      <trkpt lat="46.4858" lon="4.76634">
        <ele>454</ele>
        <time>2024-08-27T10:32:54Z</time>
      </trkpt>
      <trkpt lat="46.48613" lon="4.76651">
        <ele>454</ele>
        <time>2024-08-27T10:32:48Z</time>
        <extensions>
          <visugpx:TrkExtension xmlns:visugpx="https://www.visugpx.com/editgpx/">
            <visugpx:node>1</visugpx:node>
            </visugpx:TrkExtension>
        </extensions>
      </trkpt>
      <trkpt lat="46.48655" lon="4.76673">
        <ele>458.2</ele>
      </trkpt>
      <trkpt lat="46.48717" lon="4.76711">
        <ele>458</ele>
      </trkpt>
      <trkpt lat="46.4874" lon="4.76722">
        <ele>457</ele>
      </trkpt>
      <trkpt lat="46.4875" lon="4.76731">
        <ele>455.7</ele>
      </trkpt>
      <trkpt lat="46.48767" lon="4.76737">
        <ele>455.5</ele>
      </trkpt>
      <trkpt lat="46.48787" lon="4.76751">
        <ele>455.2</ele>
      </trkpt>
      <trkpt lat="46.48819" lon="4.7678">
        <ele>456.2</ele>
      </trkpt>
      <trkpt lat="46.48844" lon="4.76806">
        <ele>455.7</ele>
      </trkpt>
      <trkpt lat="46.48866" lon="4.76822">
        <ele>455</ele>
      </trkpt>
      <trkpt lat="46.49101" lon="4.76979">
        <ele>459.1</ele>
      </trkpt>
      <trkpt lat="46.49133" lon="4.76999">
        <ele>458.9</ele>
      </trkpt>
      <trkpt lat="46.49272" lon="4.77065">
        <ele>457.9</ele>
      </trkpt>
      <trkpt lat="46.49286" lon="4.77069">
        <ele>457.7</ele>
      </trkpt>
      <trkpt lat="46.49297" lon="4.77068">
        <ele>458</ele>
      </trkpt>
      <trkpt lat="46.49307" lon="4.77061">
        <ele>459.3</ele>
      </trkpt>
      <trkpt lat="46.49317" lon="4.77075">
        <ele>458.2</ele>
      </trkpt>
      <trkpt lat="46.49373" lon="4.77093">
        <ele>459.8</ele>
      </trkpt>
      <trkpt lat="46.49424" lon="4.77115">
        <ele>461.1</ele>
      </trkpt>
      <trkpt lat="46.49455" lon="4.77124">
        <ele>462.4</ele>
      </trkpt>
      <trkpt lat="46.4947" lon="4.77132">
        <ele>462.6</ele>
      </trkpt>
      <trkpt lat="46.49494" lon="4.77152">
        <ele>462.1</ele>
      </trkpt>
      <trkpt lat="46.49534" lon="4.7717">
        <ele>462.9</ele>
      </trkpt>
      <trkpt lat="46.4955" lon="4.77173">
        <ele>463.1</ele>
      </trkpt>
      <trkpt lat="46.49606" lon="4.77173">
        <ele>464.3</ele>
      </trkpt>
      <trkpt lat="46.49626" lon="4.77183">
        <ele>464.7</ele>
      </trkpt>
      <trkpt lat="46.49661" lon="4.77208">
        <ele>465.2</ele>
      </trkpt>
      <trkpt lat="46.49722" lon="4.77271">
        <ele>466.2</ele>
      </trkpt>
      <trkpt lat="46.49768" lon="4.7731">
        <ele>466.5</ele>
      </trkpt>
      <trkpt lat="46.49777" lon="4.77323">
        <ele>466</ele>
      </trkpt>
      <trkpt lat="46.49803" lon="4.77378">
        <ele>464.6</ele>
      </trkpt>
      <trkpt lat="46.49851" lon="4.77444">
        <ele>465.9</ele>
      </trkpt>
      <trkpt lat="46.49912" lon="4.77505">
        <ele>468.5</ele>
      </trkpt>
      <trkpt lat="46.49967" lon="4.77545">
        <ele>470.1</ele>
      </trkpt>
      <trkpt lat="46.50017" lon="4.77571">
        <ele>470.4</ele>
      </trkpt>
      <trkpt lat="46.50156" lon="4.77626">
        <ele>464.2</ele>
      </trkpt>
      <trkpt lat="46.50193" lon="4.77635">
        <ele>461.2</ele>
      </trkpt>
      <trkpt lat="46.50219" lon="4.77647">
        <ele>459.6</ele>
      </trkpt>
      <trkpt lat="46.50233" lon="4.7766">
        <ele>457.6</ele>
      </trkpt>
      <trkpt lat="46.50255" lon="4.77665">
        <ele>455.9</ele>
      </trkpt>
      <trkpt lat="46.50309" lon="4.77663">
        <ele>453</ele>
      </trkpt>
      <trkpt lat="46.50359" lon="4.77667">
        <ele>452</ele>
      </trkpt>
      <trkpt lat="46.50373" lon="4.77673">
        <ele>452</ele>
      </trkpt>
      <trkpt lat="46.50401" lon="4.77687">
        <ele>452.3</ele>
      </trkpt>
      <trkpt lat="46.50413" lon="4.77688">
        <ele>453</ele>
      </trkpt>
      <trkpt lat="46.50468" lon="4.77676">
        <ele>455.5</ele>
      </trkpt>
      <trkpt lat="46.50509" lon="4.77686">
        <ele>458</ele>
      </trkpt>
      <trkpt lat="46.50606" lon="4.77732">
        <ele>463.3</ele>
      </trkpt>
      <trkpt lat="46.507" lon="4.77793">
        <ele>464.5</ele>
      </trkpt>
      <trkpt lat="46.5075" lon="4.77818">
        <ele>463.1</ele>
      </trkpt>
      <trkpt lat="46.50775" lon="4.77816">
        <ele>463.2</ele>
      </trkpt>
      <trkpt lat="46.50799" lon="4.77802">
        <ele>463.2</ele>
      </trkpt>
      <trkpt lat="46.50829" lon="4.77791">
        <ele>463.4</ele>
      </trkpt>
      <trkpt lat="46.50916" lon="4.77784">
        <ele>463.2</ele>
      </trkpt>
      <trkpt lat="46.50952" lon="4.77791">
        <ele>464.1</ele>
      </trkpt>
      <trkpt lat="46.5101" lon="4.77812">
        <ele>465.1</ele>
      </trkpt>
      <trkpt lat="46.51052" lon="4.77824">
        <ele>465.9</ele>
      </trkpt>
      <trkpt lat="46.51102" lon="4.77833">
        <ele>468.7</ele>
      </trkpt>
      <trkpt lat="46.51206" lon="4.77876">
        <ele>473.5</ele>
      </trkpt>
      <trkpt lat="46.51325" lon="4.77914">
        <ele>474.4</ele>
      </trkpt>
      <trkpt lat="46.51402" lon="4.77957">
        <ele>469.4</ele>
      </trkpt>
      <trkpt lat="46.51471" lon="4.78002">
        <ele>462.9</ele>
      </trkpt>
      <trkpt lat="46.51488" lon="4.78007">
        <ele>462.2</ele>
      </trkpt>
      <trkpt lat="46.51525" lon="4.78017">
        <ele>464.7</ele>
      </trkpt>
      <trkpt lat="46.51614" lon="4.78071">
        <ele>469.5</ele>
      </trkpt>
      <trkpt lat="46.51685" lon="4.781">
        <ele>471.3</ele>
      </trkpt>
      <trkpt lat="46.5171" lon="4.78105">
        <ele>472</ele>
      </trkpt>
      <trkpt lat="46.51743" lon="4.78118">
        <ele>471.7</ele>
      </trkpt>
      <trkpt lat="46.51788" lon="4.78167">
        <ele>469.6</ele>
      </trkpt>
      <trkpt lat="46.51838" lon="4.78237">
        <ele>467.9</ele>
      </trkpt>
      <trkpt lat="46.51865" lon="4.78254">
        <ele>467</ele>
      </trkpt>
      <trkpt lat="46.51895" lon="4.78278">
        <ele>465.8</ele>
      </trkpt>
      <trkpt lat="46.51938" lon="4.78319">
        <ele>464.2</ele>
      </trkpt>
      <trkpt lat="46.51996" lon="4.78372">
        <ele>461.1</ele>
      </trkpt>
      <trkpt lat="46.52014" lon="4.78382">
        <ele>460.9</ele>
      </trkpt>
      <trkpt lat="46.52026" lon="4.78393">
        <ele>460.9</ele>
      </trkpt>
      <trkpt lat="46.52086" lon="4.78502">
        <ele>456.8</ele>
      </trkpt>
      <trkpt lat="46.521" lon="4.78518">
        <ele>455.8</ele>
      </trkpt>
      <trkpt lat="46.52146" lon="4.78554">
        <ele>451</ele>
      </trkpt>
      <trkpt lat="46.52168" lon="4.78566">
        <ele>448.6</ele>
      </trkpt>
      <trkpt lat="46.52187" lon="4.78575">
        <ele>447.4</ele>
      </trkpt>
      <trkpt lat="46.52212" lon="4.78579">
        <ele>444.5</ele>
      </trkpt>
      <trkpt lat="46.52227" lon="4.78585">
        <ele>442.8</ele>
      </trkpt>
      <trkpt lat="46.52239" lon="4.78595">
        <ele>442.3</ele>
      </trkpt>
      <trkpt lat="46.52274" lon="4.7863">
        <ele>438.6</ele>
      </trkpt>
      <trkpt lat="46.52335" lon="4.78682">
        <ele>433.3</ele>
      </trkpt>
      <trkpt lat="46.52401" lon="4.78729">
        <ele>427.1</ele>
      </trkpt>
      <trkpt lat="46.52467" lon="4.78766">
        <ele>420.2</ele>
      </trkpt>
      <trkpt lat="46.52508" lon="4.78802">
        <ele>417.5</ele>
      </trkpt>
      <trkpt lat="46.52539" lon="4.78838">
        <ele>416</ele>
      </trkpt>
      <trkpt lat="46.5258" lon="4.78869">
        <ele>413.9</ele>
      </trkpt>
      <trkpt lat="46.52619" lon="4.78891">
        <ele>412.7</ele>
      </trkpt>
      <trkpt lat="46.52678" lon="4.78917">
        <ele>411.6</ele>
      </trkpt>
      <trkpt lat="46.52754" lon="4.78929">
        <ele>412</ele>
      </trkpt>
      <trkpt lat="46.52769" lon="4.78935">
        <ele>413</ele>
      </trkpt>
      <trkpt lat="46.52829" lon="4.78936">
        <ele>414.5</ele>
      </trkpt>
      <trkpt lat="46.52855" lon="4.78927">
        <ele>415.6</ele>
      </trkpt>
      <trkpt lat="46.52907" lon="4.78928">
        <ele>418</ele>
      </trkpt>
      <trkpt lat="46.52957" lon="4.78938">
        <ele>421.7</ele>
      </trkpt>
      <trkpt lat="46.53027" lon="4.78961">
        <ele>421</ele>
      </trkpt>
      <trkpt lat="46.53103" lon="4.78981">
        <ele>422.4</ele>
      </trkpt>
      <trkpt lat="46.53196" lon="4.79037">
        <ele>414.2</ele>
      </trkpt>
      <trkpt lat="46.53212" lon="4.79049">
        <ele>412.2</ele>
      </trkpt>
      <trkpt lat="46.53273" lon="4.79044">
        <ele>409.7</ele>
      </trkpt>
      <trkpt lat="46.53282" lon="4.79047">
        <ele>409.1</ele>
      </trkpt>
      <trkpt lat="46.53331" lon="4.79084">
        <ele>406</ele>
        <extensions>
          <visugpx:TrkExtension xmlns:visugpx="https://www.visugpx.com/editgpx/">
            <visugpx:node>2</visugpx:node>
            </visugpx:TrkExtension>
        </extensions>
      </trkpt>
      <trkpt lat="46.53336" lon="4.79067">
        <ele>406</ele>
        <extensions>
          <visugpx:TrkExtension xmlns:visugpx="https://www.visugpx.com/editgpx/">
            <visugpx:node>3</visugpx:node>
            </visugpx:TrkExtension>
        </extensions>
      </trkpt>
      <trkpt lat="46.53352" lon="4.7902">
        <ele>405.8</ele>
      </trkpt>
      <trkpt lat="46.53368" lon="4.78947">
        <ele>404</ele>
      </trkpt>
      <trkpt lat="46.53372" lon="4.78944">
        <ele>404</ele>
      </trkpt>
      <trkpt lat="46.53392" lon="4.78927">
        <ele>402.3</ele>
      </trkpt>
      <trkpt lat="46.53418" lon="4.78936">
        <ele>405.2</ele>
      </trkpt>
      <trkpt lat="46.53478" lon="4.78932">
        <ele>412.4</ele>
      </trkpt>
      <trkpt lat="46.53515" lon="4.78901">
        <ele>412.6</ele>
      </trkpt>
      <trkpt lat="46.53559" lon="4.78872">
        <ele>411.7</ele>
      </trkpt>
      <trkpt lat="46.53564" lon="4.78872">
        <ele>412</ele>
        <extensions>
          <visugpx:TrkExtension xmlns:visugpx="https://www.visugpx.com/editgpx/">
            <visugpx:node>4</visugpx:node>
            </visugpx:TrkExtension>
        </extensions>
      </trkpt>
      <trkpt lat="46.53588" lon="4.78873">
        <ele>412.6</ele>
      </trkpt>
      <trkpt lat="46.53622" lon="4.78882">
        <ele>411</ele>
      </trkpt>
      <trkpt lat="46.53714" lon="4.78922">
        <ele>403.5</ele>
      </trkpt>
      <trkpt lat="46.53746" lon="4.78941">
        <ele>399</ele>
      </trkpt>
      <trkpt lat="46.53789" lon="4.78961">
        <ele>393.1</ele>
      </trkpt>
      <trkpt lat="46.53816" lon="4.78978">
        <ele>390.1</ele>
      </trkpt>
      <trkpt lat="46.53833" lon="4.79013">
        <ele>383.3</ele>
      </trkpt>
      <trkpt lat="46.53855" lon="4.79038">
        <ele>377.7</ele>
      </trkpt>
      <trkpt lat="46.53882" lon="4.79051">
        <ele>378.8</ele>
      </trkpt>
      <trkpt lat="46.53919" lon="4.79049">
        <ele>380.8</ele>
      </trkpt>
      <trkpt lat="46.53938" lon="4.79052">
        <ele>381.3</ele>
      </trkpt>
      <trkpt lat="46.53982" lon="4.79072">
        <ele>383.9</ele>
      </trkpt>
      <trkpt lat="46.54006" lon="4.79076">
        <ele>382</ele>
      </trkpt>
      <trkpt lat="46.54021" lon="4.79071">
        <ele>376.5</ele>
      </trkpt>
      <trkpt lat="46.54042" lon="4.79086">
        <ele>377.3</ele>
      </trkpt>
      <trkpt lat="46.5409" lon="4.79103">
        <ele>379.4</ele>
      </trkpt>
      <trkpt lat="46.5421" lon="4.79101">
        <ele>377.4</ele>
      </trkpt>
      <trkpt lat="46.54226" lon="4.79113">
        <ele>381.5</ele>
      </trkpt>
      <trkpt lat="46.54275" lon="4.79129">
        <ele>387.1</ele>
        <extensions>
          <visugpx:TrkExtension xmlns:visugpx="https://www.visugpx.com/editgpx/">
            <visugpx:node>5</visugpx:node>
            </visugpx:TrkExtension>
        </extensions>
      </trkpt>
      <trkpt lat="46.54288" lon="4.79133">
        <ele>388.4</ele>
      </trkpt>
      <trkpt lat="46.54359" lon="4.79144">
        <ele>388.1</ele>
      </trkpt>
      <trkpt lat="46.5441" lon="4.79159">
        <ele>378.8</ele>
      </trkpt>
      <trkpt lat="46.54429" lon="4.7917">
        <ele>375.2</ele>
      </trkpt>
      <trkpt lat="46.54444" lon="4.7919">
        <ele>374.2</ele>
      </trkpt>
      <trkpt lat="46.54481" lon="4.79254">
        <ele>374.7</ele>
      </trkpt>
      <trkpt lat="46.54486" lon="4.79282">
        <ele>374.4</ele>
      </trkpt>
      <trkpt lat="46.54468" lon="4.79335">
        <ele>375.6</ele>
      </trkpt>
      <trkpt lat="46.54447" lon="4.79383">
        <ele>371.4</ele>
      </trkpt>
      <trkpt lat="46.54437" lon="4.79425">
        <ele>366.6</ele>
      </trkpt>
      <trkpt lat="46.54432" lon="4.79484">
        <ele>366.5</ele>
      </trkpt>
      <trkpt lat="46.54435" lon="4.79504">
        <ele>363</ele>
      </trkpt>
      <trkpt lat="46.54451" lon="4.79561">
        <ele>351.6</ele>
      </trkpt>
      <trkpt lat="46.54452" lon="4.79566">
        <ele>350.7</ele>
        <extensions>
          <visugpx:TrkExtension xmlns:visugpx="https://www.visugpx.com/editgpx/">
            <visugpx:node>6</visugpx:node>
            </visugpx:TrkExtension>
        </extensions>
      </trkpt>
      <trkpt lat="46.54453" lon="4.79579">
        <ele>349</ele>
      </trkpt>
      <trkpt lat="46.54451" lon="4.79587">
        <ele>349.1</ele>
      </trkpt>
      <trkpt lat="46.54448" lon="4.79618">
        <ele>347.8</ele>
      </trkpt>
      <trkpt lat="46.54452" lon="4.79641">
        <ele>343.7</ele>
      </trkpt>
      <trkpt lat="46.54454" lon="4.79666">
        <ele>339.6</ele>
      </trkpt>
      <trkpt lat="46.54424" lon="4.79705">
        <ele>341.5</ele>
      </trkpt>
      <trkpt lat="46.54413" lon="4.79722">
        <ele>340.4</ele>
      </trkpt>
      <trkpt lat="46.54423" lon="4.79723">
        <ele>337.8</ele>
      </trkpt>
      <trkpt lat="46.5446" lon="4.79707">
        <ele>333</ele>
      </trkpt>
      <trkpt lat="46.54471" lon="4.79705">
        <ele>330.9</ele>
      </trkpt>
      <trkpt lat="46.54482" lon="4.79714">
        <ele>329.1</ele>
      </trkpt>
      <trkpt lat="46.545" lon="4.79738">
        <ele>327.6</ele>
      </trkpt>
      <trkpt lat="46.54522" lon="4.79765">
        <ele>329.9</ele>
      </trkpt>
      <trkpt lat="46.54529" lon="4.79771">
        <ele>331.2</ele>
      </trkpt>
      <trkpt lat="46.5454" lon="4.79775">
        <ele>333.3</ele>
      </trkpt>
      <trkpt lat="46.54552" lon="4.79776">
        <ele>335.1</ele>
      </trkpt>
      <trkpt lat="46.54575" lon="4.79772">
        <ele>339.5</ele>
      </trkpt>
      <trkpt lat="46.54582" lon="4.79769">
        <ele>340.5</ele>
        <extensions>
          <visugpx:TrkExtension xmlns:visugpx="https://www.visugpx.com/editgpx/">
            <visugpx:node>7</visugpx:node>
            </visugpx:TrkExtension>
        </extensions>
      </trkpt>
      <trkpt lat="46.54618" lon="4.79759">
        <ele>349.1</ele>
      </trkpt>
      <trkpt lat="46.54636" lon="4.79748">
        <ele>352.7</ele>
      </trkpt>
      <trkpt lat="46.5466" lon="4.79723">
        <ele>356</ele>
      </trkpt>
      <trkpt lat="46.54667" lon="4.79726">
        <ele>359.1</ele>
      </trkpt>
      <trkpt lat="46.54645" lon="4.79766">
        <ele>359.3</ele>
      </trkpt>
      <trkpt lat="46.54639" lon="4.79775">
        <ele>358.5</ele>
        <extensions>
          <visugpx:TrkExtension xmlns:visugpx="https://www.visugpx.com/editgpx/">
            <visugpx:node>8</visugpx:node>
            </visugpx:TrkExtension>
        </extensions>
      </trkpt>
      <trkpt lat="46.54629" lon="4.7979">
        <ele>358.4</ele>
      </trkpt>
      <trkpt lat="46.54579" lon="4.79845">
        <ele>356.4</ele>
      </trkpt>
      <trkpt lat="46.54568" lon="4.79856">
        <ele>356.8</ele>
      </trkpt>
      <trkpt lat="46.54556" lon="4.79866">
        <ele>356.9</ele>
      </trkpt>
      <trkpt lat="46.54505" lon="4.79895">
        <ele>362.9</ele>
      </trkpt>
      <trkpt lat="46.54492" lon="4.79908">
        <ele>363.1</ele>
      </trkpt>
      <trkpt lat="46.54455" lon="4.79949">
        <ele>362.5</ele>
      </trkpt>
      <trkpt lat="46.54436" lon="4.79974">
        <ele>362.5</ele>
      </trkpt>
      <trkpt lat="46.54432" lon="4.79979">
        <ele>362.6</ele>
      </trkpt>
      <trkpt lat="46.54428" lon="4.79992">
        <ele>363.2</ele>
      </trkpt>
      <trkpt lat="46.5442" lon="4.80005">
        <ele>364.3</ele>
      </trkpt>
      <trkpt lat="46.54394" lon="4.80034">
        <ele>368.3</ele>
      </trkpt>
      <trkpt lat="46.54382" lon="4.80055">
        <ele>370.2</ele>
      </trkpt>
      <trkpt lat="46.54377" lon="4.80074">
        <ele>372.1</ele>
      </trkpt>
      <trkpt lat="46.54375" lon="4.8011">
        <ele>374.4</ele>
        <extensions>
          <visugpx:TrkExtension xmlns:visugpx="https://www.visugpx.com/editgpx/">
            <visugpx:node>9</visugpx:node>
            </visugpx:TrkExtension>
        </extensions>
      </trkpt>
      <trkpt lat="46.54373" lon="4.80138">
        <ele>375.7</ele>
      </trkpt>
      <trkpt lat="46.54366" lon="4.80173">
        <ele>375.5</ele>
      </trkpt>
      <trkpt lat="46.54363" lon="4.80198">
        <ele>374.3</ele>
      </trkpt>
      <trkpt lat="46.54366" lon="4.80209">
        <ele>374.6</ele>
      </trkpt>
      <trkpt lat="46.54381" lon="4.80223">
        <ele>376.1</ele>
      </trkpt>
      <trkpt lat="46.54452" lon="4.80277">
        <ele>382.8</ele>
      </trkpt>
      <trkpt lat="46.5446" lon="4.80286">
        <ele>383.4</ele>
      </trkpt>
      <trkpt lat="46.54468" lon="4.80322">
        <ele>384.1</ele>
      </trkpt>
      <trkpt lat="46.54467" lon="4.80331">
        <ele>384.4</ele>
      </trkpt>
      <trkpt lat="46.54473" lon="4.80407">
        <ele>384</ele>
      </trkpt>
      <trkpt lat="46.54504" lon="4.80533">
        <ele>384.1</ele>
        <extensions>
          <visugpx:TrkExtension xmlns:visugpx="https://www.visugpx.com/editgpx/">
            <visugpx:node>10</visugpx:node>
            </visugpx:TrkExtension>
        </extensions>
      </trkpt>
      <trkpt lat="46.5451" lon="4.80581">
        <ele>383.7</ele>
        <extensions>
          <visugpx:TrkExtension xmlns:visugpx="https://www.visugpx.com/editgpx/">
            <visugpx:node>11</visugpx:node>
            </visugpx:TrkExtension>
        </extensions>
      </trkpt>
      <trkpt lat="46.54502" lon="4.80599">
        <ele>384.4</ele>
      </trkpt>
      <trkpt lat="46.54489" lon="4.80615">
        <ele>385.5</ele>
      </trkpt>
      <trkpt lat="46.5442" lon="4.80669">
        <ele>397.7</ele>
      </trkpt>
      <trkpt lat="46.54375" lon="4.80695">
        <ele>400.5</ele>
      </trkpt>
      <trkpt lat="46.54342" lon="4.80726">
        <ele>401.1</ele>
      </trkpt>
      <trkpt lat="46.54336" lon="4.80739">
        <ele>401.5</ele>
      </trkpt>
      <trkpt lat="46.5433" lon="4.80755">
        <ele>402.6</ele>
      </trkpt>
      <trkpt lat="46.54328" lon="4.80778">
        <ele>405</ele>
      </trkpt>
      <trkpt lat="46.54336" lon="4.80854">
        <ele>404.3</ele>
      </trkpt>
      <trkpt lat="46.54337" lon="4.80872">
        <ele>403.3</ele>
      </trkpt>
      <trkpt lat="46.54328" lon="4.80933">
        <ele>399.4</ele>
      </trkpt>
      <trkpt lat="46.5431" lon="4.81012">
        <ele>392.4</ele>
      </trkpt>
      <trkpt lat="46.5431" lon="4.81035">
        <ele>388.9</ele>
      </trkpt>
      <trkpt lat="46.54316" lon="4.81046">
        <ele>387.1</ele>
      </trkpt>
      <trkpt lat="46.54349" lon="4.81076">
        <ele>383.4</ele>
      </trkpt>
      <trkpt lat="46.54308" lon="4.81102">
        <ele>375.5</ele>
      </trkpt>
      <trkpt lat="46.54292" lon="4.81119">
        <ele>371.9</ele>
      </trkpt>
      <trkpt lat="46.54271" lon="4.81144">
        <ele>367.9</ele>
      </trkpt>
      <trkpt lat="46.5426" lon="4.81191">
        <ele>364.4</ele>
      </trkpt>
      <trkpt lat="46.54246" lon="4.81232">
        <ele>366.8</ele>
      </trkpt>
      <trkpt lat="46.54206" lon="4.81232">
        <ele>368.4</ele>
      </trkpt>
      <trkpt lat="46.5418" lon="4.81245">
        <ele>369.1</ele>
      </trkpt>
      <trkpt lat="46.5417" lon="4.81254">
        <ele>368.1</ele>
      </trkpt>
      <trkpt lat="46.54154" lon="4.81276">
        <ele>366.6</ele>
      </trkpt>
      <trkpt lat="46.54112" lon="4.81318">
        <ele>364</ele>
      </trkpt>
      <trkpt lat="46.54054" lon="4.81393">
        <ele>358.7</ele>
      </trkpt>
      <trkpt lat="46.5404" lon="4.81421">
        <ele>356.2</ele>
      </trkpt>
      <trkpt lat="46.54022" lon="4.81435">
        <ele>353.7</ele>
      </trkpt>
      <trkpt lat="46.54012" lon="4.81452">
        <ele>351.5</ele>
      </trkpt>
      <trkpt lat="46.53995" lon="4.81454">
        <ele>349.4</ele>
      </trkpt>
      <trkpt lat="46.53975" lon="4.81442">
        <ele>348.5</ele>
      </trkpt>
      <trkpt lat="46.53954" lon="4.8144">
        <ele>345.8</ele>
      </trkpt>
      <trkpt lat="46.53929" lon="4.81452">
        <ele>341.4</ele>
      </trkpt>
      <trkpt lat="46.53929" lon="4.81453">
        <ele>341.2</ele>
      </trkpt>
      <trkpt lat="46.53925" lon="4.81461">
        <ele>339.7</ele>
      </trkpt>
      <trkpt lat="46.53925" lon="4.81467">
        <ele>338.9</ele>
      </trkpt>
      <trkpt lat="46.53933" lon="4.815">
        <ele>335.8</ele>
      </trkpt>
      <trkpt lat="46.53936" lon="4.81534">
        <ele>331.2</ele>
      </trkpt>
      <trkpt lat="46.5396" lon="4.81592">
        <ele>324.3</ele>
      </trkpt>
      <trkpt lat="46.53974" lon="4.81619">
        <ele>321.7</ele>
      </trkpt>
      <trkpt lat="46.53979" lon="4.81641">
        <ele>320.6</ele>
      </trkpt>
      <trkpt lat="46.53976" lon="4.81666">
        <ele>318.3</ele>
      </trkpt>
      <trkpt lat="46.53955" lon="4.81724">
        <ele>316.4</ele>
      </trkpt>
      <trkpt lat="46.53954" lon="4.81736">
        <ele>316.7</ele>
      </trkpt>
      <trkpt lat="46.53938" lon="4.81774">
        <ele>313.7</ele>
      </trkpt>
      <trkpt lat="46.53942" lon="4.81788">
        <ele>312.3</ele>
      </trkpt>
      <trkpt lat="46.53946" lon="4.81835">
        <ele>307</ele>
      </trkpt>
      <trkpt lat="46.53945" lon="4.81845">
        <ele>306.2</ele>
      </trkpt>
      <trkpt lat="46.5394" lon="4.81855">
        <ele>305</ele>
      </trkpt>
      <trkpt lat="46.53922" lon="4.81868">
        <ele>301.5</ele>
      </trkpt>
      <trkpt lat="46.53863" lon="4.81868">
        <ele>293.3</ele>
      </trkpt>
      <trkpt lat="46.53846" lon="4.81874">
        <ele>290.3</ele>
      </trkpt>
      <trkpt lat="46.53847" lon="4.81886">
        <ele>288.4</ele>
      </trkpt>
      <trkpt lat="46.53875" lon="4.8192">
        <ele>285.6</ele>
      </trkpt>
      <trkpt lat="46.53886" lon="4.81937">
        <ele>284.2</ele>
      </trkpt>
      <trkpt lat="46.53891" lon="4.81955">
        <ele>282.8</ele>
      </trkpt>
      <trkpt lat="46.53896" lon="4.81981">
        <ele>282.8</ele>
      </trkpt>
      <trkpt lat="46.53896" lon="4.81993">
        <ele>282.8</ele>
      </trkpt>
      <trkpt lat="46.53884" lon="4.82026">
        <ele>283.4</ele>
      </trkpt>
      <trkpt lat="46.53866" lon="4.82052">
        <ele>284.1</ele>
      </trkpt>
      <trkpt lat="46.53779" lon="4.82159">
        <ele>289.8</ele>
      </trkpt>
      <trkpt lat="46.53746" lon="4.82211">
        <ele>294.9</ele>
      </trkpt>
      <trkpt lat="46.53739" lon="4.82214">
        <ele>294.3</ele>
      </trkpt>
      <trkpt lat="46.53708" lon="4.82234">
        <ele>292.5</ele>
      </trkpt>
      <trkpt lat="46.53682" lon="4.82255">
        <ele>290.6</ele>
      </trkpt>
      <trkpt lat="46.53673" lon="4.82266">
        <ele>290.1</ele>
      </trkpt>
      <trkpt lat="46.53664" lon="4.8228">
        <ele>289.5</ele>
      </trkpt>
      <trkpt lat="46.53655" lon="4.82299">
        <ele>288.2</ele>
      </trkpt>
      <trkpt lat="46.53646" lon="4.82331">
        <ele>287.3</ele>
      </trkpt>
      <trkpt lat="46.53635" lon="4.82377">
        <ele>284.3</ele>
      </trkpt>
      <trkpt lat="46.53622" lon="4.82395">
        <ele>282.2</ele>
      </trkpt>
      <trkpt lat="46.53612" lon="4.82401">
        <ele>280.6</ele>
      </trkpt>
      <trkpt lat="46.53605" lon="4.82403">
        <ele>279.6</ele>
      </trkpt>
      <trkpt lat="46.53589" lon="4.82398">
        <ele>277.1</ele>
      </trkpt>
      <trkpt lat="46.53501" lon="4.82341">
        <ele>266.1</ele>
      </trkpt>
      <trkpt lat="46.53485" lon="4.82338">
        <ele>264.5</ele>
      </trkpt>
      <trkpt lat="46.53449" lon="4.82338">
        <ele>263</ele>
      </trkpt>
      <trkpt lat="46.53448" lon="4.82425">
        <ele>264.3</ele>
      </trkpt>
      <trkpt lat="46.53442" lon="4.82426">
        <ele>263.8</ele>
      </trkpt>
      <trkpt lat="46.53431" lon="4.82433">
        <ele>263</ele>
      </trkpt>
      <trkpt lat="46.53399" lon="4.82467">
        <ele>260.4</ele>
      </trkpt>
      <trkpt lat="46.53264" lon="4.82611">
        <ele>256</ele>
      </trkpt>
      <trkpt lat="46.53251" lon="4.82555">
        <ele>255.8</ele>
      </trkpt>
      <trkpt lat="46.53196" lon="4.82451">
        <ele>259.8</ele>
      </trkpt>
      <trkpt lat="46.53128" lon="4.82375">
        <ele>261.9</ele>
      </trkpt>
      <trkpt lat="46.53091" lon="4.82346">
        <ele>265.8</ele>
      </trkpt>
      <trkpt lat="46.53033" lon="4.82235">
        <ele>267.5</ele>
      </trkpt>
      <trkpt lat="46.53028" lon="4.82229">
        <ele>267.7</ele>
      </trkpt>
      <trkpt lat="46.53022" lon="4.82225">
        <ele>267.6</ele>
      </trkpt>
      <trkpt lat="46.52998" lon="4.82224">
        <ele>268.4</ele>
      </trkpt>
      <trkpt lat="46.52938" lon="4.82226">
        <ele>270</ele>
      </trkpt>
      <trkpt lat="46.52897" lon="4.82217">
        <ele>270.4</ele>
      </trkpt>
      <trkpt lat="46.52859" lon="4.82191">
        <ele>273.8</ele>
      </trkpt>
      <trkpt lat="46.52826" lon="4.82157">
        <ele>275.4</ele>
      </trkpt>
      <trkpt lat="46.52803" lon="4.82121">
        <ele>275.7</ele>
      </trkpt>
      <trkpt lat="46.52783" lon="4.82068">
        <ele>275.3</ele>
      </trkpt>
      <trkpt lat="46.52772" lon="4.82054">
        <ele>275.6</ele>
      </trkpt>
      <trkpt lat="46.52745" lon="4.82041">
        <ele>276.7</ele>
      </trkpt>
      <trkpt lat="46.52685" lon="4.82034">
        <ele>278.9</ele>
      </trkpt>
      <trkpt lat="46.52551" lon="4.81962">
        <ele>281.7</ele>
      </trkpt>
      <trkpt lat="46.52533" lon="4.81942">
        <ele>282.8</ele>
      </trkpt>
      <trkpt lat="46.52521" lon="4.8192">
        <ele>283.5</ele>
      </trkpt>
      <trkpt lat="46.52497" lon="4.81897">
        <ele>285.1</ele>
      </trkpt>
      <trkpt lat="46.52488" lon="4.81891">
        <ele>284.8</ele>
      </trkpt>
      <trkpt lat="46.52479" lon="4.81891">
        <ele>285.7</ele>
      </trkpt>
      <trkpt lat="46.52464" lon="4.81899">
        <ele>287.3</ele>
      </trkpt>
      <trkpt lat="46.52454" lon="4.81915">
        <ele>288.5</ele>
      </trkpt>
      <trkpt lat="46.52448" lon="4.81941">
        <ele>290.4</ele>
      </trkpt>
      <trkpt lat="46.52443" lon="4.81946">
        <ele>290.3</ele>
      </trkpt>
      <trkpt lat="46.52431" lon="4.81946">
        <ele>292.1</ele>
      </trkpt>
      <trkpt lat="46.52424" lon="4.8194">
        <ele>292.6</ele>
      </trkpt>
      <trkpt lat="46.5242" lon="4.81931">
        <ele>292.5</ele>
      </trkpt>
      <trkpt lat="46.52411" lon="4.81888">
        <ele>294.1</ele>
      </trkpt>
      <trkpt lat="46.52406" lon="4.8188">
        <ele>293.7</ele>
      </trkpt>
      <trkpt lat="46.52323" lon="4.81828">
        <ele>298.8</ele>
      </trkpt>
      <trkpt lat="46.52291" lon="4.81812">
        <ele>301.2</ele>
      </trkpt>
      <trkpt lat="46.52236" lon="4.81792">
        <ele>305.1</ele>
      </trkpt>
      <trkpt lat="46.52134" lon="4.81763">
        <ele>309.9</ele>
      </trkpt>
      <trkpt lat="46.52019" lon="4.81739">
        <ele>316.4</ele>
      </trkpt>
      <trkpt lat="46.51971" lon="4.81738">
        <ele>320.4</ele>
      </trkpt>
      <trkpt lat="46.51924" lon="4.81719">
        <ele>323.6</ele>
      </trkpt>
      <trkpt lat="46.51915" lon="4.81713">
        <ele>324.3</ele>
      </trkpt>
      <trkpt lat="46.51871" lon="4.81668">
        <ele>326.7</ele>
      </trkpt>
      <trkpt lat="46.51759" lon="4.81537">
        <ele>335.8</ele>
      </trkpt>
      <trkpt lat="46.51739" lon="4.81524">
        <ele>336.7</ele>
      </trkpt>
      <trkpt lat="46.51696" lon="4.81508">
        <ele>339.7</ele>
      </trkpt>
      <trkpt lat="46.51684" lon="4.81507">
        <ele>340.3</ele>
      </trkpt>
      <trkpt lat="46.51665" lon="4.81517">
        <ele>341.6</ele>
      </trkpt>
      <trkpt lat="46.51655" lon="4.81469">
        <ele>338.7</ele>
      </trkpt>
      <trkpt lat="46.51646" lon="4.81396">
        <ele>339.2</ele>
      </trkpt>
      <trkpt lat="46.51638" lon="4.81309">
        <ele>341.9</ele>
      </trkpt>
      <trkpt lat="46.51616" lon="4.81226">
        <ele>345.9</ele>
      </trkpt>
      <trkpt lat="46.51606" lon="4.8116">
        <ele>346.5</ele>
      </trkpt>
      <trkpt lat="46.51573" lon="4.81041">
        <ele>348.4</ele>
      </trkpt>
      <trkpt lat="46.5154" lon="4.80974">
        <ele>349.2</ele>
      </trkpt>
      <trkpt lat="46.51499" lon="4.80857">
        <ele>353.1</ele>
      </trkpt>
      <trkpt lat="46.5149" lon="4.80843">
        <ele>353.2</ele>
      </trkpt>
      <trkpt lat="46.51466" lon="4.80828">
        <ele>353.2</ele>
      </trkpt>
      <trkpt lat="46.51421" lon="4.80813">
        <ele>353.2</ele>
      </trkpt>
      <trkpt lat="46.51384" lon="4.80791">
        <ele>353.3</ele>
      </trkpt>
      <trkpt lat="46.51346" lon="4.80779">
        <ele>352.9</ele>
      </trkpt>
      <trkpt lat="46.5126" lon="4.80771">
        <ele>354.7</ele>
      </trkpt>
      <trkpt lat="46.51218" lon="4.80763">
        <ele>354.8</ele>
      </trkpt>
      <trkpt lat="46.51157" lon="4.80724">
        <ele>352.3</ele>
      </trkpt>
      <trkpt lat="46.51137" lon="4.80708">
        <ele>350.9</ele>
      </trkpt>
      <trkpt lat="46.51071" lon="4.80652">
        <ele>348.6</ele>
      </trkpt>
      <trkpt lat="46.51055" lon="4.80646">
        <ele>348</ele>
      </trkpt>
      <trkpt lat="46.50976" lon="4.80621">
        <ele>345.1</ele>
      </trkpt>
      <trkpt lat="46.50942" lon="4.80607">
        <ele>345</ele>
      </trkpt>
      <trkpt lat="46.509" lon="4.80577">
        <ele>343.8</ele>
      </trkpt>
      <trkpt lat="46.50874" lon="4.80553">
        <ele>342.9</ele>
      </trkpt>
      <trkpt lat="46.50844" lon="4.80541">
        <ele>341.9</ele>
      </trkpt>
      <trkpt lat="46.50816" lon="4.80526">
        <ele>340.4</ele>
      </trkpt>
      <trkpt lat="46.50802" lon="4.805">
        <ele>339.9</ele>
      </trkpt>
      <trkpt lat="46.50777" lon="4.80432">
        <ele>338</ele>
      </trkpt>
      <trkpt lat="46.50759" lon="4.80406">
        <ele>337.9</ele>
      </trkpt>
      <trkpt lat="46.50741" lon="4.80387">
        <ele>337.7</ele>
      </trkpt>
      <trkpt lat="46.50689" lon="4.80341">
        <ele>337.6</ele>
      </trkpt>
      <trkpt lat="46.50689" lon="4.80341">
        <ele>337.6</ele>
      </trkpt>
      <trkpt lat="46.5067" lon="4.80317">
        <ele>337.6</ele>
      </trkpt>
      <trkpt lat="46.50655" lon="4.80286">
        <ele>337.2</ele>
      </trkpt>
      <trkpt lat="46.50644" lon="4.80248">
        <ele>337.7</ele>
      </trkpt>
      <trkpt lat="46.50629" lon="4.80185">
        <ele>336.4</ele>
      </trkpt>
      <trkpt lat="46.50623" lon="4.80168">
        <ele>335.4</ele>
      </trkpt>
      <trkpt lat="46.50609" lon="4.80142">
        <ele>333.9</ele>
      </trkpt>
      <trkpt lat="46.50587" lon="4.80104">
        <ele>332</ele>
      </trkpt>
      <trkpt lat="46.50581" lon="4.80085">
        <ele>329.8</ele>
      </trkpt>
      <trkpt lat="46.50564" lon="4.80051">
        <ele>328.6</ele>
      </trkpt>
      <trkpt lat="46.50521" lon="4.79953">
        <ele>323.9</ele>
      </trkpt>
      <trkpt lat="46.50468" lon="4.79804">
        <ele>313</ele>
      </trkpt>
      <trkpt lat="46.5048" lon="4.79772">
        <ele>310.2</ele>
      </trkpt>
      <trkpt lat="46.50497" lon="4.7974">
        <ele>306.9</ele>
      </trkpt>
      <trkpt lat="46.5052" lon="4.79738">
        <ele>306.2</ele>
      </trkpt>
      <trkpt lat="46.50537" lon="4.79725">
        <ele>305</ele>
      </trkpt>
      <trkpt lat="46.50542" lon="4.79713">
        <ele>304.6</ele>
      </trkpt>
      <trkpt lat="46.50546" lon="4.79691">
        <ele>304.6</ele>
      </trkpt>
      <trkpt lat="46.50546" lon="4.79656">
        <ele>304.1</ele>
      </trkpt>
      <trkpt lat="46.50531" lon="4.79646">
        <ele>304.3</ele>
      </trkpt>
      <trkpt lat="46.50441" lon="4.79579">
        <ele>298</ele>
      </trkpt>
      <trkpt lat="46.50377" lon="4.79532">
        <ele>294.5</ele>
      </trkpt>
      <trkpt lat="46.50371" lon="4.79528">
        <ele>294.1</ele>
      </trkpt>
      <trkpt lat="46.50351" lon="4.79521">
        <ele>293.1</ele>
      </trkpt>
      <trkpt lat="46.50314" lon="4.79517">
        <ele>289.8</ele>
      </trkpt>
      <trkpt lat="46.50147" lon="4.79492">
        <ele>279.7</ele>
      </trkpt>
      <trkpt lat="46.50037" lon="4.79457">
        <ele>275</ele>
      </trkpt>
      <trkpt lat="46.50003" lon="4.79446">
        <ele>274.2</ele>
      </trkpt>
      <trkpt lat="46.49945" lon="4.79428">
        <ele>270.4</ele>
      </trkpt>
      <trkpt lat="46.49872" lon="4.79404">
        <ele>266.5</ele>
      </trkpt>
      <trkpt lat="46.49854" lon="4.79399">
        <ele>265.4</ele>
      </trkpt>
      <trkpt lat="46.49805" lon="4.79383">
        <ele>263.5</ele>
      </trkpt>
      <trkpt lat="46.49763" lon="4.79374">
        <ele>261.8</ele>
      </trkpt>
      <trkpt lat="46.4967" lon="4.79375">
        <ele>260.9</ele>
      </trkpt>
      <trkpt lat="46.49606" lon="4.79378">
        <ele>260.2</ele>
      </trkpt>
      <trkpt lat="46.49568" lon="4.79375">
        <ele>262</ele>
      </trkpt>
      <trkpt lat="46.49539" lon="4.79363">
        <ele>263.5</ele>
      </trkpt>
      <trkpt lat="46.49415" lon="4.79297">
        <ele>270.5</ele>
      </trkpt>
      <trkpt lat="46.49397" lon="4.79288">
        <ele>270.8</ele>
      </trkpt>
      <trkpt lat="46.49316" lon="4.79245">
        <ele>274.6</ele>
      </trkpt>
      <trkpt lat="46.49191" lon="4.79217">
        <ele>279.6</ele>
      </trkpt>
      <trkpt lat="46.49105" lon="4.7918">
        <ele>284.5</ele>
      </trkpt>
      <trkpt lat="46.48951" lon="4.79122">
        <ele>291.9</ele>
      </trkpt>
      <trkpt lat="46.48934" lon="4.79149">
        <ele>291.2</ele>
      </trkpt>
      <trkpt lat="46.48928" lon="4.79164">
        <ele>290.9</ele>
      </trkpt>
      <trkpt lat="46.48915" lon="4.79218">
        <ele>292.9</ele>
      </trkpt>
      <trkpt lat="46.48909" lon="4.79261">
        <ele>293.4</ele>
      </trkpt>
      <trkpt lat="46.489" lon="4.79298">
        <ele>295.5</ele>
      </trkpt>
      <trkpt lat="46.48881" lon="4.79354">
        <ele>299.7</ele>
      </trkpt>
      <trkpt lat="46.48864" lon="4.79419">
        <ele>304.4</ele>
      </trkpt>
      <trkpt lat="46.48848" lon="4.79504">
        <ele>312.7</ele>
      </trkpt>
      <trkpt lat="46.4884" lon="4.79546">
        <ele>314</ele>
      </trkpt>
      <trkpt lat="46.48807" lon="4.79715">
        <ele>311.2</ele>
      </trkpt>
      <trkpt lat="46.48793" lon="4.79801">
        <ele>308.2</ele>
      </trkpt>
      <trkpt lat="46.48776" lon="4.79869">
        <ele>306.7</ele>
      </trkpt>
      <trkpt lat="46.4875" lon="4.79955">
        <ele>305</ele>
      </trkpt>
      <trkpt lat="46.48733" lon="4.8001">
        <ele>303.6</ele>
      </trkpt>
      <trkpt lat="46.48718" lon="4.80048">
        <ele>303.3</ele>
      </trkpt>
      <trkpt lat="46.48659" lon="4.80142">
        <ele>303</ele>
      </trkpt>
      <trkpt lat="46.48616" lon="4.80204">
        <ele>304.2</ele>
      </trkpt>
      <trkpt lat="46.48586" lon="4.80283">
        <ele>305.9</ele>
      </trkpt>
      <trkpt lat="46.48524" lon="4.80496">
        <ele>309.2</ele>
      </trkpt>
      <trkpt lat="46.48425" lon="4.80445">
        <ele>311.1</ele>
      </trkpt>
      <trkpt lat="46.48359" lon="4.80463">
        <ele>311.3</ele>
      </trkpt>
      <trkpt lat="46.48306" lon="4.80482">
        <ele>309.7</ele>
      </trkpt>
      <trkpt lat="46.48266" lon="4.80503">
        <ele>308.3</ele>
      </trkpt>
      <trkpt lat="46.48219" lon="4.80538">
        <ele>306.1</ele>
      </trkpt>
      <trkpt lat="46.48161" lon="4.80538">
        <ele>301.9</ele>
      </trkpt>
      <trkpt lat="46.48137" lon="4.80546">
        <ele>299.9</ele>
      </trkpt>
      <trkpt lat="46.48126" lon="4.80582">
        <ele>300</ele>
      </trkpt>
      <trkpt lat="46.48126" lon="4.80616">
        <ele>300.1</ele>
      </trkpt>
      <trkpt lat="46.48099" lon="4.80755">
        <ele>293.9</ele>
      </trkpt>
      <trkpt lat="46.48085" lon="4.80785">
        <ele>291.9</ele>
      </trkpt>
      <trkpt lat="46.48064" lon="4.80804">
        <ele>290.4</ele>
      </trkpt>
      <trkpt lat="46.48051" lon="4.80808">
        <ele>289.9</ele>
      </trkpt>
      <trkpt lat="46.48036" lon="4.80814">
        <ele>289.5</ele>
      </trkpt>
      <trkpt lat="46.48026" lon="4.80827">
        <ele>288.4</ele>
      </trkpt>
      <trkpt lat="46.48007" lon="4.80874">
        <ele>285.4</ele>
      </trkpt>
      <trkpt lat="46.47974" lon="4.80965">
        <ele>279.8</ele>
      </trkpt>
      <trkpt lat="46.47964" lon="4.80975">
        <ele>278.8</ele>
      </trkpt>
      <trkpt lat="46.47928" lon="4.80978">
        <ele>278.6</ele>
      </trkpt>
      <trkpt lat="46.4789" lon="4.8099">
        <ele>277.7</ele>
      </trkpt>
      <trkpt lat="46.47876" lon="4.8099">
        <ele>277.7</ele>
      </trkpt>
      <trkpt lat="46.47872" lon="4.80991">
        <ele>277.6</ele>
      </trkpt>
      <trkpt lat="46.47862" lon="4.81002">
        <ele>276.8</ele>
      </trkpt>
      <trkpt lat="46.47855" lon="4.81025">
        <ele>274.3</ele>
      </trkpt>
      <trkpt lat="46.47857" lon="4.8104">
        <ele>272.7</ele>
      </trkpt>
      <trkpt lat="46.47853" lon="4.81086">
        <ele>267.6</ele>
      </trkpt>
      <trkpt lat="46.47855" lon="4.811">
        <ele>265.6</ele>
      </trkpt>
      <trkpt lat="46.4786" lon="4.81115">
        <ele>263.4</ele>
      </trkpt>
      <trkpt lat="46.47879" lon="4.8114">
        <ele>259.1</ele>
      </trkpt>
      <trkpt lat="46.47945" lon="4.81177">
        <ele>251.7</ele>
      </trkpt>
      <trkpt lat="46.47962" lon="4.81189">
        <ele>248.9</ele>
      </trkpt>
      <trkpt lat="46.47984" lon="4.81218">
        <ele>243.7</ele>
      </trkpt>
      <trkpt lat="46.47994" lon="4.81236">
        <ele>241</ele>
      </trkpt>
      <trkpt lat="46.48005" lon="4.81274">
        <ele>236.2</ele>
      </trkpt>
      <trkpt lat="46.48019" lon="4.8129">
        <ele>233.9</ele>
      </trkpt>
      <trkpt lat="46.48071" lon="4.81292">
        <ele>232.2</ele>
      </trkpt>
      <trkpt lat="46.48072" lon="4.81328">
        <ele>230.2</ele>
      </trkpt>
      <trkpt lat="46.4807" lon="4.81343">
        <ele>229.7</ele>
      </trkpt>
      <trkpt lat="46.48092" lon="4.81374">
        <ele>229.5</ele>
      </trkpt>
      <trkpt lat="46.48107" lon="4.81396">
        <ele>231.1</ele>
      </trkpt>
      <trkpt lat="46.4815" lon="4.8141">
        <ele>235.3</ele>
      </trkpt>
      <trkpt lat="46.48184" lon="4.81435">
        <ele>237.5</ele>
      </trkpt>
      <trkpt lat="46.48215" lon="4.8139">
        <ele>236.5</ele>
      </trkpt>
      <trkpt lat="46.48236" lon="4.81361">
        <ele>237.5</ele>
      </trkpt>
      <trkpt lat="46.48253" lon="4.81343">
        <ele>238.9</ele>
      </trkpt>
      <trkpt lat="46.48266" lon="4.81327">
        <ele>240.5</ele>
      </trkpt>
      <trkpt lat="46.48265" lon="4.81353">
        <ele>241.4</ele>
      </trkpt>
      <trkpt lat="46.48278" lon="4.81396">
        <ele>242</ele>
      </trkpt>
      <trkpt lat="46.48279" lon="4.81414">
        <ele>242.2</ele>
      </trkpt>
      <trkpt lat="46.48274" lon="4.81455">
        <ele>242.5</ele>
      </trkpt>
      <trkpt lat="46.48264" lon="4.81484">
        <ele>241.9</ele>
      </trkpt>
      <trkpt lat="46.48258" lon="4.81493">
        <ele>241.9</ele>
      </trkpt>
      <trkpt lat="46.48234" lon="4.81545">
        <ele>240.8</ele>
      </trkpt>
      <trkpt lat="46.4823" lon="4.81559">
        <ele>240.6</ele>
      </trkpt>
      <trkpt lat="46.48229" lon="4.81579">
        <ele>240.5</ele>
      </trkpt>
      <trkpt lat="46.48232" lon="4.8159">
        <ele>240.5</ele>
      </trkpt>
      <trkpt lat="46.48247" lon="4.81617">
        <ele>241.5</ele>
      </trkpt>
      <trkpt lat="46.4825" lon="4.81629">
        <ele>241.4</ele>
      </trkpt>
      <trkpt lat="46.48249" lon="4.81643">
        <ele>240.9</ele>
      </trkpt>
      <trkpt lat="46.48236" lon="4.81689">
        <ele>239.1</ele>
      </trkpt>
      <trkpt lat="46.48218" lon="4.81735">
        <ele>238.3</ele>
      </trkpt>
      <trkpt lat="46.48189" lon="4.81826">
        <ele>237.8</ele>
      </trkpt>
      <trkpt lat="46.48183" lon="4.81837">
        <ele>237.6</ele>
      </trkpt>
      <trkpt lat="46.48158" lon="4.81802">
        <ele>236.6</ele>
      </trkpt>
      <trkpt lat="46.48129" lon="4.8177">
        <ele>235.5</ele>
      </trkpt>
      <trkpt lat="46.48097" lon="4.81738">
        <ele>234.5</ele>
      </trkpt>
      <trkpt lat="46.48068" lon="4.81698">
        <ele>233.1</ele>
      </trkpt>
      <trkpt lat="46.48066" lon="4.81695">
        <ele>233</ele>
      </trkpt>
      <trkpt lat="46.48056" lon="4.81696">
        <ele>233</ele>
      </trkpt>
      <trkpt lat="46.48022" lon="4.81671">
        <ele>231.2</ele>
      </trkpt>
      <trkpt lat="46.48019" lon="4.81666">
        <ele>231</ele>
      </trkpt>
      <trkpt lat="46.4799" lon="4.81655">
        <ele>230.6</ele>
      </trkpt>
      <trkpt lat="46.47913" lon="4.8166">
        <ele>230.4</ele>
      </trkpt>
      <trkpt lat="46.47835" lon="4.81665">
        <ele>229.9</ele>
      </trkpt>
      <trkpt lat="46.47758" lon="4.8167">
        <ele>229.3</ele>
      </trkpt>
      <trkpt lat="46.47753" lon="4.81587">
        <ele>225.2</ele>
      </trkpt>
      <trkpt lat="46.47729" lon="4.81596">
        <ele>224.7</ele>
      </trkpt>
      <trkpt lat="46.47729" lon="4.81596">
        <ele>224.7</ele>
      </trkpt>
      <trkpt lat="46.47706" lon="4.81601">
        <ele>224.6</ele>
      </trkpt>
      <trkpt lat="46.47679" lon="4.81601">
        <ele>224.6</ele>
      </trkpt>
      <trkpt lat="46.47655" lon="4.81591">
        <ele>223.9</ele>
      </trkpt>
      <trkpt lat="46.47631" lon="4.81589">
        <ele>223.1</ele>
      </trkpt>
      <trkpt lat="46.47574" lon="4.81595">
        <ele>222.7</ele>
      </trkpt>
      <trkpt lat="46.47442" lon="4.81606">
        <ele>221</ele>
      </trkpt>
      <trkpt lat="46.47441" lon="4.81692">
        <ele>222.9</ele>
      </trkpt>
      <trkpt lat="46.47438" lon="4.81719">
        <ele>225.4</ele>
      </trkpt>
      <trkpt lat="46.47433" lon="4.8174">
        <ele>227.5</ele>
      </trkpt>
      <trkpt lat="46.47402" lon="4.81787">
        <ele>229</ele>
      </trkpt>
      <trkpt lat="46.47392" lon="4.81799">
        <ele>229</ele>
      </trkpt>
      <trkpt lat="46.47408" lon="4.81899">
        <ele>234.6</ele>
      </trkpt>
      <trkpt lat="46.4743" lon="4.8205">
        <ele>240.7</ele>
      </trkpt>
      <trkpt lat="46.47436" lon="4.82074">
        <ele>239.8</ele>
      </trkpt>
      <trkpt lat="46.47444" lon="4.82096">
        <ele>239.5</ele>
      </trkpt>
      <trkpt lat="46.4751" lon="4.82233">
        <ele>238.9</ele>
      </trkpt>
      <trkpt lat="46.4753" lon="4.82279">
        <ele>238.1</ele>
      </trkpt>
      <trkpt lat="46.47546" lon="4.82321">
        <ele>237.2</ele>
      </trkpt>
      <trkpt lat="46.47555" lon="4.82355">
        <ele>236.9</ele>
      </trkpt>
      <trkpt lat="46.47565" lon="4.82402">
        <ele>236</ele>
      </trkpt>
      <trkpt lat="46.47574" lon="4.8246">
        <ele>235.6</ele>
      </trkpt>
      <trkpt lat="46.47594" lon="4.82643">
        <ele>237.8</ele>
      </trkpt>
      <trkpt lat="46.47608" lon="4.82731">
        <ele>238.3</ele>
      </trkpt>
      <trkpt lat="46.47581" lon="4.8276">
        <ele>234.7</ele>
      </trkpt>
      <trkpt lat="46.47548" lon="4.82817">
        <ele>229.8</ele>
      </trkpt>
      <trkpt lat="46.47513" lon="4.82867">
        <ele>220.1</ele>
      </trkpt>
      <trkpt lat="46.47506" lon="4.82885">
        <ele>218.6</ele>
      </trkpt>
      <trkpt lat="46.47506" lon="4.82891">
        <ele>218.4</ele>
      </trkpt>
      <trkpt lat="46.47512" lon="4.82915">
        <ele>215.9</ele>
      </trkpt>
      <trkpt lat="46.47508" lon="4.82918">
        <ele>215.1</ele>
      </trkpt>
      <trkpt lat="46.47503" lon="4.82923">
        <ele>214.2</ele>
      </trkpt>
      <trkpt lat="46.47477" lon="4.82942">
        <ele>212.2</ele>
      </trkpt>
      <trkpt lat="46.47467" lon="4.82946">
        <ele>211.8</ele>
      </trkpt>
      <trkpt lat="46.47408" lon="4.82952">
        <ele>212.1</ele>
      </trkpt>
      <trkpt lat="46.47408" lon="4.83012">
        <ele>211.6</ele>
      </trkpt>
      <trkpt lat="46.47337" lon="4.83041">
        <ele>216.7</ele>
      </trkpt>
      <trkpt lat="46.47314" lon="4.83043">
        <ele>219.3</ele>
      </trkpt>
      <trkpt lat="46.47284" lon="4.83046">
        <ele>222.9</ele>
      </trkpt>
      <trkpt lat="46.47166" lon="4.83033">
        <ele>229.2</ele>
      </trkpt>
      <trkpt lat="46.47136" lon="4.83034">
        <ele>232.1</ele>
      </trkpt>
      <trkpt lat="46.47124" lon="4.83034">
        <ele>233.1</ele>
      </trkpt>
      <trkpt lat="46.47103" lon="4.83041">
        <ele>234.9</ele>
      </trkpt>
      <trkpt lat="46.47071" lon="4.83058">
        <ele>237.6</ele>
      </trkpt>
      <trkpt lat="46.47059" lon="4.83069">
        <ele>238.4</ele>
      </trkpt>
      <trkpt lat="46.47038" lon="4.83096">
        <ele>241.9</ele>
      </trkpt>
      <trkpt lat="46.47027" lon="4.83105">
        <ele>241.8</ele>
      </trkpt>
      <trkpt lat="46.46992" lon="4.83114">
        <ele>243.8</ele>
      </trkpt>
      <trkpt lat="46.46986" lon="4.8312">
        <ele>244.1</ele>
      </trkpt>
      <trkpt lat="46.46983" lon="4.83128">
        <ele>245</ele>
      </trkpt>
      <trkpt lat="46.46983" lon="4.83136">
        <ele>246</ele>
      </trkpt>
      <trkpt lat="46.46989" lon="4.83143">
        <ele>247.3</ele>
      </trkpt>
      <trkpt lat="46.47028" lon="4.83158">
        <ele>249.1</ele>
      </trkpt>
      <trkpt lat="46.47038" lon="4.83157">
        <ele>250.4</ele>
      </trkpt>
      <trkpt lat="46.47064" lon="4.83137">
        <ele>251.3</ele>
      </trkpt>
      <trkpt lat="46.47073" lon="4.83135">
        <ele>251.8</ele>
      </trkpt>
      <trkpt lat="46.47087" lon="4.83145">
        <ele>253.3</ele>
      </trkpt>
      <trkpt lat="46.47093" lon="4.83155">
        <ele>254</ele>
      </trkpt>
      <trkpt lat="46.47096" lon="4.83169">
        <ele>255.1</ele>
      </trkpt>
      <trkpt lat="46.47096" lon="4.8318">
        <ele>255.7</ele>
      </trkpt>
      <trkpt lat="46.47092" lon="4.83189">
        <ele>256.4</ele>
      </trkpt>
      <trkpt lat="46.47053" lon="4.83243">
        <ele>259.6</ele>
      </trkpt>
      <trkpt lat="46.47029" lon="4.83263">
        <ele>260.9</ele>
      </trkpt>
      <trkpt lat="46.46974" lon="4.83281">
        <ele>264.4</ele>
      </trkpt>
      <trkpt lat="46.46921" lon="4.8331">
        <ele>269.8</ele>
      </trkpt>
      <trkpt lat="46.46866" lon="4.83319">
        <ele>274.7</ele>
      </trkpt>
      <trkpt lat="46.46853" lon="4.83322">
        <ele>275.7</ele>
      </trkpt>
      <trkpt lat="46.46844" lon="4.83328">
        <ele>276.8</ele>
      </trkpt>
      <trkpt lat="46.46786" lon="4.8333">
        <ele>280</ele>
      </trkpt>
      <trkpt lat="46.46738" lon="4.83327">
        <ele>284.3</ele>
      </trkpt>
      <trkpt lat="46.46702" lon="4.8331">
        <ele>286.8</ele>
      </trkpt>
      <trkpt lat="46.467" lon="4.83309">
        <ele>286.8</ele>
      </trkpt>
      <trkpt lat="46.46694" lon="4.8335">
        <ele>290.2</ele>
      </trkpt>
      <trkpt lat="46.46678" lon="4.83408">
        <ele>296.4</ele>
      </trkpt>
      <trkpt lat="46.46662" lon="4.83424">
        <ele>300.8</ele>
      </trkpt>
      <trkpt lat="46.4666" lon="4.83434">
        <ele>302.8</ele>
      </trkpt>
      <trkpt lat="46.46674" lon="4.83517">
        <ele>313.4</ele>
      </trkpt>
      <trkpt lat="46.46674" lon="4.83517">
        <ele>313.4</ele>
      </trkpt>
      <trkpt lat="46.46688" lon="4.83558">
        <ele>319.9</ele>
      </trkpt>
      <trkpt lat="46.46698" lon="4.83574">
        <ele>322.6</ele>
      </trkpt>
      <trkpt lat="46.46736" lon="4.8362">
        <ele>328.1</ele>
      </trkpt>
      <trkpt lat="46.46754" lon="4.83655">
        <ele>332.3</ele>
      </trkpt>
      <trkpt lat="46.46752" lon="4.83685">
        <ele>335.9</ele>
      </trkpt>
      <trkpt lat="46.46742" lon="4.83703">
        <ele>338.3</ele>
      </trkpt>
      <trkpt lat="46.46739" lon="4.83716">
        <ele>338.4</ele>
      </trkpt>
      <trkpt lat="46.4671" lon="4.83678">
        <ele>343.1</ele>
      </trkpt>
      <trkpt lat="46.46695" lon="4.83662">
        <ele>345.4</ele>
      </trkpt>
      <trkpt lat="46.46629" lon="4.83611">
        <ele>351</ele>
      </trkpt>
      <trkpt lat="46.46601" lon="4.8359">
        <ele>350</ele>
      </trkpt>
      <trkpt lat="46.46547" lon="4.83565">
        <ele>355.4</ele>
      </trkpt>
      <trkpt lat="46.4654" lon="4.83563">
        <ele>355.9</ele>
      </trkpt>
      <trkpt lat="46.46527" lon="4.83552">
        <ele>356.4</ele>
      </trkpt>
      <trkpt lat="46.46494" lon="4.83536">
        <ele>356.9</ele>
      </trkpt>
      <trkpt lat="46.46477" lon="4.83534">
        <ele>358.7</ele>
      </trkpt>
      <trkpt lat="46.46461" lon="4.83537">
        <ele>360.4</ele>
      </trkpt>
      <trkpt lat="46.46457" lon="4.83542">
        <ele>360.9</ele>
      </trkpt>
      <trkpt lat="46.46455" lon="4.8361">
        <ele>358.3</ele>
      </trkpt>
      <trkpt lat="46.46447" lon="4.8365">
        <ele>356.1</ele>
      </trkpt>
      <trkpt lat="46.46439" lon="4.83682">
        <ele>354.1</ele>
      </trkpt>
      <trkpt lat="46.46432" lon="4.83695">
        <ele>353.4</ele>
      </trkpt>
      <trkpt lat="46.46411" lon="4.83723">
        <ele>351.1</ele>
      </trkpt>
      <trkpt lat="46.46307" lon="4.83833">
        <ele>346.9</ele>
      </trkpt>
      <trkpt lat="46.4626" lon="4.83887">
        <ele>345.8</ele>
      </trkpt>
      <trkpt lat="46.4623" lon="4.83922">
        <ele>344.6</ele>
      </trkpt>
      <trkpt lat="46.46199" lon="4.83952">
        <ele>343.9</ele>
      </trkpt>
      <trkpt lat="46.46192" lon="4.83956">
        <ele>343.9</ele>
      </trkpt>
      <trkpt lat="46.461" lon="4.84006">
        <ele>341.4</ele>
      </trkpt>
      <trkpt lat="46.46102" lon="4.83989">
        <ele>343.6</ele>
      </trkpt>
      <trkpt lat="46.46109" lon="4.83932">
        <ele>350.8</ele>
      </trkpt>
      <trkpt lat="46.46116" lon="4.83877">
        <ele>356.6</ele>
      </trkpt>
      <trkpt lat="46.46116" lon="4.83872">
        <ele>357</ele>
      </trkpt>
      <trkpt lat="46.46112" lon="4.83865">
        <ele>357.7</ele>
      </trkpt>
      <trkpt lat="46.461" lon="4.83852">
        <ele>359.3</ele>
      </trkpt>
      <trkpt lat="46.46067" lon="4.8382">
        <ele>362.7</ele>
      </trkpt>
      <trkpt lat="46.46003" lon="4.83741">
        <ele>369.6</ele>
      </trkpt>
      <trkpt lat="46.4598" lon="4.83718">
        <ele>370.6</ele>
      </trkpt>
      <trkpt lat="46.45968" lon="4.8371">
        <ele>370.7</ele>
      </trkpt>
      <trkpt lat="46.45918" lon="4.8366">
        <ele>371.6</ele>
      </trkpt>
      <trkpt lat="46.45904" lon="4.83633">
        <ele>372.5</ele>
      </trkpt>
      <trkpt lat="46.45883" lon="4.83582">
        <ele>374.7</ele>
      </trkpt>
      <trkpt lat="46.45854" lon="4.83518">
        <ele>376.4</ele>
      </trkpt>
      <trkpt lat="46.45853" lon="4.83517">
        <ele>376.4</ele>
      </trkpt>
      <trkpt lat="46.45837" lon="4.83504">
        <ele>376.1</ele>
      </trkpt>
      <trkpt lat="46.45816" lon="4.83488">
        <ele>376.2</ele>
      </trkpt>
      <trkpt lat="46.45764" lon="4.83445">
        <ele>376.5</ele>
      </trkpt>
      <trkpt lat="46.45706" lon="4.83549">
        <ele>360.4</ele>
      </trkpt>
      <trkpt lat="46.45656" lon="4.83641">
        <ele>347.1</ele>
      </trkpt>
      <trkpt lat="46.45601" lon="4.8374">
        <ele>333</ele>
      </trkpt>
      <trkpt lat="46.45573" lon="4.83791">
        <ele>326.4</ele>
      </trkpt>
      <trkpt lat="46.45571" lon="4.83807">
        <ele>324.5</ele>
      </trkpt>
      <trkpt lat="46.45566" lon="4.83819">
        <ele>321.8</ele>
      </trkpt>
      <trkpt lat="46.45535" lon="4.83858">
        <ele>313.1</ele>
      </trkpt>
      <trkpt lat="46.45471" lon="4.83828">
        <ele>309.4</ele>
      </trkpt>
      <trkpt lat="46.45435" lon="4.83807">
        <ele>307.2</ele>
      </trkpt>
      <trkpt lat="46.45382" lon="4.83768">
        <ele>303.7</ele>
      </trkpt>
      <trkpt lat="46.45368" lon="4.83753">
        <ele>302.8</ele>
      </trkpt>
      <trkpt lat="46.45368" lon="4.83752">
        <ele>302.8</ele>
      </trkpt>
      <trkpt lat="46.45324" lon="4.8368">
        <ele>299.5</ele>
      </trkpt>
      <trkpt lat="46.45305" lon="4.83666">
        <ele>298</ele>
      </trkpt>
      <trkpt lat="46.45269" lon="4.83652">
        <ele>295.6</ele>
      </trkpt>
      <trkpt lat="46.45225" lon="4.83609">
        <ele>292.6</ele>
      </trkpt>
      <trkpt lat="46.4521" lon="4.83602">
        <ele>292.1</ele>
      </trkpt>
      <trkpt lat="46.45193" lon="4.83597">
        <ele>291.4</ele>
      </trkpt>
      <trkpt lat="46.45116" lon="4.83603">
        <ele>286.8</ele>
      </trkpt>
      <trkpt lat="46.451" lon="4.8361">
        <ele>285.3</ele>
      </trkpt>
      <trkpt lat="46.45094" lon="4.8362">
        <ele>284.3</ele>
      </trkpt>
      <trkpt lat="46.45094" lon="4.83632">
        <ele>283.7</ele>
      </trkpt>
      <trkpt lat="46.45097" lon="4.83643">
        <ele>283</ele>
      </trkpt>
      <trkpt lat="46.45105" lon="4.83658">
        <ele>281.9</ele>
      </trkpt>
      <trkpt lat="46.4513" lon="4.83681">
        <ele>280.3</ele>
      </trkpt>
      <trkpt lat="46.45132" lon="4.83688">
        <ele>279.3</ele>
      </trkpt>
      <trkpt lat="46.45131" lon="4.83698">
        <ele>277.8</ele>
      </trkpt>
      <trkpt lat="46.45117" lon="4.83703">
        <ele>276.4</ele>
      </trkpt>
      <trkpt lat="46.45058" lon="4.83693">
        <ele>272.3</ele>
      </trkpt>
      <trkpt lat="46.45041" lon="4.83674">
        <ele>271.4</ele>
      </trkpt>
      <trkpt lat="46.44986" lon="4.83643">
        <ele>266.4</ele>
      </trkpt>
      <trkpt lat="46.44985" lon="4.83635">
        <ele>267.5</ele>
      </trkpt>
      <trkpt lat="46.4498" lon="4.8363">
        <ele>268.8</ele>
      </trkpt>
      <trkpt lat="46.44972" lon="4.83627">
        <ele>269.6</ele>
      </trkpt>
      <trkpt lat="46.44955" lon="4.83633">
        <ele>268.3</ele>
      </trkpt>
      <trkpt lat="46.44926" lon="4.83633">
        <ele>268</ele>
      </trkpt>
      <trkpt lat="46.44855" lon="4.83588">
        <ele>269.3</ele>
      </trkpt>
      <trkpt lat="46.44846" lon="4.8359">
        <ele>268.6</ele>
      </trkpt>
      <trkpt lat="46.44835" lon="4.83615">
        <ele>266.9</ele>
      </trkpt>
      <trkpt lat="46.44828" lon="4.83615">
        <ele>266</ele>
      </trkpt>
      <trkpt lat="46.44796" lon="4.83594">
        <ele>263.8</ele>
      </trkpt>
      <trkpt lat="46.44795" lon="4.83594">
        <ele>263.7</ele>
      </trkpt>
      <trkpt lat="46.44785" lon="4.83592">
        <ele>262.8</ele>
      </trkpt>
      <trkpt lat="46.44766" lon="4.83603">
        <ele>259.6</ele>
      </trkpt>
      <trkpt lat="46.44753" lon="4.83615">
        <ele>256.9</ele>
      </trkpt>
      <trkpt lat="46.44739" lon="4.83621">
        <ele>254.7</ele>
      </trkpt>
      <trkpt lat="46.44742" lon="4.83591">
        <ele>258.1</ele>
      </trkpt>
      <trkpt lat="46.44744" lon="4.83574">
        <ele>260.1</ele>
      </trkpt>
      <trkpt lat="46.44742" lon="4.83568">
        <ele>260.5</ele>
      </trkpt>
      <trkpt lat="46.44701" lon="4.83531">
        <ele>260.3</ele>
      </trkpt>
      <trkpt lat="46.44633" lon="4.83482">
        <ele>260.2</ele>
      </trkpt>
      <trkpt lat="46.44552" lon="4.83431">
        <ele>260.3</ele>
      </trkpt>
      <trkpt lat="46.44533" lon="4.83421">
        <ele>260.6</ele>
      </trkpt>
      <trkpt lat="46.44521" lon="4.83418">
        <ele>260.3</ele>
      </trkpt>
      <trkpt lat="46.44464" lon="4.83393">
        <ele>261.5</ele>
      </trkpt>
      <trkpt lat="46.44446" lon="4.8338">
        <ele>263.3</ele>
      </trkpt>
      <trkpt lat="46.44423" lon="4.83372">
        <ele>265.2</ele>
      </trkpt>
      <trkpt lat="46.44405" lon="4.8336">
        <ele>267.1</ele>
      </trkpt>
      <trkpt lat="46.44382" lon="4.83321">
        <ele>270.4</ele>
      </trkpt>
      <trkpt lat="46.44335" lon="4.83301">
        <ele>269.4</ele>
      </trkpt>
      <trkpt lat="46.44328" lon="4.83304">
        <ele>268.5</ele>
      </trkpt>
      <trkpt lat="46.44325" lon="4.83317">
        <ele>267.3</ele>
      </trkpt>
      <trkpt lat="46.44297" lon="4.833">
        <ele>265.3</ele>
      </trkpt>
      <trkpt lat="46.44281" lon="4.83286">
        <ele>264.1</ele>
      </trkpt>
      <trkpt lat="46.44223" lon="4.83268">
        <ele>260.8</ele>
      </trkpt>
      <trkpt lat="46.44222" lon="4.83268">
        <ele>260.7</ele>
      </trkpt>
      <trkpt lat="46.44195" lon="4.83249">
        <ele>260.1</ele>
      </trkpt>
      <trkpt lat="46.44157" lon="4.83214">
        <ele>259.5</ele>
      </trkpt>
      <trkpt lat="46.44149" lon="4.83231">
        <ele>257.3</ele>
      </trkpt>
      <trkpt lat="46.44135" lon="4.83226">
        <ele>256.6</ele>
      </trkpt>
      <trkpt lat="46.4413" lon="4.83236">
        <ele>255.7</ele>
      </trkpt>
      <trkpt lat="46.44127" lon="4.83251">
        <ele>254.5</ele>
      </trkpt>
      <trkpt lat="46.44108" lon="4.83251">
        <ele>254.2</ele>
      </trkpt>
      <trkpt lat="46.44105" lon="4.83255">
        <ele>254.2</ele>
      </trkpt>
      <trkpt lat="46.44095" lon="4.8329">
        <ele>252.9</ele>
      </trkpt>
      <trkpt lat="46.44091" lon="4.83312">
        <ele>251.9</ele>
      </trkpt>
      <trkpt lat="46.44048" lon="4.83292">
        <ele>255.2</ele>
      </trkpt>
      <trkpt lat="46.43928" lon="4.83244">
        <ele>262.8</ele>
      </trkpt>
      <trkpt lat="46.43926" lon="4.83115">
        <ele>272.7</ele>
      </trkpt>
      <trkpt lat="46.43922" lon="4.83069">
        <ele>275</ele>
      </trkpt>
      <trkpt lat="46.4392" lon="4.83033">
        <ele>279.1</ele>
      </trkpt>
      <trkpt lat="46.43911" lon="4.82995">
        <ele>284.6</ele>
      </trkpt>
      <trkpt lat="46.4389" lon="4.82957">
        <ele>290.5</ele>
      </trkpt>
      <trkpt lat="46.43863" lon="4.82921">
        <ele>297.9</ele>
      </trkpt>
      <trkpt lat="46.43837" lon="4.82851">
        <ele>307</ele>
      </trkpt>
      <trkpt lat="46.43823" lon="4.82787">
        <ele>311.1</ele>
      </trkpt>
      <trkpt lat="46.43819" lon="4.82738">
        <ele>313.3</ele>
      </trkpt>
      <trkpt lat="46.43815" lon="4.82732">
        <ele>313.5</ele>
      </trkpt>
      <trkpt lat="46.43792" lon="4.82687">
        <ele>314.6</ele>
      </trkpt>
      <trkpt lat="46.43779" lon="4.82669">
        <ele>314.9</ele>
      </trkpt>
      <trkpt lat="46.43696" lon="4.82602">
        <ele>315</ele>
      </trkpt>
      <trkpt lat="46.43648" lon="4.82557">
        <ele>315</ele>
      </trkpt>
      <trkpt lat="46.43615" lon="4.82529">
        <ele>315</ele>
      </trkpt>
      <trkpt lat="46.43582" lon="4.82502">
        <ele>315</ele>
      </trkpt>
      <trkpt lat="46.43552" lon="4.8247">
        <ele>314.8</ele>
      </trkpt>
      <trkpt lat="46.43559" lon="4.82436">
        <ele>313.6</ele>
      </trkpt>
      <trkpt lat="46.43561" lon="4.82407">
        <ele>312.2</ele>
      </trkpt>
      <trkpt lat="46.43523" lon="4.82421">
        <ele>313.1</ele>
      </trkpt>
      <trkpt lat="46.43508" lon="4.82433">
        <ele>312.3</ele>
      </trkpt>
      <trkpt lat="46.43503" lon="4.82429">
        <ele>312.3</ele>
      </trkpt>
      <trkpt lat="46.43461" lon="4.82399">
        <ele>314</ele>
      </trkpt>
      <trkpt lat="46.43406" lon="4.82356">
        <ele>313.9</ele>
      </trkpt>
      <trkpt lat="46.43385" lon="4.82343">
        <ele>314.1</ele>
      </trkpt>
      <trkpt lat="46.43366" lon="4.82332">
        <ele>314.8</ele>
      </trkpt>
      <trkpt lat="46.43334" lon="4.82323">
        <ele>315</ele>
      </trkpt>
      <trkpt lat="46.43327" lon="4.82316">
        <ele>315</ele>
      </trkpt>
      <trkpt lat="46.43252" lon="4.82234">
        <ele>315.6</ele>
      </trkpt>
      <trkpt lat="46.43246" lon="4.82229">
        <ele>315.8</ele>
      </trkpt>
      <trkpt lat="46.4318" lon="4.82151">
        <ele>316</ele>
      </trkpt>
      <trkpt lat="46.43147" lon="4.82105">
        <ele>316</ele>
      </trkpt>
      <trkpt lat="46.43127" lon="4.82062">
        <ele>316.3</ele>
      </trkpt>
      <trkpt lat="46.43119" lon="4.81946">
        <ele>319.1</ele>
      </trkpt>
      <trkpt lat="46.43089" lon="4.81864">
        <ele>322.9</ele>
      </trkpt>
      <trkpt lat="46.43049" lon="4.81785">
        <ele>324.5</ele>
      </trkpt>
      <trkpt lat="46.43011" lon="4.81723">
        <ele>322.8</ele>
      </trkpt>
      <trkpt lat="46.4299" lon="4.81708">
        <ele>321.6</ele>
      </trkpt>
      <trkpt lat="46.42877" lon="4.81667">
        <ele>314.7</ele>
      </trkpt>
      <trkpt lat="46.42889" lon="4.8164">
        <ele>315</ele>
      </trkpt>
      <trkpt lat="46.42824" lon="4.81615">
        <ele>308.6</ele>
      </trkpt>
      <trkpt lat="46.4281" lon="4.81589">
        <ele>304.3</ele>
      </trkpt>
      <trkpt lat="46.4281" lon="4.81555">
        <ele>300.2</ele>
      </trkpt>
      <trkpt lat="46.428" lon="4.8154">
        <ele>297.2</ele>
      </trkpt>
      <trkpt lat="46.42706" lon="4.81528">
        <ele>291</ele>
      </trkpt>
      <trkpt lat="46.42639" lon="4.81497">
        <ele>287.5</ele>
      </trkpt>
      <trkpt lat="46.42562" lon="4.8147">
        <ele>283.6</ele>
      </trkpt>
      <trkpt lat="46.42539" lon="4.81462">
        <ele>282.2</ele>
      </trkpt>
      <trkpt lat="46.42504" lon="4.81444">
        <ele>280.6</ele>
      </trkpt>
      <trkpt lat="46.42493" lon="4.81423">
        <ele>277.8</ele>
      </trkpt>
      <trkpt lat="46.42508" lon="4.8141">
        <ele>274.8</ele>
      </trkpt>
      <trkpt lat="46.42542" lon="4.81415">
        <ele>273.9</ele>
      </trkpt>
      <trkpt lat="46.42576" lon="4.81435">
        <ele>278.3</ele>
      </trkpt>
      <trkpt lat="46.42577" lon="4.81436">
        <ele>278.5</ele>
      </trkpt>
      <trkpt lat="46.42638" lon="4.81455">
        <ele>279.9</ele>
      </trkpt>
      <trkpt lat="46.42707" lon="4.81494">
        <ele>286.1</ele>
      </trkpt>
      <trkpt lat="46.42743" lon="4.81452">
        <ele>279.4</ele>
      </trkpt>
      <trkpt lat="46.42757" lon="4.81427">
        <ele>276.6</ele>
      </trkpt>
      <trkpt lat="46.42761" lon="4.81407">
        <ele>274.7</ele>
      </trkpt>
      <trkpt lat="46.42753" lon="4.81375">
        <ele>270.7</ele>
      </trkpt>
      <trkpt lat="46.42716" lon="4.81326">
        <ele>264</ele>
      </trkpt>
      <trkpt lat="46.42682" lon="4.81286">
        <ele>259.1</ele>
      </trkpt>
      <trkpt lat="46.42674" lon="4.81271">
        <ele>257.5</ele>
      </trkpt>
      <trkpt lat="46.42669" lon="4.81243">
        <ele>254.6</ele>
      </trkpt>
      <trkpt lat="46.42671" lon="4.81234">
        <ele>254</ele>
      </trkpt>
      <trkpt lat="46.42683" lon="4.81194">
        <ele>251</ele>
      </trkpt>
      <trkpt lat="46.42688" lon="4.81157">
        <ele>247.8</ele>
      </trkpt>
      <trkpt lat="46.427" lon="4.80924">
        <ele>234.5</ele>
      </trkpt>
      <trkpt lat="46.42814" lon="4.8083">
        <ele>235.2</ele>
      </trkpt>
      <trkpt lat="46.42838" lon="4.80805">
        <ele>235.3</ele>
      </trkpt>
      <trkpt lat="46.42898" lon="4.80711">
        <ele>237.4</ele>
      </trkpt>
      <trkpt lat="46.42912" lon="4.80692">
        <ele>237</ele>
      </trkpt>
      <trkpt lat="46.42938" lon="4.80671">
        <ele>236.5</ele>
      </trkpt>
      <trkpt lat="46.42978" lon="4.80637">
        <ele>234.9</ele>
      </trkpt>
      <trkpt lat="46.43" lon="4.80609">
        <ele>235.8</ele>
      </trkpt>
      <trkpt lat="46.43001" lon="4.80555">
        <ele>234.1</ele>
      </trkpt>
      <trkpt lat="46.43029" lon="4.80414">
        <ele>230.1</ele>
      </trkpt>
      <trkpt lat="46.43029" lon="4.80395">
        <ele>230.1</ele>
      </trkpt>
      <trkpt lat="46.43023" lon="4.80379">
        <ele>229.9</ele>
      </trkpt>
      <trkpt lat="46.42985" lon="4.80354">
        <ele>228.5</ele>
      </trkpt>
      <trkpt lat="46.42952" lon="4.80346">
        <ele>227.3</ele>
      </trkpt>
      <trkpt lat="46.42924" lon="4.80344">
        <ele>227</ele>
      </trkpt>
      <trkpt lat="46.42882" lon="4.80314">
        <ele>227.9</ele>
      </trkpt>
      <trkpt lat="46.42875" lon="4.80296">
        <ele>228.8</ele>
      </trkpt>
      <trkpt lat="46.4284" lon="4.80283">
        <ele>230.6</ele>
      </trkpt>
      <trkpt lat="46.42827" lon="4.80282">
        <ele>231.3</ele>
      </trkpt>
      <trkpt lat="46.42798" lon="4.8029">
        <ele>232.8</ele>
      </trkpt>
      <trkpt lat="46.42771" lon="4.8029">
        <ele>235.5</ele>
      </trkpt>
      <trkpt lat="46.42701" lon="4.80259">
        <ele>242.9</ele>
      </trkpt>
      <trkpt lat="46.42648" lon="4.80245">
        <ele>245.1</ele>
      </trkpt>
      <trkpt lat="46.42487" lon="4.8017">
        <ele>244.7</ele>
      </trkpt>
      <trkpt lat="46.42404" lon="4.80141">
        <ele>245.1</ele>
      </trkpt>
      <trkpt lat="46.42377" lon="4.80135">
        <ele>244.9</ele>
      </trkpt>
      <trkpt lat="46.42181" lon="4.80057">
        <ele>246.5</ele>
      </trkpt>
      <trkpt lat="46.42146" lon="4.80053">
        <ele>247.7</ele>
      </trkpt>
      <trkpt lat="46.42008" lon="4.80051">
        <ele>250</ele>
        <extensions>
          <visugpx:TrkExtension xmlns:visugpx="https://www.visugpx.com/editgpx/">
            <visugpx:node>12</visugpx:node>
            </visugpx:TrkExtension>
        </extensions>
      </trkpt>
      <trkpt lat="46.42017" lon="4.79959">
        <ele>249.5</ele>
      </trkpt>
      <trkpt lat="46.42029" lon="4.79869">
        <ele>245.3</ele>
      </trkpt>
      <trkpt lat="46.42047" lon="4.79767">
        <ele>238.2</ele>
      </trkpt>
      <trkpt lat="46.42055" lon="4.79666">
        <ele>231</ele>
      </trkpt>
      <trkpt lat="46.4206" lon="4.7962">
        <ele>228.5</ele>
      </trkpt>
      <trkpt lat="46.42066" lon="4.79574">
        <ele>226</ele>
      </trkpt>
      <trkpt lat="46.42067" lon="4.79542">
        <ele>225.1</ele>
      </trkpt>
      <trkpt lat="46.42058" lon="4.79448">
        <ele>223.3</ele>
      </trkpt>
      <trkpt lat="46.42052" lon="4.79304">
        <ele>226.1</ele>
      </trkpt>
      <trkpt lat="46.42046" lon="4.79238">
        <ele>228.4</ele>
      </trkpt>
      <trkpt lat="46.42034" lon="4.79132">
        <ele>230.2</ele>
      </trkpt>
      <trkpt lat="46.42028" lon="4.79049">
        <ele>231</ele>
      </trkpt>
      <trkpt lat="46.42025" lon="4.78994">
        <ele>231</ele>
      </trkpt>
      <trkpt lat="46.4203" lon="4.78892">
        <ele>230</ele>
      </trkpt>
      <trkpt lat="46.42042" lon="4.78815">
        <ele>230</ele>
      </trkpt>
      <trkpt lat="46.42076" lon="4.78677">
        <ele>231</ele>
      </trkpt>
      <trkpt lat="46.42109" lon="4.78557">
        <ele>233.9</ele>
      </trkpt>
      <trkpt lat="46.42103" lon="4.78547">
        <ele>233.7</ele>
      </trkpt>
      <trkpt lat="46.42093" lon="4.78551">
        <ele>233.3</ele>
      </trkpt>
      <trkpt lat="46.42062" lon="4.78547">
        <ele>233</ele>
      </trkpt>
      <trkpt lat="46.41997" lon="4.78533">
        <ele>231.7</ele>
        <extensions>
          <visugpx:TrkExtension xmlns:visugpx="https://www.visugpx.com/editgpx/">
            <visugpx:node>13</visugpx:node>
            </visugpx:TrkExtension>
        </extensions>
      </trkpt>
      <trkpt lat="46.41904" lon="4.78511">
        <ele>230</ele>
      </trkpt>
      <trkpt lat="46.4182" lon="4.7849">
        <ele>228.5</ele>
      </trkpt>
      <trkpt lat="46.41728" lon="4.78472">
        <ele>226.2</ele>
      </trkpt>
      <trkpt lat="46.41687" lon="4.78521">
        <ele>225</ele>
      </trkpt>
      <trkpt lat="46.41677" lon="4.78525">
        <ele>225</ele>
      </trkpt>
      <trkpt lat="46.41591" lon="4.78534">
        <ele>223.3</ele>
      </trkpt>
      <trkpt lat="46.41422" lon="4.78537">
        <ele>219.8</ele>
      </trkpt>
      <trkpt lat="46.41388" lon="4.78543">
        <ele>219.5</ele>
      </trkpt>
      <trkpt lat="46.4136" lon="4.78537">
        <ele>218.3</ele>
      </trkpt>
      <trkpt lat="46.41334" lon="4.78528">
        <ele>217</ele>
      </trkpt>
      <trkpt lat="46.41325" lon="4.78528">
        <ele>216.7</ele>
      </trkpt>
      <trkpt lat="46.4124" lon="4.78515">
        <ele>212.8</ele>
      </trkpt>
      <trkpt lat="46.41229" lon="4.78515">
        <ele>212.7</ele>
      </trkpt>
      <trkpt lat="46.41221" lon="4.78518">
        <ele>212.6</ele>
      </trkpt>
      <trkpt lat="46.41211" lon="4.78524">
        <ele>212.5</ele>
      </trkpt>
      <trkpt lat="46.41144" lon="4.78451">
        <ele>211.7</ele>
      </trkpt>
      <trkpt lat="46.41136" lon="4.78442">
        <ele>211.9</ele>
      </trkpt>
      <trkpt lat="46.41131" lon="4.78437">
        <ele>211.8</ele>
      </trkpt>
      <trkpt lat="46.41126" lon="4.78431">
        <ele>211.8</ele>
        <extensions>
          <visugpx:TrkExtension xmlns:visugpx="https://www.visugpx.com/editgpx/">
            <visugpx:node>14</visugpx:node>
            </visugpx:TrkExtension>
        </extensions>
      </trkpt>
      <trkpt lat="46.41104" lon="4.78407">
        <ele>211.7</ele>
      </trkpt>
      <trkpt lat="46.41105" lon="4.78375">
        <ele>211.9</ele>
      </trkpt>
      <trkpt lat="46.41112" lon="4.78331">
        <ele>212.1</ele>
      </trkpt>
      <trkpt lat="46.41135" lon="4.78236">
        <ele>213.6</ele>
      </trkpt>
      <trkpt lat="46.41139" lon="4.78204">
        <ele>215.3</ele>
      </trkpt>
      <trkpt lat="46.41139" lon="4.78185">
        <ele>216</ele>
      </trkpt>
      <trkpt lat="46.41119" lon="4.78128">
        <ele>219.8</ele>
      </trkpt>
      <trkpt lat="46.41114" lon="4.78091">
        <ele>223.2</ele>
      </trkpt>
      <trkpt lat="46.41111" lon="4.78008">
        <ele>229.4</ele>
      </trkpt>
      <trkpt lat="46.41116" lon="4.77884">
        <ele>237</ele>
      </trkpt>
      <trkpt lat="46.41125" lon="4.77825">
        <ele>238.8</ele>
      </trkpt>
      <trkpt lat="46.41138" lon="4.77778">
        <ele>240</ele>
      </trkpt>
      <trkpt lat="46.41155" lon="4.77699">
        <ele>241.6</ele>
      </trkpt>
      <trkpt lat="46.41164" lon="4.77677">
        <ele>241.9</ele>
      </trkpt>
      <trkpt lat="46.41179" lon="4.77623">
        <ele>242.4</ele>
      </trkpt>
      <trkpt lat="46.41195" lon="4.77541">
        <ele>242.5</ele>
      </trkpt>
      <trkpt lat="46.41206" lon="4.77504">
        <ele>242.4</ele>
      </trkpt>
      <trkpt lat="46.41217" lon="4.77477">
        <ele>242</ele>
      </trkpt>
      <trkpt lat="46.41252" lon="4.77347">
        <ele>242.1</ele>
      </trkpt>
      <trkpt lat="46.41312" lon="4.77204">
        <ele>246.2</ele>
      </trkpt>
      <trkpt lat="46.41332" lon="4.77124">
        <ele>248.6</ele>
      </trkpt>
      <trkpt lat="46.41356" lon="4.77009">
        <ele>251.9</ele>
      </trkpt>
      <trkpt lat="46.41363" lon="4.76983">
        <ele>252.5</ele>
      </trkpt>
      <trkpt lat="46.41378" lon="4.76945">
        <ele>252.8</ele>
      </trkpt>
      <trkpt lat="46.41346" lon="4.76953">
        <ele>254.2</ele>
      </trkpt>
      <trkpt lat="46.41276" lon="4.7694">
        <ele>257.2</ele>
      </trkpt>
      <trkpt lat="46.41244" lon="4.7691">
        <ele>259.5</ele>
      </trkpt>
      <trkpt lat="46.41123" lon="4.76934">
        <ele>257.8</ele>
      </trkpt>
      <trkpt lat="46.41102" lon="4.76952">
        <ele>256.1</ele>
      </trkpt>
      <trkpt lat="46.41049" lon="4.76958">
        <ele>253.8</ele>
      </trkpt>
      <trkpt lat="46.41021" lon="4.76957">
        <ele>252.6</ele>
      </trkpt>
      <trkpt lat="46.40979" lon="4.76906">
        <ele>253.1</ele>
      </trkpt>
      <trkpt lat="46.40935" lon="4.7681">
        <ele>254.8</ele>
      </trkpt>
      <trkpt lat="46.40935" lon="4.76809">
        <ele>254.8</ele>
      </trkpt>
      <trkpt lat="46.40933" lon="4.76763">
        <ele>257.3</ele>
      </trkpt>
      <trkpt lat="46.40937" lon="4.76702">
        <ele>260.9</ele>
      </trkpt>
      <trkpt lat="46.40959" lon="4.76554">
        <ele>267</ele>
      </trkpt>
      <trkpt lat="46.40957" lon="4.76539">
        <ele>266.3</ele>
      </trkpt>
      <trkpt lat="46.40945" lon="4.76512">
        <ele>264.5</ele>
      </trkpt>
      <trkpt lat="46.40957" lon="4.76429">
        <ele>263.4</ele>
      </trkpt>
      <trkpt lat="46.40975" lon="4.7621">
        <ele>267.1</ele>
      </trkpt>
      <trkpt lat="46.40983" lon="4.76082">
        <ele>269.4</ele>
      </trkpt>
      <trkpt lat="46.40993" lon="4.75984">
        <ele>270</ele>
      </trkpt>
      <trkpt lat="46.40992" lon="4.75976">
        <ele>270</ele>
      </trkpt>
      <trkpt lat="46.40988" lon="4.75972">
        <ele>270</ele>
      </trkpt>
      <trkpt lat="46.40961" lon="4.75957">
        <ele>269.1</ele>
      </trkpt>
      <trkpt lat="46.40953" lon="4.75945">
        <ele>269</ele>
      </trkpt>
      <trkpt lat="46.4095" lon="4.75931">
        <ele>269</ele>
      </trkpt>
      <trkpt lat="46.40942" lon="4.75869">
        <ele>268.9</ele>
      </trkpt>
      <trkpt lat="46.4094" lon="4.75835">
        <ele>269.8</ele>
      </trkpt>
      <trkpt lat="46.40946" lon="4.75749">
        <ele>272</ele>
      </trkpt>
      <trkpt lat="46.40956" lon="4.75655">
        <ele>273.2</ele>
      </trkpt>
      <trkpt lat="46.40955" lon="4.75602">
        <ele>274</ele>
      </trkpt>
      <trkpt lat="46.40965" lon="4.75539">
        <ele>275.2</ele>
      </trkpt>
      <trkpt lat="46.40965" lon="4.75521">
        <ele>275.4</ele>
        <extensions>
          <visugpx:TrkExtension xmlns:visugpx="https://www.visugpx.com/editgpx/">
            <visugpx:node>15</visugpx:node>
            </visugpx:TrkExtension>
        </extensions>
      </trkpt>
      <trkpt lat="46.41044" lon="4.75497">
        <ele>275.9</ele>
      </trkpt>
      <trkpt lat="46.41071" lon="4.75497">
        <ele>276</ele>
      </trkpt>
      <trkpt lat="46.41159" lon="4.75524">
        <ele>279.7</ele>
      </trkpt>
      <trkpt lat="46.41169" lon="4.75535">
        <ele>280.3</ele>
      </trkpt>
      <trkpt lat="46.41209" lon="4.75551">
        <ele>284.6</ele>
      </trkpt>
      <trkpt lat="46.41219" lon="4.75554">
        <ele>285.7</ele>
      </trkpt>
      <trkpt lat="46.41225" lon="4.75561">
        <ele>286.6</ele>
      </trkpt>
      <trkpt lat="46.41225" lon="4.75581">
        <ele>287.3</ele>
      </trkpt>
      <trkpt lat="46.41213" lon="4.75603">
        <ele>286.7</ele>
      </trkpt>
      <trkpt lat="46.41199" lon="4.75636">
        <ele>285.6</ele>
      </trkpt>
      <trkpt lat="46.41188" lon="4.75689">
        <ele>286.7</ele>
      </trkpt>
      <trkpt lat="46.41186" lon="4.75719">
        <ele>287.7</ele>
      </trkpt>
      <trkpt lat="46.41171" lon="4.75758">
        <ele>285.6</ele>
      </trkpt>
      <trkpt lat="46.41162" lon="4.75817">
        <ele>285</ele>
      </trkpt>
      <trkpt lat="46.4116" lon="4.75835">
        <ele>284.3</ele>
      </trkpt>
      <trkpt lat="46.41155" lon="4.75843">
        <ele>283.7</ele>
      </trkpt>
      <trkpt lat="46.41152" lon="4.75857">
        <ele>283.4</ele>
      </trkpt>
      <trkpt lat="46.41147" lon="4.75945">
        <ele>281.1</ele>
      </trkpt>
      <trkpt lat="46.41143" lon="4.7596">
        <ele>280</ele>
      </trkpt>
      <trkpt lat="46.41145" lon="4.75966">
        <ele>280.1</ele>
      </trkpt>
      <trkpt lat="46.41149" lon="4.75967">
        <ele>280.6</ele>
      </trkpt>
      <trkpt lat="46.41152" lon="4.75972">
        <ele>280.9</ele>
      </trkpt>
      <trkpt lat="46.41189" lon="4.76072">
        <ele>278.9</ele>
      </trkpt>
      <trkpt lat="46.41223" lon="4.76135">
        <ele>278.4</ele>
      </trkpt>
      <trkpt lat="46.41227" lon="4.76134">
        <ele>278.9</ele>
      </trkpt>
      <trkpt lat="46.4123" lon="4.76129">
        <ele>279.6</ele>
      </trkpt>
      <trkpt lat="46.4126" lon="4.7616">
        <ele>279.4</ele>
      </trkpt>
      <trkpt lat="46.41289" lon="4.7618">
        <ele>279.8</ele>
      </trkpt>
      <trkpt lat="46.41305" lon="4.76197">
        <ele>279.7</ele>
      </trkpt>
      <trkpt lat="46.41327" lon="4.76212">
        <ele>279.2</ele>
      </trkpt>
      <trkpt lat="46.41339" lon="4.7622">
        <ele>278.5</ele>
      </trkpt>
      <trkpt lat="46.41357" lon="4.76225">
        <ele>278.6</ele>
      </trkpt>
      <trkpt lat="46.41384" lon="4.76225">
        <ele>279.4</ele>
      </trkpt>
      <trkpt lat="46.41384" lon="4.76225">
        <ele>279.4</ele>
      </trkpt>
      <trkpt lat="46.4141" lon="4.76216">
        <ele>279.3</ele>
      </trkpt>
      <trkpt lat="46.41448" lon="4.76198">
        <ele>278</ele>
      </trkpt>
      <trkpt lat="46.41594" lon="4.76058">
        <ele>265.5</ele>
      </trkpt>
      <trkpt lat="46.4166" lon="4.76129">
        <ele>255.7</ele>
      </trkpt>
      <trkpt lat="46.41647" lon="4.76162">
        <ele>256.5</ele>
      </trkpt>
      <trkpt lat="46.41672" lon="4.76198">
        <ele>254.8</ele>
      </trkpt>
      <trkpt lat="46.41752" lon="4.76285">
        <ele>251.9</ele>
      </trkpt>
      <trkpt lat="46.41775" lon="4.76324">
        <ele>251.1</ele>
      </trkpt>
      <trkpt lat="46.41797" lon="4.7637">
        <ele>250.5</ele>
      </trkpt>
      <trkpt lat="46.41828" lon="4.76416">
        <ele>250</ele>
      </trkpt>
      <trkpt lat="46.4189" lon="4.76491">
        <ele>245.3</ele>
      </trkpt>
      <trkpt lat="46.41905" lon="4.76511">
        <ele>243</ele>
      </trkpt>
      <trkpt lat="46.4191" lon="4.76524">
        <ele>241.8</ele>
      </trkpt>
      <trkpt lat="46.41919" lon="4.76591">
        <ele>234.6</ele>
      </trkpt>
      <trkpt lat="46.41909" lon="4.76709">
        <ele>230.5</ele>
      </trkpt>
      <trkpt lat="46.4192" lon="4.76709">
        <ele>228.5</ele>
      </trkpt>
      <trkpt lat="46.41938" lon="4.76716">
        <ele>226</ele>
      </trkpt>
      <trkpt lat="46.4195" lon="4.7672">
        <ele>225.2</ele>
      </trkpt>
      <trkpt lat="46.41965" lon="4.76724">
        <ele>225.7</ele>
      </trkpt>
      <trkpt lat="46.41982" lon="4.76731">
        <ele>225.4</ele>
      </trkpt>
      <trkpt lat="46.42013" lon="4.76754">
        <ele>225.3</ele>
      </trkpt>
      <trkpt lat="46.42028" lon="4.76756">
        <ele>225.8</ele>
      </trkpt>
      <trkpt lat="46.42049" lon="4.76752">
        <ele>226.7</ele>
        <extensions>
          <visugpx:TrkExtension xmlns:visugpx="https://www.visugpx.com/editgpx/">
            <visugpx:node>16</visugpx:node>
            </visugpx:TrkExtension>
        </extensions>
      </trkpt>
      <trkpt lat="46.42049" lon="4.76733">
        <ele>226.1</ele>
      </trkpt>
      <trkpt lat="46.42049" lon="4.76733">
        <ele>226.1</ele>
        <extensions>
          <visugpx:TrkExtension xmlns:visugpx="https://www.visugpx.com/editgpx/">
            <visugpx:node>1</visugpx:node>
            </visugpx:TrkExtension>
        </extensions>
      </trkpt>
      <trkpt lat="46.4205" lon="4.76732">
        <ele>226.2</ele>
      </trkpt>
      <trkpt lat="46.42067" lon="4.76665">
        <ele>226</ele>
      </trkpt>
      <trkpt lat="46.4209" lon="4.76625">
        <ele>226.2</ele>
      </trkpt>
      <trkpt lat="46.42105" lon="4.76605">
        <ele>226.8</ele>
      </trkpt>
      <trkpt lat="46.42124" lon="4.76545">
        <ele>227</ele>
      </trkpt>
      <trkpt lat="46.4213" lon="4.76515">
        <ele>227</ele>
      </trkpt>
      <trkpt lat="46.4213" lon="4.76501">
        <ele>227</ele>
      </trkpt>
      <trkpt lat="46.42126" lon="4.76486">
        <ele>226.8</ele>
      </trkpt>
      <trkpt lat="46.42125" lon="4.76484">
        <ele>226.7</ele>
        <extensions>
          <visugpx:TrkExtension xmlns:visugpx="https://www.visugpx.com/editgpx/">
            <visugpx:node>2</visugpx:node>
            </visugpx:TrkExtension>
        </extensions>
      </trkpt>
      <trkpt lat="46.42115" lon="4.76456">
        <ele>226.6</ele>
      </trkpt>
      <trkpt lat="46.42112" lon="4.76452">
        <ele>226.7</ele>
      </trkpt>
      <trkpt lat="46.42085" lon="4.76426">
        <ele>226.7</ele>
      </trkpt>
      <trkpt lat="46.42069" lon="4.76403">
        <ele>231.9</ele>
      </trkpt>
      <trkpt lat="46.42063" lon="4.76369">
        <ele>234</ele>
      </trkpt>
      <trkpt lat="46.42067" lon="4.76325">
        <ele>232.2</ele>
      </trkpt>
      <trkpt lat="46.42085" lon="4.76222">
        <ele>230.9</ele>
      </trkpt>
      <trkpt lat="46.42098" lon="4.76197">
        <ele>230</ele>
        <extensions>
          <visugpx:TrkExtension xmlns:visugpx="https://www.visugpx.com/editgpx/">
            <visugpx:node>3</visugpx:node>
            </visugpx:TrkExtension>
        </extensions>
      </trkpt>
      <trkpt lat="46.42109" lon="4.76176">
        <ele>230</ele>
      </trkpt>
      <trkpt lat="46.42117" lon="4.76157">
        <ele>230</ele>
      </trkpt>
      <trkpt lat="46.42125" lon="4.76096">
        <ele>230.5</ele>
      </trkpt>
      <trkpt lat="46.4214" lon="4.76016">
        <ele>231</ele>
      </trkpt>
      <trkpt lat="46.42141" lon="4.76015">
        <ele>231.1</ele>
        <extensions>
          <visugpx:TrkExtension xmlns:visugpx="https://www.visugpx.com/editgpx/">
            <visugpx:node>4</visugpx:node>
            </visugpx:TrkExtension>
        </extensions>
      </trkpt>
      <trkpt lat="46.42148" lon="4.75997">
        <ele>232</ele>
        <time>2024-08-27T08:23:26Z</time>
        <extensions>
          <visugpx:TrkExtension xmlns:visugpx="https://www.visugpx.com/editgpx/">
            <visugpx:node>2</visugpx:node>
            </visugpx:TrkExtension>
        </extensions>
      </trkpt>
      <trkpt lat="46.42115" lon="4.75992">
        <ele>231</ele>
        <time>2024-08-27T08:23:32Z</time>
      </trkpt>
      <trkpt lat="46.42039" lon="4.75972">
        <ele>231</ele>
        <time>2024-08-27T08:23:46Z</time>
      </trkpt>
      <trkpt lat="46.42022" lon="4.75967">
        <ele>231</ele>
        <time>2024-08-27T08:23:49Z</time>
      </trkpt>
      <trkpt lat="46.42015" lon="4.75966">
        <ele>231</ele>
        <time>2024-08-27T08:23:50Z</time>
      </trkpt>
      <trkpt lat="46.41963" lon="4.75955">
        <ele>232</ele>
        <time>2024-08-27T08:24:00Z</time>
      </trkpt>
      <trkpt lat="46.41954" lon="4.75952">
        <ele>231</ele>
        <time>2024-08-27T08:24:01Z</time>
      </trkpt>
      <trkpt lat="46.41929" lon="4.75942">
        <ele>231</ele>
        <time>2024-08-27T08:24:06Z</time>
      </trkpt>
      <trkpt lat="46.41914" lon="4.75933">
        <ele>231</ele>
        <time>2024-08-27T08:24:09Z</time>
      </trkpt>
      <trkpt lat="46.41884" lon="4.75913">
        <ele>233</ele>
        <time>2024-08-27T08:24:15Z</time>
      </trkpt>
      <trkpt lat="46.41852" lon="4.75877">
        <ele>234</ele>
        <time>2024-08-27T08:24:22Z</time>
      </trkpt>
      <trkpt lat="46.41807" lon="4.75788">
        <ele>236</ele>
        <time>2024-08-27T08:24:36Z</time>
      </trkpt>
      <trkpt lat="46.41795" lon="4.75773">
        <ele>237</ele>
        <time>2024-08-27T08:24:38Z</time>
      </trkpt>
      <trkpt lat="46.41796" lon="4.75762">
        <ele>237</ele>
        <time>2024-08-27T08:24:40Z</time>
      </trkpt>
      <trkpt lat="46.41776" lon="4.75724">
        <ele>238</ele>
        <time>2024-08-27T08:24:46Z</time>
      </trkpt>
      <trkpt lat="46.41703" lon="4.75613">
        <ele>243</ele>
        <time>2024-08-27T08:25:04Z</time>
      </trkpt>
      <trkpt lat="46.41657" lon="4.75542">
        <ele>247</ele>
        <time>2024-08-27T08:25:16Z</time>
      </trkpt>
      <trkpt lat="46.41648" lon="4.75518">
        <ele>247</ele>
        <time>2024-08-27T08:25:20Z</time>
      </trkpt>
      <trkpt lat="46.41614" lon="4.75443">
        <ele>249</ele>
        <time>2024-08-27T08:25:31Z</time>
      </trkpt>
      <trkpt lat="46.41605" lon="4.75419">
        <ele>250</ele>
        <time>2024-08-27T08:25:34Z</time>
      </trkpt>
      <trkpt lat="46.41604" lon="4.75403">
        <ele>250</ele>
        <time>2024-08-27T08:25:36Z</time>
      </trkpt>
      <trkpt lat="46.41581" lon="4.75359">
        <ele>251</ele>
        <time>2024-08-27T08:25:43Z</time>
      </trkpt>
      <trkpt lat="46.41557" lon="4.75306">
        <ele>253</ele>
        <time>2024-08-27T08:25:51Z</time>
      </trkpt>
      <trkpt lat="46.41552" lon="4.75295">
        <ele>253</ele>
        <time>2024-08-27T08:25:52Z</time>
      </trkpt>
      <trkpt lat="46.41529" lon="4.75235">
        <ele>255</ele>
        <time>2024-08-27T08:26:01Z</time>
      </trkpt>
      <trkpt lat="46.41473" lon="4.75162">
        <ele>259</ele>
        <time>2024-08-27T08:26:14Z</time>
      </trkpt>
      <trkpt lat="46.41432" lon="4.75251">
        <ele>260</ele>
        <time>2024-08-27T08:26:27Z</time>
      </trkpt>
      <trkpt lat="46.41384" lon="4.75225">
        <ele>262</ele>
        <time>2024-08-27T08:26:36Z</time>
      </trkpt>
      <trkpt lat="46.41251" lon="4.75157">
        <ele>262</ele>
        <time>2024-08-27T08:27:01Z</time>
      </trkpt>
      <trkpt lat="46.41143" lon="4.75121">
        <ele>257</ele>
        <time>2024-08-27T08:27:21Z</time>
      </trkpt>
      <trkpt lat="46.4111" lon="4.75103">
        <ele>257</ele>
        <time>2024-08-27T08:27:27Z</time>
      </trkpt>
      <trkpt lat="46.41038" lon="4.75056">
        <ele>255</ele>
        <time>2024-08-27T08:27:41Z</time>
      </trkpt>
      <trkpt lat="46.41018" lon="4.75041">
        <ele>255</ele>
        <time>2024-08-27T08:27:45Z</time>
      </trkpt>
      <trkpt lat="46.40999" lon="4.75033">
        <ele>254</ele>
        <time>2024-08-27T08:27:49Z</time>
      </trkpt>
      <trkpt lat="46.40952" lon="4.75031">
        <ele>253</ele>
        <time>2024-08-27T08:27:57Z</time>
      </trkpt>
      <trkpt lat="46.40925" lon="4.75026">
        <ele>252</ele>
        <time>2024-08-27T08:28:02Z</time>
      </trkpt>
      <trkpt lat="46.40924" lon="4.74981">
        <ele>252</ele>
        <time>2024-08-27T08:28:08Z</time>
      </trkpt>
      <trkpt lat="46.40926" lon="4.74963">
        <ele>252</ele>
        <time>2024-08-27T08:28:10Z</time>
      </trkpt>
      <trkpt lat="46.40932" lon="4.74935">
        <ele>252</ele>
        <time>2024-08-27T08:28:14Z</time>
      </trkpt>
      <trkpt lat="46.4093" lon="4.74924">
        <ele>252</ele>
        <time>2024-08-27T08:28:15Z</time>
      </trkpt>
      <trkpt lat="46.4093" lon="4.74918">
        <ele>252</ele>
        <time>2024-08-27T08:28:16Z</time>
      </trkpt>
      <trkpt lat="46.40906" lon="4.74882">
        <ele>253</ele>
        <time>2024-08-27T08:28:22Z</time>
      </trkpt>
      <trkpt lat="46.409" lon="4.74866">
        <ele>253</ele>
        <time>2024-08-27T08:28:24Z</time>
      </trkpt>
      <trkpt lat="46.40893" lon="4.74808">
        <ele>255</ele>
        <time>2024-08-27T08:28:31Z</time>
      </trkpt>
      <trkpt lat="46.40872" lon="4.74738">
        <ele>257</ele>
        <time>2024-08-27T08:28:41Z</time>
      </trkpt>
      <trkpt lat="46.40871" lon="4.74724">
        <ele>258</ele>
        <time>2024-08-27T08:28:42Z</time>
      </trkpt>
      <trkpt lat="46.40884" lon="4.74675">
        <ele>258</ele>
        <time>2024-08-27T08:28:49Z</time>
      </trkpt>
      <trkpt lat="46.40885" lon="4.74672">
        <ele>258</ele>
        <time>2024-08-27T08:28:49Z</time>
      </trkpt>
      <trkpt lat="46.40874" lon="4.74664">
        <ele>259</ele>
        <time>2024-08-27T08:28:51Z</time>
      </trkpt>
      <trkpt lat="46.40859" lon="4.74649">
        <ele>260</ele>
        <time>2024-08-27T08:28:55Z</time>
      </trkpt>
      <trkpt lat="46.40829" lon="4.74607">
        <ele>262</ele>
        <time>2024-08-27T08:29:02Z</time>
      </trkpt>
      <trkpt lat="46.40812" lon="4.74589">
        <ele>263</ele>
        <time>2024-08-27T08:29:06Z</time>
      </trkpt>
      <trkpt lat="46.40836" lon="4.74508">
        <ele>263</ele>
        <time>2024-08-27T08:29:17Z</time>
      </trkpt>
      <trkpt lat="46.40851" lon="4.74457">
        <ele>265</ele>
        <time>2024-08-27T08:29:23Z</time>
      </trkpt>
      <trkpt lat="46.4084" lon="4.7445">
        <ele>265</ele>
        <time>2024-08-27T08:29:26Z</time>
      </trkpt>
      <trkpt lat="46.40793" lon="4.74417">
        <ele>266</ele>
        <time>2024-08-27T08:29:35Z</time>
      </trkpt>
      <trkpt lat="46.40816" lon="4.74336">
        <ele>271</ele>
        <time>2024-08-27T08:29:46Z</time>
      </trkpt>
      <trkpt lat="46.40775" lon="4.74312">
        <ele>271</ele>
        <time>2024-08-27T08:29:53Z</time>
      </trkpt>
      <trkpt lat="46.40702" lon="4.7426">
        <ele>272</ele>
        <time>2024-08-27T08:30:08Z</time>
      </trkpt>
      <trkpt lat="46.40669" lon="4.7424">
        <ele>272</ele>
        <time>2024-08-27T08:30:14Z</time>
      </trkpt>
      <trkpt lat="46.40636" lon="4.74248">
        <ele>270</ele>
        <time>2024-08-27T08:30:20Z</time>
      </trkpt>
      <trkpt lat="46.40636" lon="4.74247">
        <ele>270</ele>
        <time>2024-08-27T08:30:20Z</time>
      </trkpt>
      <trkpt lat="46.4063" lon="4.74179">
        <ele>274</ele>
        <time>2024-08-27T08:30:29Z</time>
      </trkpt>
      <trkpt lat="46.40625" lon="4.74165">
        <ele>274</ele>
        <time>2024-08-27T08:30:31Z</time>
      </trkpt>
      <trkpt lat="46.4059" lon="4.74141">
        <ele>274</ele>
        <time>2024-08-27T08:30:38Z</time>
      </trkpt>
      <trkpt lat="46.40565" lon="4.74121">
        <ele>274</ele>
        <time>2024-08-27T08:30:43Z</time>
      </trkpt>
      <trkpt lat="46.40521" lon="4.74103">
        <ele>275</ele>
        <time>2024-08-27T08:30:51Z</time>
      </trkpt>
      <trkpt lat="46.40496" lon="4.74085">
        <ele>277</ele>
        <time>2024-08-27T08:30:56Z</time>
      </trkpt>
      <trkpt lat="46.40472" lon="4.74066">
        <ele>278</ele>
        <time>2024-08-27T08:31:01Z</time>
      </trkpt>
      <trkpt lat="46.40461" lon="4.74052">
        <ele>279</ele>
        <time>2024-08-27T08:31:03Z</time>
      </trkpt>
      <trkpt lat="46.40397" lon="4.74034">
        <ele>279</ele>
        <time>2024-08-27T08:31:15Z</time>
      </trkpt>
      <trkpt lat="46.40394" lon="4.74047">
        <ele>278</ele>
        <time>2024-08-27T08:31:17Z</time>
      </trkpt>
      <trkpt lat="46.40381" lon="4.74122">
        <ele>274</ele>
        <time>2024-08-27T08:31:26Z</time>
      </trkpt>
      <trkpt lat="46.40367" lon="4.74202">
        <ele>274</ele>
        <time>2024-08-27T08:31:36Z</time>
      </trkpt>
      <trkpt lat="46.40365" lon="4.74216">
        <ele>275</ele>
        <time>2024-08-27T08:31:38Z</time>
      </trkpt>
      <trkpt lat="46.40364" lon="4.74252">
        <ele>276</ele>
        <time>2024-08-27T08:31:42Z</time>
      </trkpt>
      <trkpt lat="46.40356" lon="4.74268">
        <ele>277</ele>
        <time>2024-08-27T08:31:45Z</time>
      </trkpt>
      <trkpt lat="46.40351" lon="4.74308">
        <ele>279</ele>
        <time>2024-08-27T08:31:50Z</time>
      </trkpt>
      <trkpt lat="46.40349" lon="4.74329">
        <ele>279</ele>
        <time>2024-08-27T08:31:52Z</time>
      </trkpt>
      <trkpt lat="46.4035" lon="4.74333">
        <ele>279</ele>
        <time>2024-08-27T08:31:53Z</time>
      </trkpt>
      <trkpt lat="46.4035" lon="4.74372">
        <ele>278</ele>
        <time>2024-08-27T08:31:58Z</time>
      </trkpt>
      <trkpt lat="46.40354" lon="4.74409">
        <ele>276</ele>
        <time>2024-08-27T08:32:02Z</time>
      </trkpt>
      <trkpt lat="46.40368" lon="4.74415">
        <ele>274</ele>
        <time>2024-08-27T08:32:05Z</time>
      </trkpt>
      <trkpt lat="46.40372" lon="4.7443">
        <ele>272</ele>
        <time>2024-08-27T08:32:07Z</time>
      </trkpt>
      <trkpt lat="46.40346" lon="4.746">
        <ele>261</ele>
        <time>2024-08-27T08:32:28Z</time>
      </trkpt>
      <trkpt lat="46.40344" lon="4.74613">
        <ele>261</ele>
        <time>2024-08-27T08:32:30Z</time>
      </trkpt>
      <trkpt lat="46.40339" lon="4.74639">
        <ele>260</ele>
        <time>2024-08-27T08:32:33Z</time>
      </trkpt>
      <trkpt lat="46.40339" lon="4.74648">
        <ele>259</ele>
        <time>2024-08-27T08:32:34Z</time>
      </trkpt>
      <trkpt lat="46.40347" lon="4.74672">
        <ele>258</ele>
        <time>2024-08-27T08:32:37Z</time>
      </trkpt>
      <trkpt lat="46.40368" lon="4.74709">
        <ele>256</ele>
        <time>2024-08-27T08:32:43Z</time>
      </trkpt>
      <trkpt lat="46.40371" lon="4.74716">
        <ele>256</ele>
        <time>2024-08-27T08:32:44Z</time>
      </trkpt>
      <trkpt lat="46.40373" lon="4.7473">
        <ele>255</ele>
        <time>2024-08-27T08:32:46Z</time>
      </trkpt>
      <trkpt lat="46.40375" lon="4.74747">
        <ele>255</ele>
        <time>2024-08-27T08:32:48Z</time>
      </trkpt>
      <trkpt lat="46.4037" lon="4.74807">
        <ele>252</ele>
        <time>2024-08-27T08:32:56Z</time>
      </trkpt>
      <trkpt lat="46.40368" lon="4.74879">
        <ele>250</ele>
        <time>2024-08-27T08:33:04Z</time>
      </trkpt>
      <trkpt lat="46.40371" lon="4.74893">
        <ele>249</ele>
        <time>2024-08-27T08:33:06Z</time>
      </trkpt>
      <trkpt lat="46.4038" lon="4.74939">
        <ele>248</ele>
        <time>2024-08-27T08:33:12Z</time>
      </trkpt>
      <trkpt lat="46.40394" lon="4.74978">
        <ele>246</ele>
        <time>2024-08-27T08:33:18Z</time>
      </trkpt>
      <trkpt lat="46.40387" lon="4.75008">
        <ele>245</ele>
        <time>2024-08-27T08:33:21Z</time>
      </trkpt>
      <trkpt lat="46.40356" lon="4.75104">
        <ele>242</ele>
        <time>2024-08-27T08:33:34Z</time>
      </trkpt>
      <trkpt lat="46.40332" lon="4.75147">
        <ele>241</ele>
        <time>2024-08-27T08:33:41Z</time>
      </trkpt>
      <trkpt lat="46.40326" lon="4.75159">
        <ele>242</ele>
        <time>2024-08-27T08:33:43Z</time>
      </trkpt>
      <trkpt lat="46.40324" lon="4.75168">
        <ele>242</ele>
        <time>2024-08-27T08:33:44Z</time>
      </trkpt>
      <trkpt lat="46.40336" lon="4.75194">
        <ele>241</ele>
        <time>2024-08-27T08:33:48Z</time>
      </trkpt>
      <trkpt lat="46.40344" lon="4.75229">
        <ele>241</ele>
        <time>2024-08-27T08:33:53Z</time>
      </trkpt>
      <trkpt lat="46.40351" lon="4.75276">
        <ele>242</ele>
        <time>2024-08-27T08:33:58Z</time>
      </trkpt>
      <trkpt lat="46.4036" lon="4.75314">
        <ele>242</ele>
        <time>2024-08-27T08:34:03Z</time>
      </trkpt>
      <trkpt lat="46.40363" lon="4.75346">
        <ele>242</ele>
        <time>2024-08-27T08:34:07Z</time>
      </trkpt>
      <trkpt lat="46.40365" lon="4.75419">
        <ele>244</ele>
        <time>2024-08-27T08:34:16Z</time>
      </trkpt>
      <trkpt lat="46.40375" lon="4.75492">
        <ele>245</ele>
        <time>2024-08-27T08:34:25Z</time>
      </trkpt>
      <trkpt lat="46.40387" lon="4.75535">
        <ele>246</ele>
        <time>2024-08-27T08:34:31Z</time>
      </trkpt>
      <trkpt lat="46.40394" lon="4.75573">
        <ele>246</ele>
        <time>2024-08-27T08:34:36Z</time>
      </trkpt>
      <trkpt lat="46.40402" lon="4.75605">
        <ele>247</ele>
        <time>2024-08-27T08:34:40Z</time>
      </trkpt>
      <trkpt lat="46.40411" lon="4.75652">
        <ele>249</ele>
        <time>2024-08-27T08:34:46Z</time>
      </trkpt>
      <trkpt lat="46.40425" lon="4.75705">
        <ele>251</ele>
        <time>2024-08-27T08:34:53Z</time>
      </trkpt>
      <trkpt lat="46.40431" lon="4.75729">
        <ele>251</ele>
        <time>2024-08-27T08:34:56Z</time>
      </trkpt>
      <trkpt lat="46.40453" lon="4.75784">
        <ele>250</ele>
        <time>2024-08-27T08:35:04Z</time>
      </trkpt>
      <trkpt lat="46.40469" lon="4.75838">
        <ele>248</ele>
        <time>2024-08-27T08:35:11Z</time>
      </trkpt>
      <trkpt lat="46.40478" lon="4.7589">
        <ele>247</ele>
        <time>2024-08-27T08:35:18Z</time>
      </trkpt>
      <trkpt lat="46.40472" lon="4.75913">
        <ele>250</ele>
        <time>2024-08-27T08:35:21Z</time>
      </trkpt>
      <trkpt lat="46.40464" lon="4.75956">
        <ele>255</ele>
        <time>2024-08-27T08:35:26Z</time>
      </trkpt>
      <trkpt lat="46.40459" lon="4.7598">
        <ele>259</ele>
        <time>2024-08-27T08:35:29Z</time>
      </trkpt>
      <trkpt lat="46.40463" lon="4.76022">
        <ele>262</ele>
        <time>2024-08-27T08:35:35Z</time>
      </trkpt>
      <trkpt lat="46.40548" lon="4.76348">
        <ele>268</ele>
        <time>2024-08-27T08:36:17Z</time>
      </trkpt>
      <trkpt lat="46.4056" lon="4.76397">
        <ele>268</ele>
        <time>2024-08-27T08:36:24Z</time>
      </trkpt>
      <trkpt lat="46.40566" lon="4.76468">
        <ele>270</ele>
        <time>2024-08-27T08:36:33Z</time>
      </trkpt>
      <trkpt lat="46.40567" lon="4.7648">
        <ele>270</ele>
        <time>2024-08-27T08:36:34Z</time>
      </trkpt>
      <trkpt lat="46.40611" lon="4.76641">
        <ele>266</ele>
        <time>2024-08-27T08:36:55Z</time>
      </trkpt>
      <trkpt lat="46.40608" lon="4.76661">
        <ele>267</ele>
        <time>2024-08-27T08:36:58Z</time>
      </trkpt>
      <trkpt lat="46.40641" lon="4.76785">
        <ele>260</ele>
        <time>2024-08-27T08:37:14Z</time>
      </trkpt>
      <trkpt lat="46.40673" lon="4.76972">
        <ele>254</ele>
        <time>2024-08-27T08:37:38Z</time>
      </trkpt>
      <trkpt lat="46.40673" lon="4.7706">
        <ele>253</ele>
        <time>2024-08-27T08:37:48Z</time>
      </trkpt>
      <trkpt lat="46.40668" lon="4.77155">
        <ele>255</ele>
        <time>2024-08-27T08:38:00Z</time>
      </trkpt>
      <trkpt lat="46.40661" lon="4.77236">
        <ele>252</ele>
        <time>2024-08-27T08:38:10Z</time>
      </trkpt>
      <trkpt lat="46.40745" lon="4.77239">
        <ele>238</ele>
        <time>2024-08-27T08:38:25Z</time>
      </trkpt>
      <trkpt lat="46.40766" lon="4.77277">
        <ele>234</ele>
        <time>2024-08-27T08:38:31Z</time>
      </trkpt>
      <trkpt lat="46.40773" lon="4.77323">
        <ele>233</ele>
        <time>2024-08-27T08:38:37Z</time>
      </trkpt>
      <trkpt lat="46.40793" lon="4.77408">
        <ele>230</ele>
        <time>2024-08-27T08:38:48Z</time>
      </trkpt>
      <trkpt lat="46.40797" lon="4.77458">
        <ele>229</ele>
        <time>2024-08-27T08:38:54Z</time>
      </trkpt>
      <trkpt lat="46.40794" lon="4.77583">
        <ele>231</ele>
        <time>2024-08-27T08:39:09Z</time>
      </trkpt>
      <trkpt lat="46.408" lon="4.77615">
        <ele>230</ele>
        <time>2024-08-27T08:39:14Z</time>
      </trkpt>
      <trkpt lat="46.40815" lon="4.77695">
        <ele>228</ele>
        <time>2024-08-27T08:39:24Z</time>
      </trkpt>
      <trkpt lat="46.40816" lon="4.77817">
        <ele>228</ele>
        <time>2024-08-27T08:39:39Z</time>
      </trkpt>
      <trkpt lat="46.40804" lon="4.77847">
        <ele>231</ele>
        <time>2024-08-27T08:39:43Z</time>
      </trkpt>
      <trkpt lat="46.40798" lon="4.77921">
        <ele>231</ele>
        <time>2024-08-27T08:39:52Z</time>
      </trkpt>
      <trkpt lat="46.40798" lon="4.7801">
        <ele>228</ele>
        <time>2024-08-27T08:40:03Z</time>
      </trkpt>
      <trkpt lat="46.40791" lon="4.78256">
        <ele>223</ele>
        <time>2024-08-27T08:40:33Z</time>
      </trkpt>
      <trkpt lat="46.40791" lon="4.7834">
        <ele>221</ele>
        <time>2024-08-27T08:40:43Z</time>
      </trkpt>
      <trkpt lat="46.40794" lon="4.7837">
        <ele>219</ele>
        <time>2024-08-27T08:40:47Z</time>
      </trkpt>
      <trkpt lat="46.40788" lon="4.78387">
        <ele>219</ele>
        <time>2024-08-27T08:40:50Z</time>
      </trkpt>
      <trkpt lat="46.40778" lon="4.78479">
        <ele>217</ele>
        <time>2024-08-27T08:41:01Z</time>
      </trkpt>
      <trkpt lat="46.40735" lon="4.78601">
        <ele>218</ele>
        <time>2024-08-27T08:41:18Z</time>
      </trkpt>
      <trkpt lat="46.40715" lon="4.78672">
        <ele>218</ele>
        <time>2024-08-27T08:41:27Z</time>
      </trkpt>
      <trkpt lat="46.40678" lon="4.78749">
        <ele>219</ele>
        <time>2024-08-27T08:41:39Z</time>
      </trkpt>
      <trkpt lat="46.40627" lon="4.78795">
        <ele>220</ele>
        <time>2024-08-27T08:41:49Z</time>
      </trkpt>
      <trkpt lat="46.40605" lon="4.78823">
        <ele>220</ele>
        <time>2024-08-27T08:41:55Z</time>
      </trkpt>
      <trkpt lat="46.4057" lon="4.78882">
        <ele>220</ele>
        <time>2024-08-27T08:42:04Z</time>
      </trkpt>
      <trkpt lat="46.40556" lon="4.78897">
        <ele>221</ele>
        <time>2024-08-27T08:42:07Z</time>
      </trkpt>
      <trkpt lat="46.4054" lon="4.78908">
        <ele>221</ele>
        <time>2024-08-27T08:42:10Z</time>
      </trkpt>
      <trkpt lat="46.40515" lon="4.78952">
        <ele>221</ele>
        <time>2024-08-27T08:42:17Z</time>
      </trkpt>
      <trkpt lat="46.40436" lon="4.79049">
        <ele>221</ele>
        <time>2024-08-27T08:42:36Z</time>
      </trkpt>
      <trkpt lat="46.4039" lon="4.7907">
        <ele>221</ele>
        <time>2024-08-27T08:42:44Z</time>
      </trkpt>
      <trkpt lat="46.40381" lon="4.79088">
        <ele>221</ele>
        <time>2024-08-27T08:42:47Z</time>
      </trkpt>
      <trkpt lat="46.40366" lon="4.79108">
        <ele>220</ele>
        <time>2024-08-27T08:42:51Z</time>
      </trkpt>
      <trkpt lat="46.40343" lon="4.79121">
        <ele>220</ele>
        <time>2024-08-27T08:42:55Z</time>
      </trkpt>
      <trkpt lat="46.40312" lon="4.79125">
        <ele>220</ele>
        <time>2024-08-27T08:43:01Z</time>
      </trkpt>
      <trkpt lat="46.40288" lon="4.79119">
        <ele>219</ele>
        <time>2024-08-27T08:43:05Z</time>
      </trkpt>
      <trkpt lat="46.4027" lon="4.79097">
        <ele>220</ele>
        <time>2024-08-27T08:43:09Z</time>
      </trkpt>
      <trkpt lat="46.40263" lon="4.79104">
        <ele>219</ele>
        <time>2024-08-27T08:43:11Z</time>
      </trkpt>
      <trkpt lat="46.40237" lon="4.79207">
        <ele>211</ele>
        <time>2024-08-27T08:43:24Z</time>
      </trkpt>
      <trkpt lat="46.40186" lon="4.79272">
        <ele>212</ele>
        <time>2024-08-27T08:43:36Z</time>
      </trkpt>
      <trkpt lat="46.40161" lon="4.79313">
        <ele>213</ele>
        <time>2024-08-27T08:43:43Z</time>
      </trkpt>
      <trkpt lat="46.40145" lon="4.79405">
        <ele>212</ele>
        <time>2024-08-27T08:43:55Z</time>
      </trkpt>
      <trkpt lat="46.40091" lon="4.79697">
        <ele>209</ele>
        <time>2024-08-27T08:44:32Z</time>
      </trkpt>
      <trkpt lat="46.40085" lon="4.79745">
        <ele>209</ele>
        <time>2024-08-27T08:44:38Z</time>
      </trkpt>
      <trkpt lat="46.40085" lon="4.7977">
        <ele>208</ele>
        <time>2024-08-27T08:44:41Z</time>
      </trkpt>
      <trkpt lat="46.40088" lon="4.79813">
        <ele>207</ele>
        <time>2024-08-27T08:44:46Z</time>
      </trkpt>
      <trkpt lat="46.401" lon="4.79896">
        <ele>205</ele>
        <time>2024-08-27T08:44:56Z</time>
      </trkpt>
      <trkpt lat="46.40106" lon="4.79923">
        <ele>205</ele>
        <time>2024-08-27T08:45:00Z</time>
      </trkpt>
      <trkpt lat="46.40107" lon="4.79949">
        <ele>204</ele>
        <time>2024-08-27T08:45:03Z</time>
      </trkpt>
      <trkpt lat="46.40105" lon="4.79975">
        <ele>204</ele>
        <time>2024-08-27T08:45:06Z</time>
      </trkpt>
      <trkpt lat="46.40113" lon="4.79968">
        <ele>204</ele>
        <time>2024-08-27T08:45:08Z</time>
      </trkpt>
      <trkpt lat="46.40105" lon="4.79975">
        <ele>204</ele>
        <time>2024-08-27T08:45:10Z</time>
      </trkpt>
      <trkpt lat="46.40085" lon="4.80003">
        <ele>205</ele>
        <time>2024-08-27T08:45:15Z</time>
      </trkpt>
      <trkpt lat="46.40049" lon="4.80063">
        <ele>206</ele>
        <time>2024-08-27T08:45:24Z</time>
      </trkpt>
      <trkpt lat="46.40007" lon="4.80135">
        <ele>206</ele>
        <time>2024-08-27T08:45:36Z</time>
      </trkpt>
      <trkpt lat="46.39999" lon="4.80131">
        <ele>206</ele>
        <time>2024-08-27T08:45:37Z</time>
      </trkpt>
      <trkpt lat="46.39972" lon="4.8015">
        <ele>208</ele>
        <time>2024-08-27T08:45:43Z</time>
      </trkpt>
      <trkpt lat="46.39909" lon="4.80174">
        <ele>210</ele>
        <time>2024-08-27T08:45:54Z</time>
      </trkpt>
      <trkpt lat="46.39821" lon="4.80202">
        <ele>210</ele>
        <time>2024-08-27T08:46:10Z</time>
      </trkpt>
      <trkpt lat="46.39815" lon="4.80206">
        <ele>210</ele>
        <time>2024-08-27T08:46:12Z</time>
      </trkpt>
      <trkpt lat="46.39767" lon="4.80209">
        <ele>208</ele>
        <time>2024-08-27T08:46:20Z</time>
      </trkpt>
      <trkpt lat="46.39736" lon="4.80211">
        <ele>206</ele>
        <time>2024-08-27T08:46:26Z</time>
      </trkpt>
      <trkpt lat="46.39672" lon="4.80267">
        <ele>204</ele>
        <time>2024-08-27T08:46:39Z</time>
      </trkpt>
      <trkpt lat="46.39656" lon="4.80282">
        <ele>205</ele>
        <time>2024-08-27T08:46:42Z</time>
      </trkpt>
      <trkpt lat="46.39647" lon="4.80293">
        <ele>205</ele>
        <time>2024-08-27T08:46:44Z</time>
      </trkpt>
      <trkpt lat="46.39638" lon="4.80304">
        <ele>206</ele>
        <time>2024-08-27T08:46:47Z</time>
      </trkpt>
      <trkpt lat="46.39612" lon="4.80327">
        <ele>208</ele>
        <time>2024-08-27T08:46:52Z</time>
      </trkpt>
      <trkpt lat="46.39593" lon="4.80366">
        <ele>209</ele>
        <time>2024-08-27T08:46:58Z</time>
      </trkpt>
      <trkpt lat="46.39572" lon="4.80405">
        <ele>211</ele>
        <time>2024-08-27T08:47:04Z</time>
      </trkpt>
      <trkpt lat="46.39551" lon="4.80433">
        <ele>215</ele>
        <time>2024-08-27T08:47:09Z</time>
      </trkpt>
      <trkpt lat="46.39534" lon="4.80458">
        <ele>218</ele>
        <time>2024-08-27T08:47:13Z</time>
      </trkpt>
      <trkpt lat="46.3951" lon="4.80485">
        <ele>223</ele>
        <time>2024-08-27T08:47:19Z</time>
      </trkpt>
      <trkpt lat="46.39471" lon="4.80517">
        <ele>227</ele>
        <time>2024-08-27T08:47:27Z</time>
      </trkpt>
      <trkpt lat="46.39448" lon="4.80528">
        <ele>228</ele>
        <time>2024-08-27T08:47:31Z</time>
      </trkpt>
      <trkpt lat="46.39446" lon="4.80513">
        <ele>228</ele>
        <time>2024-08-27T08:47:33Z</time>
      </trkpt>
      <trkpt lat="46.39432" lon="4.80462">
        <ele>230</ele>
        <time>2024-08-27T08:47:40Z</time>
      </trkpt>
      <trkpt lat="46.39419" lon="4.80357">
        <ele>236</ele>
        <time>2024-08-27T08:47:53Z</time>
      </trkpt>
      <trkpt lat="46.39403" lon="4.8029">
        <ele>242</ele>
        <time>2024-08-27T08:48:01Z</time>
      </trkpt>
      <trkpt lat="46.39388" lon="4.80252">
        <ele>245</ele>
        <time>2024-08-27T08:48:07Z</time>
      </trkpt>
      <trkpt lat="46.39325" lon="4.80158">
        <ele>258</ele>
        <time>2024-08-27T08:48:23Z</time>
      </trkpt>
      <trkpt lat="46.39262" lon="4.80095">
        <ele>266</ele>
        <time>2024-08-27T08:48:36Z</time>
      </trkpt>
      <trkpt lat="46.39248" lon="4.8008">
        <ele>267</ele>
        <time>2024-08-27T08:48:40Z</time>
      </trkpt>
      <trkpt lat="46.39232" lon="4.80053">
        <ele>268</ele>
        <time>2024-08-27T08:48:44Z</time>
      </trkpt>
      <trkpt lat="46.39214" lon="4.80013">
        <ele>270</ele>
        <time>2024-08-27T08:48:50Z</time>
      </trkpt>
      <trkpt lat="46.39194" lon="4.79985">
        <ele>270</ele>
        <time>2024-08-27T08:48:55Z</time>
      </trkpt>
      <trkpt lat="46.39186" lon="4.79979">
        <ele>270</ele>
        <time>2024-08-27T08:48:56Z</time>
      </trkpt>
      <trkpt lat="46.39139" lon="4.79957">
        <ele>271</ele>
        <time>2024-08-27T08:49:05Z</time>
      </trkpt>
      <trkpt lat="46.39115" lon="4.79956">
        <ele>272</ele>
        <time>2024-08-27T08:49:09Z</time>
      </trkpt>
      <trkpt lat="46.39098" lon="4.79951">
        <ele>272</ele>
        <time>2024-08-27T08:49:12Z</time>
      </trkpt>
      <trkpt lat="46.39082" lon="4.79942">
        <ele>273</ele>
        <time>2024-08-27T08:49:16Z</time>
      </trkpt>
      <trkpt lat="46.39071" lon="4.79925">
        <ele>273</ele>
        <time>2024-08-27T08:49:18Z</time>
      </trkpt>
      <trkpt lat="46.39061" lon="4.79916">
        <ele>274</ele>
        <time>2024-08-27T08:49:20Z</time>
      </trkpt>
      <trkpt lat="46.39047" lon="4.79908">
        <ele>273</ele>
        <time>2024-08-27T08:49:23Z</time>
      </trkpt>
      <trkpt lat="46.38981" lon="4.79888">
        <ele>275</ele>
        <time>2024-08-27T08:49:35Z</time>
      </trkpt>
      <trkpt lat="46.38922" lon="4.79866">
        <ele>277</ele>
        <time>2024-08-27T08:49:46Z</time>
      </trkpt>
      <trkpt lat="46.38867" lon="4.79855">
        <ele>279</ele>
        <time>2024-08-27T08:49:56Z</time>
      </trkpt>
      <trkpt lat="46.38763" lon="4.79827">
        <ele>286</ele>
        <time>2024-08-27T08:50:15Z</time>
      </trkpt>
      <trkpt lat="46.38675" lon="4.79849">
        <ele>292</ele>
        <time>2024-08-27T08:50:31Z</time>
      </trkpt>
      <trkpt lat="46.38628" lon="4.79861">
        <ele>292</ele>
        <time>2024-08-27T08:50:39Z</time>
      </trkpt>
      <trkpt lat="46.3861" lon="4.79866">
        <ele>292</ele>
        <time>2024-08-27T08:50:42Z</time>
      </trkpt>
      <trkpt lat="46.38609" lon="4.79858">
        <ele>293</ele>
        <time>2024-08-27T08:50:43Z</time>
      </trkpt>
      <trkpt lat="46.38493" lon="4.79824">
        <ele>291</ele>
        <time>2024-08-27T08:51:04Z</time>
      </trkpt>
      <trkpt lat="46.38434" lon="4.79833">
        <ele>286</ele>
        <time>2024-08-27T08:51:15Z</time>
      </trkpt>
      <trkpt lat="46.38373" lon="4.79832">
        <ele>280</ele>
        <time>2024-08-27T08:51:26Z</time>
      </trkpt>
      <trkpt lat="46.38308" lon="4.7984">
        <ele>272</ele>
        <time>2024-08-27T08:51:37Z</time>
      </trkpt>
      <trkpt lat="46.38233" lon="4.79826">
        <ele>266</ele>
        <time>2024-08-27T08:51:51Z</time>
      </trkpt>
      <trkpt lat="46.38171" lon="4.79846">
        <ele>259</ele>
        <time>2024-08-27T08:52:02Z</time>
      </trkpt>
      <trkpt lat="46.38163" lon="4.79858">
        <ele>257</ele>
        <time>2024-08-27T08:52:04Z</time>
      </trkpt>
      <trkpt lat="46.3814" lon="4.79988">
        <ele>249</ele>
        <time>2024-08-27T08:52:21Z</time>
      </trkpt>
      <trkpt lat="46.38132" lon="4.79991">
        <ele>248</ele>
        <time>2024-08-27T08:52:22Z</time>
      </trkpt>
      <trkpt lat="46.38102" lon="4.79972">
        <ele>245</ele>
        <time>2024-08-27T08:52:28Z</time>
      </trkpt>
      <trkpt lat="46.38102" lon="4.79946">
        <ele>245</ele>
        <time>2024-08-27T08:52:31Z</time>
      </trkpt>
      <trkpt lat="46.38102" lon="4.79916">
        <ele>245</ele>
        <time>2024-08-27T08:52:35Z</time>
      </trkpt>
      <trkpt lat="46.38093" lon="4.79802">
        <ele>245</ele>
        <time>2024-08-27T08:52:49Z</time>
      </trkpt>
      <trkpt lat="46.38093" lon="4.79777">
        <ele>244</ele>
        <time>2024-08-27T08:52:52Z</time>
      </trkpt>
      <trkpt lat="46.38084" lon="4.79688">
        <ele>242</ele>
        <time>2024-08-27T08:53:03Z</time>
      </trkpt>
      <trkpt lat="46.38084" lon="4.79666">
        <ele>242</ele>
        <time>2024-08-27T08:53:06Z</time>
      </trkpt>
      <trkpt lat="46.38093" lon="4.79624">
        <ele>240</ele>
        <time>2024-08-27T08:53:11Z</time>
      </trkpt>
      <trkpt lat="46.38081" lon="4.79607">
        <ele>237</ele>
        <time>2024-08-27T08:53:14Z</time>
      </trkpt>
      <trkpt lat="46.38079" lon="4.7959">
        <ele>235</ele>
        <time>2024-08-27T08:53:16Z</time>
      </trkpt>
      <trkpt lat="46.38082" lon="4.79572">
        <ele>234</ele>
        <time>2024-08-27T08:53:19Z</time>
      </trkpt>
      <trkpt lat="46.38129" lon="4.79504">
        <ele>233</ele>
        <time>2024-08-27T08:53:30Z</time>
      </trkpt>
      <trkpt lat="46.38143" lon="4.79474">
        <ele>232</ele>
        <time>2024-08-27T08:53:35Z</time>
      </trkpt>
      <trkpt lat="46.38148" lon="4.79453">
        <ele>231</ele>
        <time>2024-08-27T08:53:37Z</time>
      </trkpt>
      <trkpt lat="46.38156" lon="4.79404">
        <ele>230</ele>
        <time>2024-08-27T08:53:44Z</time>
      </trkpt>
      <trkpt lat="46.38162" lon="4.79346">
        <ele>231</ele>
        <time>2024-08-27T08:53:51Z</time>
      </trkpt>
      <trkpt lat="46.38167" lon="4.79294">
        <ele>234</ele>
        <time>2024-08-27T08:53:57Z</time>
      </trkpt>
      <trkpt lat="46.38171" lon="4.79254">
        <ele>237</ele>
        <time>2024-08-27T08:54:02Z</time>
      </trkpt>
      <trkpt lat="46.38178" lon="4.79195">
        <ele>243</ele>
        <time>2024-08-27T08:54:10Z</time>
      </trkpt>
      <trkpt lat="46.38172" lon="4.79147">
        <ele>247</ele>
        <time>2024-08-27T08:54:16Z</time>
      </trkpt>
      <trkpt lat="46.38175" lon="4.79079">
        <ele>251</ele>
        <time>2024-08-27T08:54:24Z</time>
      </trkpt>
      <trkpt lat="46.38166" lon="4.79013">
        <ele>254</ele>
        <time>2024-08-27T08:54:32Z</time>
      </trkpt>
      <trkpt lat="46.38165" lon="4.78988">
        <ele>255</ele>
        <time>2024-08-27T08:54:35Z</time>
      </trkpt>
      <trkpt lat="46.38168" lon="4.7895">
        <ele>256</ele>
        <time>2024-08-27T08:54:40Z</time>
      </trkpt>
      <trkpt lat="46.38157" lon="4.78846">
        <ele>255</ele>
        <time>2024-08-27T08:54:53Z</time>
      </trkpt>
      <trkpt lat="46.38151" lon="4.7881">
        <ele>255</ele>
        <time>2024-08-27T08:54:57Z</time>
      </trkpt>
      <trkpt lat="46.38126" lon="4.7877">
        <ele>255</ele>
        <time>2024-08-27T08:55:04Z</time>
      </trkpt>
      <trkpt lat="46.38118" lon="4.78743">
        <ele>255</ele>
        <time>2024-08-27T08:55:08Z</time>
      </trkpt>
      <trkpt lat="46.38112" lon="4.78701">
        <ele>254</ele>
        <time>2024-08-27T08:55:13Z</time>
      </trkpt>
      <trkpt lat="46.381" lon="4.78617">
        <ele>255</ele>
        <time>2024-08-27T08:55:23Z</time>
      </trkpt>
      <trkpt lat="46.38089" lon="4.78586">
        <ele>257</ele>
        <time>2024-08-27T08:55:28Z</time>
      </trkpt>
      <trkpt lat="46.38087" lon="4.78536">
        <ele>258</ele>
        <time>2024-08-27T08:55:34Z</time>
      </trkpt>
      <trkpt lat="46.38073" lon="4.78496">
        <ele>259</ele>
        <time>2024-08-27T08:55:39Z</time>
      </trkpt>
      <trkpt lat="46.38066" lon="4.78452">
        <ele>259</ele>
        <time>2024-08-27T08:55:45Z</time>
      </trkpt>
      <trkpt lat="46.38062" lon="4.78352">
        <ele>258</ele>
        <time>2024-08-27T08:55:57Z</time>
      </trkpt>
      <trkpt lat="46.38065" lon="4.78319">
        <ele>257</ele>
        <time>2024-08-27T08:56:01Z</time>
      </trkpt>
      <trkpt lat="46.38063" lon="4.7829">
        <ele>255</ele>
        <time>2024-08-27T08:56:05Z</time>
      </trkpt>
      <trkpt lat="46.38052" lon="4.78217">
        <ele>250</ele>
        <time>2024-08-27T08:56:14Z</time>
      </trkpt>
      <trkpt lat="46.3805" lon="4.78186">
        <ele>249</ele>
        <time>2024-08-27T08:56:18Z</time>
      </trkpt>
      <trkpt lat="46.3809" lon="4.78034">
        <ele>246</ele>
        <time>2024-08-27T08:56:38Z</time>
      </trkpt>
      <trkpt lat="46.38099" lon="4.78">
        <ele>245</ele>
        <time>2024-08-27T08:56:42Z</time>
      </trkpt>
      <trkpt lat="46.38102" lon="4.77979">
        <ele>245</ele>
        <time>2024-08-27T08:56:45Z</time>
      </trkpt>
      <trkpt lat="46.38098" lon="4.77944">
        <ele>245</ele>
        <time>2024-08-27T08:56:49Z</time>
      </trkpt>
      <trkpt lat="46.38068" lon="4.77833">
        <ele>246</ele>
        <time>2024-08-27T08:57:04Z</time>
      </trkpt>
      <trkpt lat="46.38057" lon="4.7776">
        <ele>246</ele>
        <time>2024-08-27T08:57:13Z</time>
      </trkpt>
      <trkpt lat="46.38053" lon="4.77748">
        <ele>246</ele>
        <time>2024-08-27T08:57:15Z</time>
      </trkpt>
      <trkpt lat="46.38052" lon="4.7774">
        <ele>247</ele>
        <time>2024-08-27T08:57:16Z</time>
      </trkpt>
      <trkpt lat="46.38059" lon="4.77707">
        <ele>247</ele>
        <time>2024-08-27T08:57:20Z</time>
      </trkpt>
      <trkpt lat="46.3806" lon="4.77697">
        <ele>247</ele>
        <time>2024-08-27T08:57:21Z</time>
      </trkpt>
      <trkpt lat="46.38056" lon="4.77672">
        <ele>249</ele>
        <time>2024-08-27T08:57:24Z</time>
      </trkpt>
      <trkpt lat="46.38049" lon="4.7765">
        <ele>251</ele>
        <time>2024-08-27T08:57:27Z</time>
      </trkpt>
      <trkpt lat="46.3804" lon="4.77635">
        <ele>253</ele>
        <time>2024-08-27T08:57:30Z</time>
      </trkpt>
      <trkpt lat="46.38042" lon="4.77559">
        <ele>256</ele>
        <time>2024-08-27T08:57:39Z</time>
      </trkpt>
      <trkpt lat="46.38011" lon="4.77552">
        <ele>260</ele>
        <time>2024-08-27T08:57:45Z</time>
      </trkpt>
      <trkpt lat="46.38017" lon="4.77535">
        <ele>259</ele>
        <time>2024-08-27T08:57:47Z</time>
      </trkpt>
      <trkpt lat="46.38012" lon="4.77528">
        <ele>260</ele>
        <time>2024-08-27T08:57:48Z</time>
      </trkpt>
      <trkpt lat="46.3799" lon="4.775">
        <ele>263</ele>
        <time>2024-08-27T08:57:54Z</time>
      </trkpt>
      <trkpt lat="46.37974" lon="4.77482">
        <ele>264</ele>
        <time>2024-08-27T08:57:57Z</time>
      </trkpt>
      <trkpt lat="46.37938" lon="4.77442">
        <ele>268</ele>
        <time>2024-08-27T08:58:05Z</time>
      </trkpt>
      <trkpt lat="46.3787" lon="4.77362">
        <ele>274</ele>
        <time>2024-08-27T08:58:21Z</time>
      </trkpt>
      <trkpt lat="46.37707" lon="4.77183">
        <ele>280</ele>
        <time>2024-08-27T08:58:57Z</time>
      </trkpt>
      <trkpt lat="46.37688" lon="4.77155">
        <ele>278</ele>
        <time>2024-08-27T08:59:02Z</time>
      </trkpt>
      <trkpt lat="46.37632" lon="4.77097">
        <ele>279</ele>
        <time>2024-08-27T08:59:14Z</time>
      </trkpt>
      <trkpt lat="46.3762" lon="4.77083">
        <ele>280</ele>
        <time>2024-08-27T08:59:17Z</time>
      </trkpt>
      <trkpt lat="46.3758" lon="4.77007">
        <ele>274</ele>
        <time>2024-08-27T08:59:29Z</time>
      </trkpt>
      <trkpt lat="46.37506" lon="4.76912">
        <ele>271</ele>
        <time>2024-08-27T08:59:46Z</time>
      </trkpt>
      <trkpt lat="46.37503" lon="4.76886">
        <ele>270</ele>
        <time>2024-08-27T08:59:50Z</time>
      </trkpt>
      <trkpt lat="46.37515" lon="4.76838">
        <ele>268</ele>
        <time>2024-08-27T08:59:56Z</time>
      </trkpt>
      <trkpt lat="46.37521" lon="4.76826">
        <ele>268</ele>
        <time>2024-08-27T08:59:58Z</time>
      </trkpt>
      <trkpt lat="46.37547" lon="4.76805">
        <ele>270</ele>
        <time>2024-08-27T09:00:03Z</time>
      </trkpt>
      <trkpt lat="46.37582" lon="4.76777">
        <ele>274</ele>
        <time>2024-08-27T09:00:10Z</time>
      </trkpt>
      <trkpt lat="46.37614" lon="4.76764">
        <ele>277</ele>
        <time>2024-08-27T09:00:16Z</time>
      </trkpt>
      <trkpt lat="46.3762" lon="4.76755">
        <ele>279</ele>
        <time>2024-08-27T09:00:17Z</time>
      </trkpt>
      <trkpt lat="46.37622" lon="4.76737">
        <ele>281</ele>
        <time>2024-08-27T09:00:20Z</time>
      </trkpt>
      <trkpt lat="46.37638" lon="4.76609">
        <ele>293</ele>
        <time>2024-08-27T09:00:36Z</time>
      </trkpt>
      <trkpt lat="46.37709" lon="4.76601">
        <ele>300</ele>
        <time>2024-08-27T09:00:48Z</time>
      </trkpt>
      <trkpt lat="46.37727" lon="4.76612">
        <ele>300</ele>
        <time>2024-08-27T09:00:52Z</time>
      </trkpt>
      <trkpt lat="46.37781" lon="4.76651">
        <ele>298</ele>
        <time>2024-08-27T09:01:03Z</time>
      </trkpt>
      <trkpt lat="46.37827" lon="4.76596">
        <ele>301</ele>
        <time>2024-08-27T09:01:13Z</time>
      </trkpt>
      <trkpt lat="46.3787" lon="4.76559">
        <ele>298</ele>
        <time>2024-08-27T09:01:22Z</time>
      </trkpt>
      <trkpt lat="46.37886" lon="4.7653">
        <ele>298</ele>
        <time>2024-08-27T09:01:27Z</time>
      </trkpt>
      <trkpt lat="46.3789" lon="4.76494">
        <ele>299</ele>
        <time>2024-08-27T09:01:31Z</time>
      </trkpt>
      <trkpt lat="46.37896" lon="4.76468">
        <ele>301</ele>
        <time>2024-08-27T09:01:34Z</time>
      </trkpt>
      <trkpt lat="46.37893" lon="4.7645">
        <ele>303</ele>
        <time>2024-08-27T09:01:37Z</time>
      </trkpt>
      <trkpt lat="46.37899" lon="4.76447">
        <ele>302</ele>
        <time>2024-08-27T09:01:38Z</time>
      </trkpt>
      <trkpt lat="46.37902" lon="4.76453">
        <ele>302</ele>
        <time>2024-08-27T09:01:39Z</time>
      </trkpt>
      <trkpt lat="46.37904" lon="4.7647">
        <ele>300</ele>
        <time>2024-08-27T09:01:41Z</time>
      </trkpt>
      <trkpt lat="46.37908" lon="4.7648">
        <ele>299</ele>
        <time>2024-08-27T09:01:42Z</time>
      </trkpt>
      <trkpt lat="46.37912" lon="4.76486">
        <ele>298</ele>
        <time>2024-08-27T09:01:43Z</time>
      </trkpt>
      <trkpt lat="46.37919" lon="4.76491">
        <ele>297</ele>
        <time>2024-08-27T09:01:45Z</time>
      </trkpt>
      <trkpt lat="46.37937" lon="4.7652">
        <ele>294</ele>
        <time>2024-08-27T09:01:50Z</time>
      </trkpt>
      <trkpt lat="46.37949" lon="4.76528">
        <ele>294</ele>
        <time>2024-08-27T09:01:52Z</time>
      </trkpt>
      <trkpt lat="46.37999" lon="4.76565">
        <ele>287</ele>
        <time>2024-08-27T09:02:02Z</time>
      </trkpt>
      <trkpt lat="46.38021" lon="4.76603">
        <ele>284</ele>
        <time>2024-08-27T09:02:08Z</time>
      </trkpt>
      <trkpt lat="46.38041" lon="4.76621">
        <ele>284</ele>
        <time>2024-08-27T09:02:12Z</time>
      </trkpt>
      <trkpt lat="46.38088" lon="4.76633">
        <ele>285</ele>
        <time>2024-08-27T09:02:21Z</time>
      </trkpt>
      <trkpt lat="46.38112" lon="4.76667">
        <ele>280</ele>
        <time>2024-08-27T09:02:27Z</time>
      </trkpt>
      <trkpt lat="46.38131" lon="4.76668">
        <ele>279</ele>
        <time>2024-08-27T09:02:30Z</time>
      </trkpt>
      <trkpt lat="46.38175" lon="4.76661">
        <ele>277</ele>
        <time>2024-08-27T09:02:38Z</time>
      </trkpt>
      <trkpt lat="46.38197" lon="4.76653">
        <ele>276</ele>
        <time>2024-08-27T09:02:42Z</time>
      </trkpt>
      <trkpt lat="46.38209" lon="4.76642">
        <ele>276</ele>
        <time>2024-08-27T09:02:44Z</time>
      </trkpt>
      <trkpt lat="46.38235" lon="4.76597">
        <ele>279</ele>
        <time>2024-08-27T09:02:52Z</time>
      </trkpt>
      <trkpt lat="46.38292" lon="4.76527">
        <ele>283</ele>
        <time>2024-08-27T09:03:05Z</time>
      </trkpt>
      <trkpt lat="46.38309" lon="4.76492">
        <ele>286</ele>
        <time>2024-08-27T09:03:10Z</time>
      </trkpt>
      <trkpt lat="46.38331" lon="4.76461">
        <ele>289</ele>
        <time>2024-08-27T09:03:16Z</time>
      </trkpt>
      <trkpt lat="46.38336" lon="4.76448">
        <ele>290</ele>
        <time>2024-08-27T09:03:17Z</time>
      </trkpt>
      <trkpt lat="46.38338" lon="4.7644">
        <ele>290</ele>
        <time>2024-08-27T09:03:19Z</time>
      </trkpt>
      <trkpt lat="46.3834" lon="4.76423">
        <ele>292</ele>
        <time>2024-08-27T09:03:21Z</time>
      </trkpt>
      <trkpt lat="46.38368" lon="4.76323">
        <ele>297</ele>
        <time>2024-08-27T09:03:34Z</time>
      </trkpt>
      <trkpt lat="46.38381" lon="4.76288">
        <ele>296</ele>
        <time>2024-08-27T09:03:39Z</time>
      </trkpt>
      <trkpt lat="46.38389" lon="4.7626">
        <ele>295</ele>
        <time>2024-08-27T09:03:42Z</time>
      </trkpt>
      <trkpt lat="46.38391" lon="4.76245">
        <ele>295</ele>
        <time>2024-08-27T09:03:44Z</time>
      </trkpt>
      <trkpt lat="46.38391" lon="4.76196">
        <ele>297</ele>
        <time>2024-08-27T09:03:50Z</time>
      </trkpt>
      <trkpt lat="46.38394" lon="4.76176">
        <ele>298</ele>
        <time>2024-08-27T09:03:53Z</time>
      </trkpt>
      <trkpt lat="46.38403" lon="4.76145">
        <ele>298</ele>
        <time>2024-08-27T09:03:57Z</time>
      </trkpt>
      <trkpt lat="46.38409" lon="4.76114">
        <ele>298</ele>
        <time>2024-08-27T09:04:01Z</time>
      </trkpt>
      <trkpt lat="46.38412" lon="4.76087">
        <ele>298</ele>
        <time>2024-08-27T09:04:04Z</time>
      </trkpt>
      <trkpt lat="46.38418" lon="4.76053">
        <ele>298</ele>
        <time>2024-08-27T09:04:09Z</time>
      </trkpt>
      <trkpt lat="46.38424" lon="4.76037">
        <ele>297</ele>
        <time>2024-08-27T09:04:11Z</time>
      </trkpt>
      <trkpt lat="46.3844" lon="4.75972">
        <ele>293</ele>
        <time>2024-08-27T09:04:19Z</time>
      </trkpt>
      <trkpt lat="46.38444" lon="4.75952">
        <ele>293</ele>
        <time>2024-08-27T09:04:22Z</time>
      </trkpt>
      <trkpt lat="46.38468" lon="4.75853">
        <ele>288</ele>
        <time>2024-08-27T09:04:35Z</time>
      </trkpt>
      <trkpt lat="46.38486" lon="4.75789">
        <ele>284</ele>
        <time>2024-08-27T09:04:43Z</time>
      </trkpt>
      <trkpt lat="46.38489" lon="4.75773">
        <ele>283</ele>
        <time>2024-08-27T09:04:45Z</time>
      </trkpt>
      <trkpt lat="46.38493" lon="4.75681">
        <ele>280</ele>
        <time>2024-08-27T09:04:57Z</time>
      </trkpt>
      <trkpt lat="46.38493" lon="4.75651">
        <ele>279</ele>
        <time>2024-08-27T09:05:00Z</time>
      </trkpt>
      <trkpt lat="46.385" lon="4.75596">
        <ele>277</ele>
        <time>2024-08-27T09:05:07Z</time>
      </trkpt>
      <trkpt lat="46.38502" lon="4.75533">
        <ele>277</ele>
        <time>2024-08-27T09:05:15Z</time>
      </trkpt>
      <trkpt lat="46.38509" lon="4.75505">
        <ele>276</ele>
        <time>2024-08-27T09:05:19Z</time>
      </trkpt>
      <trkpt lat="46.38517" lon="4.75501">
        <ele>274</ele>
        <time>2024-08-27T09:05:20Z</time>
      </trkpt>
      <trkpt lat="46.38517" lon="4.75504">
        <ele>274</ele>
        <time>2024-08-27T09:05:20Z</time>
      </trkpt>
      <trkpt lat="46.38531" lon="4.75635">
        <ele>270</ele>
        <time>2024-08-27T09:05:37Z</time>
      </trkpt>
      <trkpt lat="46.38533" lon="4.75684">
        <ele>270</ele>
        <time>2024-08-27T09:05:43Z</time>
      </trkpt>
      <trkpt lat="46.38529" lon="4.75818">
        <ele>273</ele>
        <time>2024-08-27T09:05:59Z</time>
      </trkpt>
      <trkpt lat="46.38521" lon="4.75886">
        <ele>273</ele>
        <time>2024-08-27T09:06:08Z</time>
      </trkpt>
      <trkpt lat="46.38517" lon="4.75948">
        <ele>272</ele>
        <time>2024-08-27T09:06:15Z</time>
      </trkpt>
      <trkpt lat="46.38516" lon="4.7605">
        <ele>268</ele>
        <time>2024-08-27T09:06:28Z</time>
      </trkpt>
      <trkpt lat="46.38521" lon="4.76103">
        <ele>266</ele>
        <time>2024-08-27T09:06:34Z</time>
      </trkpt>
      <trkpt lat="46.38525" lon="4.7615">
        <ele>266</ele>
        <time>2024-08-27T09:06:40Z</time>
      </trkpt>
      <trkpt lat="46.3853" lon="4.76167">
        <ele>266</ele>
        <time>2024-08-27T09:06:42Z</time>
      </trkpt>
      <trkpt lat="46.38539" lon="4.76118">
        <ele>265</ele>
        <time>2024-08-27T09:06:49Z</time>
      </trkpt>
      <trkpt lat="46.38553" lon="4.76077">
        <ele>264</ele>
        <time>2024-08-27T09:06:54Z</time>
      </trkpt>
      <trkpt lat="46.38569" lon="4.76037">
        <ele>262</ele>
        <time>2024-08-27T09:07:00Z</time>
      </trkpt>
      <trkpt lat="46.38574" lon="4.76022">
        <ele>261</ele>
        <time>2024-08-27T09:07:02Z</time>
      </trkpt>
      <trkpt lat="46.38583" lon="4.75973">
        <ele>260</ele>
        <time>2024-08-27T09:07:08Z</time>
      </trkpt>
      <trkpt lat="46.38593" lon="4.75891">
        <ele>263</ele>
        <time>2024-08-27T09:07:18Z</time>
      </trkpt>
      <trkpt lat="46.38606" lon="4.7581">
        <ele>266</ele>
        <time>2024-08-27T09:07:29Z</time>
      </trkpt>
      <trkpt lat="46.38616" lon="4.75696">
        <ele>265</ele>
        <time>2024-08-27T09:07:43Z</time>
      </trkpt>
      <trkpt lat="46.38613" lon="4.75538">
        <ele>263</ele>
        <time>2024-08-27T09:08:02Z</time>
      </trkpt>
      <trkpt lat="46.38616" lon="4.75513">
        <ele>264</ele>
        <time>2024-08-27T09:08:05Z</time>
      </trkpt>
      <trkpt lat="46.38623" lon="4.75445">
        <ele>265</ele>
        <time>2024-08-27T09:08:14Z</time>
      </trkpt>
      <trkpt lat="46.38632" lon="4.754">
        <ele>267</ele>
        <time>2024-08-27T09:08:19Z</time>
      </trkpt>
      <trkpt lat="46.38698" lon="4.75163">
        <ele>273</ele>
        <time>2024-08-27T09:08:51Z</time>
      </trkpt>
      <trkpt lat="46.3871" lon="4.75109">
        <ele>274</ele>
        <time>2024-08-27T09:08:58Z</time>
      </trkpt>
      <trkpt lat="46.38713" lon="4.75086">
        <ele>274</ele>
        <time>2024-08-27T09:09:01Z</time>
      </trkpt>
      <trkpt lat="46.3872" lon="4.75056">
        <ele>275</ele>
        <time>2024-08-27T09:09:05Z</time>
      </trkpt>
      <trkpt lat="46.38728" lon="4.75031">
        <ele>277</ele>
        <time>2024-08-27T09:09:08Z</time>
      </trkpt>
      <trkpt lat="46.38734" lon="4.75016">
        <ele>278</ele>
        <time>2024-08-27T09:09:10Z</time>
      </trkpt>
      <trkpt lat="46.38776" lon="4.74953">
        <ele>281</ele>
        <time>2024-08-27T09:09:21Z</time>
      </trkpt>
      <trkpt lat="46.38782" lon="4.74971">
        <ele>282</ele>
        <time>2024-08-27T09:09:23Z</time>
      </trkpt>
      <trkpt lat="46.38807" lon="4.74989">
        <ele>285</ele>
        <time>2024-08-27T09:09:28Z</time>
      </trkpt>
      <trkpt lat="46.38944" lon="4.75014">
        <ele>301</ele>
        <time>2024-08-27T09:09:53Z</time>
      </trkpt>
      <trkpt lat="46.38973" lon="4.75008">
        <ele>304</ele>
        <time>2024-08-27T09:09:58Z</time>
      </trkpt>
      <trkpt lat="46.39005" lon="4.75008">
        <ele>307</ele>
        <time>2024-08-27T09:10:04Z</time>
      </trkpt>
      <trkpt lat="46.39049" lon="4.74999">
        <ele>310</ele>
        <time>2024-08-27T09:10:12Z</time>
      </trkpt>
      <trkpt lat="46.39058" lon="4.75">
        <ele>311</ele>
        <time>2024-08-27T09:10:13Z</time>
      </trkpt>
      <trkpt lat="46.39119" lon="4.75">
        <ele>314</ele>
        <time>2024-08-27T09:10:24Z</time>
      </trkpt>
      <trkpt lat="46.39217" lon="4.74997">
        <ele>314</ele>
        <time>2024-08-27T09:10:42Z</time>
      </trkpt>
      <trkpt lat="46.39267" lon="4.74993">
        <ele>311</ele>
        <time>2024-08-27T09:10:50Z</time>
      </trkpt>
      <trkpt lat="46.39308" lon="4.74974">
        <ele>309</ele>
        <time>2024-08-27T09:10:58Z</time>
      </trkpt>
      <trkpt lat="46.39353" lon="4.74947">
        <ele>306</ele>
        <time>2024-08-27T09:11:07Z</time>
      </trkpt>
      <trkpt lat="46.39415" lon="4.749">
        <ele>301</ele>
        <time>2024-08-27T09:11:19Z</time>
      </trkpt>
      <trkpt lat="46.39459" lon="4.74851">
        <ele>298</ele>
        <time>2024-08-27T09:11:29Z</time>
      </trkpt>
      <trkpt lat="46.39489" lon="4.74823">
        <ele>293</ele>
        <time>2024-08-27T09:11:35Z</time>
      </trkpt>
      <trkpt lat="46.39507" lon="4.74813">
        <ele>291</ele>
        <time>2024-08-27T09:11:39Z</time>
      </trkpt>
      <trkpt lat="46.39547" lon="4.74748">
        <ele>284</ele>
        <time>2024-08-27T09:11:50Z</time>
      </trkpt>
      <trkpt lat="46.39581" lon="4.74698">
        <ele>278</ele>
        <time>2024-08-27T09:11:58Z</time>
      </trkpt>
      <trkpt lat="46.39586" lon="4.74696">
        <ele>278</ele>
        <time>2024-08-27T09:11:59Z</time>
      </trkpt>
      <trkpt lat="46.39604" lon="4.74688">
        <ele>276</ele>
        <time>2024-08-27T09:12:02Z</time>
      </trkpt>
      <trkpt lat="46.3964" lon="4.74662">
        <ele>272</ele>
        <time>2024-08-27T09:12:10Z</time>
      </trkpt>
      <trkpt lat="46.39702" lon="4.7461">
        <ele>267</ele>
        <time>2024-08-27T09:12:22Z</time>
      </trkpt>
      <trkpt lat="46.39713" lon="4.74605">
        <ele>267</ele>
        <time>2024-08-27T09:12:24Z</time>
      </trkpt>
      <trkpt lat="46.39756" lon="4.74585">
        <ele>266</ele>
        <time>2024-08-27T09:12:32Z</time>
      </trkpt>
      <trkpt lat="46.39778" lon="4.74575">
        <ele>264</ele>
        <time>2024-08-27T09:12:37Z</time>
      </trkpt>
      <trkpt lat="46.39786" lon="4.74567">
        <ele>263</ele>
        <time>2024-08-27T09:12:38Z</time>
      </trkpt>
      <trkpt lat="46.39794" lon="4.74546">
        <ele>262</ele>
        <time>2024-08-27T09:12:41Z</time>
      </trkpt>
      <trkpt lat="46.39796" lon="4.74531">
        <ele>262</ele>
        <time>2024-08-27T09:12:43Z</time>
      </trkpt>
      <trkpt lat="46.39797" lon="4.74526">
        <ele>262</ele>
        <time>2024-08-27T09:12:44Z</time>
      </trkpt>
      <trkpt lat="46.39796" lon="4.74494">
        <ele>262</ele>
        <time>2024-08-27T09:12:48Z</time>
      </trkpt>
      <trkpt lat="46.39803" lon="4.7444">
        <ele>260</ele>
        <time>2024-08-27T09:12:54Z</time>
      </trkpt>
      <trkpt lat="46.39805" lon="4.74428">
        <ele>260</ele>
        <time>2024-08-27T09:12:56Z</time>
      </trkpt>
      <trkpt lat="46.39806" lon="4.74428">
        <ele>260</ele>
        <time>2024-08-27T09:12:56Z</time>
      </trkpt>
      <trkpt lat="46.39863" lon="4.74443">
        <ele>258</ele>
        <time>2024-08-27T09:13:06Z</time>
      </trkpt>
      <trkpt lat="46.39886" lon="4.7442">
        <ele>257</ele>
        <time>2024-08-27T09:13:11Z</time>
      </trkpt>
      <trkpt lat="46.39917" lon="4.74406">
        <ele>256</ele>
        <time>2024-08-27T09:13:17Z</time>
      </trkpt>
      <trkpt lat="46.39933" lon="4.74429">
        <ele>256</ele>
        <time>2024-08-27T09:13:21Z</time>
      </trkpt>
      <trkpt lat="46.39949" lon="4.74456">
        <ele>256</ele>
        <time>2024-08-27T09:13:25Z</time>
      </trkpt>
      <trkpt lat="46.39948" lon="4.7448">
        <ele>256</ele>
        <time>2024-08-27T09:13:28Z</time>
      </trkpt>
      <trkpt lat="46.39965" lon="4.74511">
        <ele>255</ele>
        <time>2024-08-27T09:13:33Z</time>
      </trkpt>
      <trkpt lat="46.39983" lon="4.74531">
        <ele>254</ele>
        <time>2024-08-27T09:13:37Z</time>
      </trkpt>
      <trkpt lat="46.40017" lon="4.74561">
        <ele>254</ele>
        <time>2024-08-27T09:13:44Z</time>
      </trkpt>
      <trkpt lat="46.40023" lon="4.74561">
        <ele>254</ele>
        <time>2024-08-27T09:13:45Z</time>
      </trkpt>
      <trkpt lat="46.4003" lon="4.74555">
        <ele>254</ele>
        <time>2024-08-27T09:13:47Z</time>
      </trkpt>
      <trkpt lat="46.40061" lon="4.74499">
        <ele>256</ele>
        <time>2024-08-27T09:13:56Z</time>
      </trkpt>
      <trkpt lat="46.40063" lon="4.74492">
        <ele>256</ele>
        <time>2024-08-27T09:13:57Z</time>
      </trkpt>
      <trkpt lat="46.40061" lon="4.74483">
        <ele>256</ele>
        <time>2024-08-27T09:13:58Z</time>
      </trkpt>
      <trkpt lat="46.40036" lon="4.74443">
        <ele>257</ele>
        <time>2024-08-27T09:14:04Z</time>
      </trkpt>
      <trkpt lat="46.40037" lon="4.74439">
        <ele>257</ele>
        <time>2024-08-27T09:14:05Z</time>
      </trkpt>
      <trkpt lat="46.40037" lon="4.74433">
        <ele>258</ele>
        <time>2024-08-27T09:14:06Z</time>
      </trkpt>
      <trkpt lat="46.40033" lon="4.74421">
        <ele>258</ele>
        <time>2024-08-27T09:14:07Z</time>
      </trkpt>
      <trkpt lat="46.40021" lon="4.74396">
        <ele>258</ele>
        <time>2024-08-27T09:14:11Z</time>
      </trkpt>
      <trkpt lat="46.40017" lon="4.74388">
        <ele>258</ele>
        <time>2024-08-27T09:14:12Z</time>
      </trkpt>
      <trkpt lat="46.40015" lon="4.74381">
        <ele>258</ele>
        <time>2024-08-27T09:14:13Z</time>
      </trkpt>
      <trkpt lat="46.40017" lon="4.74381">
        <ele>258</ele>
        <time>2024-08-27T09:14:14Z</time>
      </trkpt>
      <trkpt lat="46.40029" lon="4.74381">
        <ele>259</ele>
        <time>2024-08-27T09:14:16Z</time>
      </trkpt>
      <trkpt lat="46.40038" lon="4.74368">
        <ele>259</ele>
        <time>2024-08-27T09:14:18Z</time>
      </trkpt>
      <trkpt lat="46.4015" lon="4.74348">
        <ele>270</ele>
        <time>2024-08-27T09:14:38Z</time>
      </trkpt>
      <trkpt lat="46.40175" lon="4.74332">
        <ele>274</ele>
        <time>2024-08-27T09:14:43Z</time>
      </trkpt>
      <trkpt lat="46.4019" lon="4.74312">
        <ele>274</ele>
        <time>2024-08-27T09:14:47Z</time>
      </trkpt>
      <trkpt lat="46.40198" lon="4.74303">
        <ele>274</ele>
        <time>2024-08-27T09:14:48Z</time>
      </trkpt>
      <trkpt lat="46.40205" lon="4.74303">
        <ele>274</ele>
        <time>2024-08-27T09:14:50Z</time>
      </trkpt>
      <trkpt lat="46.40229" lon="4.74165">
        <ele>267</ele>
        <time>2024-08-27T09:15:07Z</time>
      </trkpt>
      <trkpt lat="46.40245" lon="4.74076">
        <ele>267</ele>
        <time>2024-08-27T09:15:18Z</time>
      </trkpt>
      <trkpt lat="46.40253" lon="4.74023">
        <ele>269</ele>
        <time>2024-08-27T09:15:25Z</time>
      </trkpt>
      <trkpt lat="46.4025" lon="4.74003">
        <ele>269</ele>
        <time>2024-08-27T09:15:28Z</time>
      </trkpt>
      <trkpt lat="46.40355" lon="4.74035">
        <ele>277</ele>
        <time>2024-08-27T09:15:47Z</time>
      </trkpt>
      <trkpt lat="46.40354" lon="4.74033">
        <ele>277</ele>
        <time>2024-08-27T09:15:47Z</time>
      </trkpt>
      <trkpt lat="46.40324" lon="4.73965">
        <ele>278</ele>
        <time>2024-08-27T09:15:57Z</time>
      </trkpt>
      <trkpt lat="46.403" lon="4.73929">
        <ele>277</ele>
        <time>2024-08-27T09:16:03Z</time>
      </trkpt>
      <trkpt lat="46.40284" lon="4.73898">
        <ele>276</ele>
        <time>2024-08-27T09:16:08Z</time>
      </trkpt>
      <trkpt lat="46.40267" lon="4.73854">
        <ele>275</ele>
        <time>2024-08-27T09:16:14Z</time>
      </trkpt>
      <trkpt lat="46.40265" lon="4.73836">
        <ele>275</ele>
        <time>2024-08-27T09:16:16Z</time>
      </trkpt>
      <trkpt lat="46.40264" lon="4.73813">
        <ele>275</ele>
        <time>2024-08-27T09:16:19Z</time>
      </trkpt>
      <trkpt lat="46.40267" lon="4.73785">
        <ele>275</ele>
        <time>2024-08-27T09:16:22Z</time>
      </trkpt>
      <trkpt lat="46.40275" lon="4.73741">
        <ele>277</ele>
        <time>2024-08-27T09:16:28Z</time>
      </trkpt>
      <trkpt lat="46.40277" lon="4.73713">
        <ele>277</ele>
        <time>2024-08-27T09:16:31Z</time>
      </trkpt>
      <trkpt lat="46.40274" lon="4.73683">
        <ele>277</ele>
        <time>2024-08-27T09:16:35Z</time>
      </trkpt>
      <trkpt lat="46.40271" lon="4.73634">
        <ele>276</ele>
        <time>2024-08-27T09:16:41Z</time>
      </trkpt>
      <trkpt lat="46.40261" lon="4.73574">
        <ele>274</ele>
        <time>2024-08-27T09:16:49Z</time>
      </trkpt>
      <trkpt lat="46.40261" lon="4.73534">
        <ele>274</ele>
        <time>2024-08-27T09:16:54Z</time>
      </trkpt>
      <trkpt lat="46.4026" lon="4.73521">
        <ele>274</ele>
        <time>2024-08-27T09:16:55Z</time>
      </trkpt>
      <trkpt lat="46.40257" lon="4.7351">
        <ele>273</ele>
        <time>2024-08-27T09:16:57Z</time>
      </trkpt>
      <trkpt lat="46.40249" lon="4.73497">
        <ele>272</ele>
        <time>2024-08-27T09:16:59Z</time>
      </trkpt>
      <trkpt lat="46.40227" lon="4.73479">
        <ele>273</ele>
        <time>2024-08-27T09:17:03Z</time>
      </trkpt>
      <trkpt lat="46.40216" lon="4.73468">
        <ele>274</ele>
        <time>2024-08-27T09:17:06Z</time>
      </trkpt>
      <trkpt lat="46.4023" lon="4.73432">
        <ele>274</ele>
        <time>2024-08-27T09:17:11Z</time>
      </trkpt>
      <trkpt lat="46.40242" lon="4.73396">
        <ele>275</ele>
        <time>2024-08-27T09:17:16Z</time>
      </trkpt>
      <trkpt lat="46.40253" lon="4.73349">
        <ele>276</ele>
        <time>2024-08-27T09:17:22Z</time>
      </trkpt>
      <trkpt lat="46.40259" lon="4.73308">
        <ele>278</ele>
        <time>2024-08-27T09:17:27Z</time>
      </trkpt>
      <trkpt lat="46.40264" lon="4.73267">
        <ele>281</ele>
        <time>2024-08-27T09:17:32Z</time>
      </trkpt>
      <trkpt lat="46.40273" lon="4.73139">
        <ele>291</ele>
        <time>2024-08-27T09:17:48Z</time>
      </trkpt>
      <trkpt lat="46.40279" lon="4.73088">
        <ele>293</ele>
        <time>2024-08-27T09:17:54Z</time>
      </trkpt>
      <trkpt lat="46.40286" lon="4.73058">
        <ele>294</ele>
        <time>2024-08-27T09:17:58Z</time>
      </trkpt>
      <trkpt lat="46.40297" lon="4.73028">
        <ele>293</ele>
        <time>2024-08-27T09:18:02Z</time>
      </trkpt>
      <trkpt lat="46.4031" lon="4.7301">
        <ele>290</ele>
        <time>2024-08-27T09:18:05Z</time>
      </trkpt>
      <trkpt lat="46.40327" lon="4.72933">
        <ele>288</ele>
        <time>2024-08-27T09:18:15Z</time>
      </trkpt>
      <trkpt lat="46.40328" lon="4.72891">
        <ele>290</ele>
        <time>2024-08-27T09:18:21Z</time>
      </trkpt>
      <trkpt lat="46.40323" lon="4.72847">
        <ele>296</ele>
        <time>2024-08-27T09:18:26Z</time>
      </trkpt>
      <trkpt lat="46.40321" lon="4.72837">
        <ele>297</ele>
        <time>2024-08-27T09:18:27Z</time>
      </trkpt>
      <trkpt lat="46.40316" lon="4.7282">
        <ele>300</ele>
        <time>2024-08-27T09:18:30Z</time>
      </trkpt>
      <trkpt lat="46.40299" lon="4.72725">
        <ele>311</ele>
        <time>2024-08-27T09:18:42Z</time>
      </trkpt>
      <trkpt lat="46.40255" lon="4.72636">
        <ele>324</ele>
        <time>2024-08-27T09:18:55Z</time>
      </trkpt>
      <trkpt lat="46.40216" lon="4.72571">
        <ele>332</ele>
        <time>2024-08-27T09:19:06Z</time>
      </trkpt>
      <trkpt lat="46.40174" lon="4.72542">
        <ele>343</ele>
        <time>2024-08-27T09:19:14Z</time>
      </trkpt>
      <trkpt lat="46.40156" lon="4.7253">
        <ele>345</ele>
        <time>2024-08-27T09:19:17Z</time>
      </trkpt>
      <trkpt lat="46.401" lon="4.72515">
        <ele>354</ele>
        <time>2024-08-27T09:19:28Z</time>
      </trkpt>
      <trkpt lat="46.40063" lon="4.72487">
        <ele>356</ele>
        <time>2024-08-27T09:19:35Z</time>
      </trkpt>
      <trkpt lat="46.39992" lon="4.7246">
        <ele>361</ele>
        <time>2024-08-27T09:19:48Z</time>
      </trkpt>
      <trkpt lat="46.3995" lon="4.72462">
        <ele>366</ele>
        <time>2024-08-27T09:19:56Z</time>
      </trkpt>
      <trkpt lat="46.39902" lon="4.7248">
        <ele>373</ele>
        <time>2024-08-27T09:20:04Z</time>
      </trkpt>
      <trkpt lat="46.39839" lon="4.72498">
        <ele>378</ele>
        <time>2024-08-27T09:20:16Z</time>
      </trkpt>
      <trkpt lat="46.39826" lon="4.72499">
        <ele>378</ele>
        <time>2024-08-27T09:20:18Z</time>
      </trkpt>
      <trkpt lat="46.39817" lon="4.72494">
        <ele>378</ele>
        <time>2024-08-27T09:20:20Z</time>
      </trkpt>
      <trkpt lat="46.39819" lon="4.72458">
        <ele>378</ele>
        <time>2024-08-27T09:20:24Z</time>
      </trkpt>
      <trkpt lat="46.3982" lon="4.72433">
        <ele>378</ele>
        <time>2024-08-27T09:20:27Z</time>
      </trkpt>
      <trkpt lat="46.39823" lon="4.72359">
        <ele>381</ele>
        <time>2024-08-27T09:20:36Z</time>
      </trkpt>
      <trkpt lat="46.39832" lon="4.7232">
        <ele>382</ele>
        <time>2024-08-27T09:20:41Z</time>
      </trkpt>
      <trkpt lat="46.39836" lon="4.7229">
        <ele>384</ele>
        <time>2024-08-27T09:20:45Z</time>
      </trkpt>
      <trkpt lat="46.39837" lon="4.72225">
        <ele>388</ele>
        <time>2024-08-27T09:20:53Z</time>
      </trkpt>
      <trkpt lat="46.39831" lon="4.72126">
        <ele>392</ele>
        <time>2024-08-27T09:21:05Z</time>
      </trkpt>
      <trkpt lat="46.39826" lon="4.72101">
        <ele>394</ele>
        <time>2024-08-27T09:21:09Z</time>
      </trkpt>
      <trkpt lat="46.39804" lon="4.7201">
        <ele>399</ele>
        <time>2024-08-27T09:21:20Z</time>
      </trkpt>
      <trkpt lat="46.39807" lon="4.71989">
        <ele>398</ele>
        <time>2024-08-27T09:21:23Z</time>
      </trkpt>
      <trkpt lat="46.39855" lon="4.71874">
        <ele>394</ele>
        <time>2024-08-27T09:21:40Z</time>
      </trkpt>
      <trkpt lat="46.39883" lon="4.71796">
        <ele>400</ele>
        <time>2024-08-27T09:21:50Z</time>
      </trkpt>
      <trkpt lat="46.39838" lon="4.71761">
        <ele>406</ele>
        <time>2024-08-27T09:21:59Z</time>
      </trkpt>
      <trkpt lat="46.39797" lon="4.71731">
        <ele>413</ele>
        <time>2024-08-27T09:22:08Z</time>
      </trkpt>
      <trkpt lat="46.39786" lon="4.7172">
        <ele>415</ele>
        <time>2024-08-27T09:22:10Z</time>
      </trkpt>
      <trkpt lat="46.39764" lon="4.7169">
        <ele>420</ele>
        <time>2024-08-27T09:22:15Z</time>
      </trkpt>
      <trkpt lat="46.39736" lon="4.71663">
        <ele>426</ele>
        <time>2024-08-27T09:22:21Z</time>
      </trkpt>
      <trkpt lat="46.39713" lon="4.71634">
        <ele>430</ele>
        <time>2024-08-27T09:22:27Z</time>
      </trkpt>
      <trkpt lat="46.39686" lon="4.71584">
        <ele>435</ele>
        <time>2024-08-27T09:22:35Z</time>
      </trkpt>
      <trkpt lat="46.39685" lon="4.71559">
        <ele>436</ele>
        <time>2024-08-27T09:22:38Z</time>
      </trkpt>
      <trkpt lat="46.39682" lon="4.71546">
        <ele>437</ele>
        <time>2024-08-27T09:22:39Z</time>
      </trkpt>
      <trkpt lat="46.39649" lon="4.71518">
        <ele>437</ele>
        <time>2024-08-27T09:22:46Z</time>
      </trkpt>
      <trkpt lat="46.39635" lon="4.71499">
        <ele>437</ele>
        <time>2024-08-27T09:22:49Z</time>
      </trkpt>
      <trkpt lat="46.39631" lon="4.71491">
        <ele>438</ele>
        <time>2024-08-27T09:22:51Z</time>
      </trkpt>
      <trkpt lat="46.39655" lon="4.71447">
        <ele>441</ele>
        <time>2024-08-27T09:22:58Z</time>
      </trkpt>
      <trkpt lat="46.39661" lon="4.7143">
        <ele>443</ele>
        <time>2024-08-27T09:23:00Z</time>
      </trkpt>
      <trkpt lat="46.39664" lon="4.71417">
        <ele>444</ele>
        <time>2024-08-27T09:23:02Z</time>
      </trkpt>
      <trkpt lat="46.39667" lon="4.71381">
        <ele>450</ele>
        <time>2024-08-27T09:23:06Z</time>
      </trkpt>
      <trkpt lat="46.39665" lon="4.71355">
        <ele>453</ele>
        <time>2024-08-27T09:23:09Z</time>
      </trkpt>
      <trkpt lat="46.39655" lon="4.71328">
        <ele>455</ele>
        <time>2024-08-27T09:23:13Z</time>
      </trkpt>
      <trkpt lat="46.39642" lon="4.7127">
        <ele>459</ele>
        <time>2024-08-27T09:23:21Z</time>
      </trkpt>
      <trkpt lat="46.39634" lon="4.71201">
        <ele>465</ele>
        <time>2024-08-27T09:23:29Z</time>
      </trkpt>
      <trkpt lat="46.3963" lon="4.71178">
        <ele>467</ele>
        <time>2024-08-27T09:23:32Z</time>
      </trkpt>
      <trkpt lat="46.39614" lon="4.71115">
        <ele>468</ele>
        <time>2024-08-27T09:23:40Z</time>
      </trkpt>
      <trkpt lat="46.39612" lon="4.71082">
        <ele>470</ele>
        <time>2024-08-27T09:23:44Z</time>
      </trkpt>
      <trkpt lat="46.39612" lon="4.71056">
        <ele>469</ele>
        <time>2024-08-27T09:23:48Z</time>
      </trkpt>
      <trkpt lat="46.39624" lon="4.71015">
        <ele>469</ele>
        <time>2024-08-27T09:23:53Z</time>
      </trkpt>
      <trkpt lat="46.39634" lon="4.70993">
        <ele>469</ele>
        <time>2024-08-27T09:23:56Z</time>
      </trkpt>
      <trkpt lat="46.39641" lon="4.70983">
        <ele>468</ele>
        <time>2024-08-27T09:23:58Z</time>
      </trkpt>
      <trkpt lat="46.3969" lon="4.70937">
        <ele>467</ele>
        <time>2024-08-27T09:24:08Z</time>
      </trkpt>
      <trkpt lat="46.39759" lon="4.7087">
        <ele>465</ele>
        <time>2024-08-27T09:24:23Z</time>
      </trkpt>
      <trkpt lat="46.39787" lon="4.70831">
        <ele>466</ele>
        <time>2024-08-27T09:24:30Z</time>
      </trkpt>
      <trkpt lat="46.39824" lon="4.70756">
        <ele>465</ele>
        <time>2024-08-27T09:24:41Z</time>
      </trkpt>
      <trkpt lat="46.39841" lon="4.70725">
        <ele>465</ele>
        <time>2024-08-27T09:24:46Z</time>
      </trkpt>
      <trkpt lat="46.39868" lon="4.70687">
        <ele>463</ele>
        <time>2024-08-27T09:24:53Z</time>
      </trkpt>
      <trkpt lat="46.39872" lon="4.70673">
        <ele>462</ele>
        <time>2024-08-27T09:24:55Z</time>
      </trkpt>
      <trkpt lat="46.39872" lon="4.70663">
        <ele>461</ele>
        <time>2024-08-27T09:24:56Z</time>
      </trkpt>
      <trkpt lat="46.39867" lon="4.70647">
        <ele>461</ele>
        <time>2024-08-27T09:24:58Z</time>
      </trkpt>
      <trkpt lat="46.39828" lon="4.70582">
        <ele>461</ele>
        <time>2024-08-27T09:25:09Z</time>
      </trkpt>
      <trkpt lat="46.39816" lon="4.70558">
        <ele>463</ele>
        <time>2024-08-27T09:25:12Z</time>
      </trkpt>
      <trkpt lat="46.39811" lon="4.70545">
        <ele>464</ele>
        <time>2024-08-27T09:25:14Z</time>
      </trkpt>
      <trkpt lat="46.39812" lon="4.70545">
        <ele>464</ele>
        <time>2024-08-27T09:25:14Z</time>
      </trkpt>
      <trkpt lat="46.39811" lon="4.70545">
        <ele>464</ele>
        <time>2024-08-27T09:25:15Z</time>
      </trkpt>
      <trkpt lat="46.39799" lon="4.70503">
        <ele>467</ele>
        <time>2024-08-27T09:25:20Z</time>
      </trkpt>
      <trkpt lat="46.39781" lon="4.70474">
        <ele>470</ele>
        <time>2024-08-27T09:25:25Z</time>
      </trkpt>
      <trkpt lat="46.39737" lon="4.70423">
        <ele>476</ele>
        <time>2024-08-27T09:25:35Z</time>
      </trkpt>
      <trkpt lat="46.39685" lon="4.70381">
        <ele>477</ele>
        <time>2024-08-27T09:25:46Z</time>
      </trkpt>
      <trkpt lat="46.39642" lon="4.70359">
        <ele>476</ele>
        <time>2024-08-27T09:25:54Z</time>
      </trkpt>
      <trkpt lat="46.39537" lon="4.70316">
        <ele>471</ele>
        <time>2024-08-27T09:26:13Z</time>
      </trkpt>
      <trkpt lat="46.39513" lon="4.70303">
        <ele>470</ele>
        <time>2024-08-27T09:26:18Z</time>
      </trkpt>
      <trkpt lat="46.39487" lon="4.70292">
        <ele>469</ele>
        <time>2024-08-27T09:26:22Z</time>
      </trkpt>
      <trkpt lat="46.39427" lon="4.70281">
        <ele>466</ele>
        <time>2024-08-27T09:26:33Z</time>
      </trkpt>
      <trkpt lat="46.3939" lon="4.70285">
        <ele>463</ele>
        <time>2024-08-27T09:26:40Z</time>
      </trkpt>
      <trkpt lat="46.39354" lon="4.7028">
        <ele>461</ele>
        <time>2024-08-27T09:26:46Z</time>
      </trkpt>
      <trkpt lat="46.39335" lon="4.70272">
        <ele>461</ele>
        <time>2024-08-27T09:26:50Z</time>
      </trkpt>
      <trkpt lat="46.39281" lon="4.70259">
        <ele>459</ele>
        <time>2024-08-27T09:26:59Z</time>
      </trkpt>
      <trkpt lat="46.39242" lon="4.70262">
        <ele>457</ele>
        <time>2024-08-27T09:27:06Z</time>
      </trkpt>
      <trkpt lat="46.39217" lon="4.70273">
        <ele>454</ele>
        <time>2024-08-27T09:27:11Z</time>
      </trkpt>
      <trkpt lat="46.39195" lon="4.70277">
        <ele>452</ele>
        <time>2024-08-27T09:27:15Z</time>
      </trkpt>
      <trkpt lat="46.3917" lon="4.70277">
        <ele>451</ele>
        <time>2024-08-27T09:27:19Z</time>
      </trkpt>
      <trkpt lat="46.39129" lon="4.70267">
        <ele>450</ele>
        <time>2024-08-27T09:27:27Z</time>
      </trkpt>
      <trkpt lat="46.39095" lon="4.70252">
        <ele>450</ele>
        <time>2024-08-27T09:27:33Z</time>
      </trkpt>
      <trkpt lat="46.39079" lon="4.70247">
        <ele>449</ele>
        <time>2024-08-27T09:27:36Z</time>
      </trkpt>
      <trkpt lat="46.39056" lon="4.70247">
        <ele>447</ele>
        <time>2024-08-27T09:27:40Z</time>
      </trkpt>
      <trkpt lat="46.39045" lon="4.70251">
        <ele>446</ele>
        <time>2024-08-27T09:27:42Z</time>
      </trkpt>
      <trkpt lat="46.3897" lon="4.70284">
        <ele>434</ele>
        <time>2024-08-27T09:27:56Z</time>
      </trkpt>
      <trkpt lat="46.38916" lon="4.70285">
        <ele>430</ele>
        <time>2024-08-27T09:28:06Z</time>
      </trkpt>
      <trkpt lat="46.3885" lon="4.70293">
        <ele>425</ele>
        <time>2024-08-27T09:28:18Z</time>
      </trkpt>
      <trkpt lat="46.38835" lon="4.70295">
        <ele>423</ele>
        <time>2024-08-27T09:28:20Z</time>
      </trkpt>
      <trkpt lat="46.38797" lon="4.70301">
        <ele>421</ele>
        <time>2024-08-27T09:28:27Z</time>
      </trkpt>
      <trkpt lat="46.38785" lon="4.70313">
        <ele>419</ele>
        <time>2024-08-27T09:28:30Z</time>
      </trkpt>
      <trkpt lat="46.38769" lon="4.7036">
        <ele>416</ele>
        <time>2024-08-27T09:28:36Z</time>
      </trkpt>
      <trkpt lat="46.38763" lon="4.70376">
        <ele>415</ele>
        <time>2024-08-27T09:28:38Z</time>
      </trkpt>
      <trkpt lat="46.38756" lon="4.70422">
        <ele>414</ele>
        <time>2024-08-27T09:28:44Z</time>
      </trkpt>
      <trkpt lat="46.38749" lon="4.70432">
        <ele>414</ele>
        <time>2024-08-27T09:28:46Z</time>
      </trkpt>
      <trkpt lat="46.3867" lon="4.70367">
        <ele>421</ele>
        <time>2024-08-27T09:29:02Z</time>
      </trkpt>
      <trkpt lat="46.38638" lon="4.70336">
        <ele>424</ele>
        <time>2024-08-27T09:29:09Z</time>
      </trkpt>
      <trkpt lat="46.38594" lon="4.70285">
        <ele>430</ele>
        <time>2024-08-27T09:29:19Z</time>
      </trkpt>
      <trkpt lat="46.38578" lon="4.70269">
        <ele>432</ele>
        <time>2024-08-27T09:29:22Z</time>
      </trkpt>
      <trkpt lat="46.38533" lon="4.70227">
        <ele>436</ele>
        <time>2024-08-27T09:29:32Z</time>
      </trkpt>
      <trkpt lat="46.38449" lon="4.70165">
        <ele>443</ele>
        <time>2024-08-27T09:29:49Z</time>
      </trkpt>
      <trkpt lat="46.38438" lon="4.70154">
        <ele>444</ele>
        <time>2024-08-27T09:29:51Z</time>
      </trkpt>
      <trkpt lat="46.38428" lon="4.70141">
        <ele>445</ele>
        <time>2024-08-27T09:29:53Z</time>
      </trkpt>
      <trkpt lat="46.38415" lon="4.70113">
        <ele>445</ele>
        <time>2024-08-27T09:29:58Z</time>
      </trkpt>
      <trkpt lat="46.38409" lon="4.70105">
        <ele>445</ele>
        <time>2024-08-27T09:29:59Z</time>
      </trkpt>
      <trkpt lat="46.38346" lon="4.70077">
        <ele>446</ele>
        <time>2024-08-27T09:30:11Z</time>
      </trkpt>
      <trkpt lat="46.38338" lon="4.7007">
        <ele>446</ele>
        <time>2024-08-27T09:30:12Z</time>
      </trkpt>
      <trkpt lat="46.38332" lon="4.7006">
        <ele>446</ele>
        <time>2024-08-27T09:30:14Z</time>
      </trkpt>
      <trkpt lat="46.38325" lon="4.70027">
        <ele>447</ele>
        <time>2024-08-27T09:30:18Z</time>
      </trkpt>
      <trkpt lat="46.38323" lon="4.69984">
        <ele>446</ele>
        <time>2024-08-27T09:30:24Z</time>
      </trkpt>
      <trkpt lat="46.38314" lon="4.69942">
        <ele>444</ele>
        <time>2024-08-27T09:30:29Z</time>
      </trkpt>
      <trkpt lat="46.38318" lon="4.69939">
        <ele>444</ele>
        <time>2024-08-27T09:30:30Z</time>
      </trkpt>
      <trkpt lat="46.38303" lon="4.69899">
        <ele>441</ele>
        <time>2024-08-27T09:30:35Z</time>
      </trkpt>
      <trkpt lat="46.38295" lon="4.69871">
        <ele>437</ele>
        <time>2024-08-27T09:30:39Z</time>
      </trkpt>
      <trkpt lat="46.38286" lon="4.69865">
        <ele>436</ele>
        <time>2024-08-27T09:30:41Z</time>
      </trkpt>
      <trkpt lat="46.38257" lon="4.6987">
        <ele>435</ele>
        <time>2024-08-27T09:30:46Z</time>
      </trkpt>
      <trkpt lat="46.3824" lon="4.6987">
        <ele>434</ele>
        <time>2024-08-27T09:30:49Z</time>
      </trkpt>
      <trkpt lat="46.3823" lon="4.69865">
        <ele>433</ele>
        <time>2024-08-27T09:30:51Z</time>
      </trkpt>
      <trkpt lat="46.38224" lon="4.69857">
        <ele>431</ele>
        <time>2024-08-27T09:30:52Z</time>
      </trkpt>
      <trkpt lat="46.38225" lon="4.69837">
        <ele>428</ele>
        <time>2024-08-27T09:30:55Z</time>
      </trkpt>
      <trkpt lat="46.38219" lon="4.69787">
        <ele>424</ele>
        <time>2024-08-27T09:31:01Z</time>
      </trkpt>
      <trkpt lat="46.38223" lon="4.69768">
        <ele>423</ele>
        <time>2024-08-27T09:31:03Z</time>
      </trkpt>
      <trkpt lat="46.3822" lon="4.69758">
        <ele>422</ele>
        <time>2024-08-27T09:31:05Z</time>
      </trkpt>
      <trkpt lat="46.38199" lon="4.69729">
        <ele>421</ele>
        <time>2024-08-27T09:31:10Z</time>
      </trkpt>
      <trkpt lat="46.38164" lon="4.69688">
        <ele>418</ele>
        <time>2024-08-27T09:31:18Z</time>
      </trkpt>
      <trkpt lat="46.38155" lon="4.6967">
        <ele>417</ele>
        <time>2024-08-27T09:31:21Z</time>
      </trkpt>
      <trkpt lat="46.3814" lon="4.69637">
        <ele>416</ele>
        <time>2024-08-27T09:31:26Z</time>
      </trkpt>
      <trkpt lat="46.38092" lon="4.69547">
        <ele>408</ele>
        <time>2024-08-27T09:31:40Z</time>
      </trkpt>
      <trkpt lat="46.38072" lon="4.69517">
        <ele>403</ele>
        <time>2024-08-27T09:31:45Z</time>
      </trkpt>
      <trkpt lat="46.3803" lon="4.69471">
        <ele>392</ele>
        <time>2024-08-27T09:31:54Z</time>
      </trkpt>
      <trkpt lat="46.38015" lon="4.69466">
        <ele>388</ele>
        <time>2024-08-27T09:31:57Z</time>
      </trkpt>
      <trkpt lat="46.38015" lon="4.69465">
        <ele>388</ele>
        <time>2024-08-27T09:31:57Z</time>
      </trkpt>
      <trkpt lat="46.38004" lon="4.69406">
        <ele>385</ele>
        <time>2024-08-27T09:32:04Z</time>
      </trkpt>
      <trkpt lat="46.37993" lon="4.69333">
        <ele>380</ele>
        <time>2024-08-27T09:32:14Z</time>
      </trkpt>
      <trkpt lat="46.37993" lon="4.69315">
        <ele>377</ele>
        <time>2024-08-27T09:32:16Z</time>
      </trkpt>
      <trkpt lat="46.37995" lon="4.69298">
        <ele>375</ele>
        <time>2024-08-27T09:32:18Z</time>
      </trkpt>
      <trkpt lat="46.3802" lon="4.69245">
        <ele>373</ele>
        <time>2024-08-27T09:32:26Z</time>
      </trkpt>
      <trkpt lat="46.38033" lon="4.69209">
        <ele>368</ele>
        <time>2024-08-27T09:32:31Z</time>
      </trkpt>
      <trkpt lat="46.38045" lon="4.69191">
        <ele>366</ele>
        <time>2024-08-27T09:32:34Z</time>
      </trkpt>
      <trkpt lat="46.38078" lon="4.69169">
        <ele>367</ele>
        <time>2024-08-27T09:32:40Z</time>
      </trkpt>
      <trkpt lat="46.38141" lon="4.6912">
        <ele>363</ele>
        <time>2024-08-27T09:32:53Z</time>
      </trkpt>
      <trkpt lat="46.3822" lon="4.69072">
        <ele>356</ele>
        <time>2024-08-27T09:33:08Z</time>
      </trkpt>
      <trkpt lat="46.38227" lon="4.69063">
        <ele>354</ele>
        <time>2024-08-27T09:33:10Z</time>
      </trkpt>
      <trkpt lat="46.3824" lon="4.69047">
        <ele>351</ele>
        <time>2024-08-27T09:33:13Z</time>
      </trkpt>
      <trkpt lat="46.38243" lon="4.69036">
        <ele>348</ele>
        <time>2024-08-27T09:33:14Z</time>
      </trkpt>
      <trkpt lat="46.38249" lon="4.69033">
        <ele>347</ele>
        <time>2024-08-27T09:33:16Z</time>
      </trkpt>
      <trkpt lat="46.38255" lon="4.69022">
        <ele>345</ele>
        <time>2024-08-27T09:33:17Z</time>
      </trkpt>
      <trkpt lat="46.38269" lon="4.69004">
        <ele>341</ele>
        <time>2024-08-27T09:33:21Z</time>
      </trkpt>
      <trkpt lat="46.38284" lon="4.6899">
        <ele>340</ele>
        <time>2024-08-27T09:33:24Z</time>
      </trkpt>
      <trkpt lat="46.3831" lon="4.68977">
        <ele>340</ele>
        <time>2024-08-27T09:33:29Z</time>
      </trkpt>
      <trkpt lat="46.38342" lon="4.68967">
        <ele>341</ele>
        <time>2024-08-27T09:33:34Z</time>
      </trkpt>
      <trkpt lat="46.3839" lon="4.6898">
        <ele>348</ele>
        <time>2024-08-27T09:33:43Z</time>
      </trkpt>
      <trkpt lat="46.38414" lon="4.6898">
        <ele>351</ele>
        <time>2024-08-27T09:33:47Z</time>
      </trkpt>
      <trkpt lat="46.38427" lon="4.68977">
        <ele>353</ele>
        <time>2024-08-27T09:33:50Z</time>
      </trkpt>
      <trkpt lat="46.38434" lon="4.68975">
        <ele>354</ele>
        <time>2024-08-27T09:33:51Z</time>
      </trkpt>
      <trkpt lat="46.38454" lon="4.68976">
        <ele>357</ele>
        <time>2024-08-27T09:33:55Z</time>
      </trkpt>
      <trkpt lat="46.38494" lon="4.68982">
        <ele>363</ele>
        <time>2024-08-27T09:34:02Z</time>
      </trkpt>
      <trkpt lat="46.38533" lon="4.68985">
        <ele>367</ele>
        <time>2024-08-27T09:34:09Z</time>
      </trkpt>
      <trkpt lat="46.38607" lon="4.6898">
        <ele>374</ele>
        <time>2024-08-27T09:34:22Z</time>
      </trkpt>
      <trkpt lat="46.38674" lon="4.6899">
        <ele>378</ele>
        <time>2024-08-27T09:34:34Z</time>
      </trkpt>
      <trkpt lat="46.38728" lon="4.69003">
        <ele>383</ele>
        <time>2024-08-27T09:34:44Z</time>
      </trkpt>
      <trkpt lat="46.38746" lon="4.69004">
        <ele>385</ele>
        <time>2024-08-27T09:34:47Z</time>
      </trkpt>
      <trkpt lat="46.38753" lon="4.68999">
        <ele>385</ele>
        <time>2024-08-27T09:34:48Z</time>
      </trkpt>
      <trkpt lat="46.38766" lon="4.68987">
        <ele>386</ele>
        <time>2024-08-27T09:34:51Z</time>
      </trkpt>
      <trkpt lat="46.38771" lon="4.68972">
        <ele>386</ele>
        <time>2024-08-27T09:34:53Z</time>
      </trkpt>
      <trkpt lat="46.38782" lon="4.68934">
        <ele>385</ele>
        <time>2024-08-27T09:34:58Z</time>
      </trkpt>
      <trkpt lat="46.38789" lon="4.68923">
        <ele>385</ele>
        <time>2024-08-27T09:35:00Z</time>
      </trkpt>
      <trkpt lat="46.388" lon="4.68917">
        <ele>385</ele>
        <time>2024-08-27T09:35:02Z</time>
      </trkpt>
      <trkpt lat="46.38825" lon="4.6891">
        <ele>386</ele>
        <time>2024-08-27T09:35:06Z</time>
      </trkpt>
      <trkpt lat="46.38839" lon="4.689">
        <ele>386</ele>
        <time>2024-08-27T09:35:09Z</time>
      </trkpt>
      <trkpt lat="46.38895" lon="4.68851">
        <ele>382</ele>
        <time>2024-08-27T09:35:21Z</time>
      </trkpt>
      <trkpt lat="46.38918" lon="4.68827">
        <ele>382</ele>
        <time>2024-08-27T09:35:26Z</time>
      </trkpt>
      <trkpt lat="46.38946" lon="4.68794">
        <ele>383</ele>
        <time>2024-08-27T09:35:32Z</time>
      </trkpt>
      <trkpt lat="46.38975" lon="4.68742">
        <ele>384</ele>
        <time>2024-08-27T09:35:41Z</time>
      </trkpt>
      <trkpt lat="46.38988" lon="4.68726">
        <ele>387</ele>
        <time>2024-08-27T09:35:44Z</time>
      </trkpt>
      <trkpt lat="46.39011" lon="4.68714">
        <ele>389</ele>
        <time>2024-08-27T09:35:48Z</time>
      </trkpt>
      <trkpt lat="46.39037" lon="4.68705">
        <ele>392</ele>
        <time>2024-08-27T09:35:53Z</time>
      </trkpt>
      <trkpt lat="46.39045" lon="4.68697">
        <ele>393</ele>
        <time>2024-08-27T09:35:54Z</time>
      </trkpt>
      <trkpt lat="46.39151" lon="4.68637">
        <ele>408</ele>
        <time>2024-08-27T09:36:15Z</time>
      </trkpt>
      <trkpt lat="46.39187" lon="4.68611">
        <ele>414</ele>
        <time>2024-08-27T09:36:22Z</time>
      </trkpt>
      <trkpt lat="46.39205" lon="4.6859">
        <ele>418</ele>
        <time>2024-08-27T09:36:26Z</time>
      </trkpt>
      <trkpt lat="46.3923" lon="4.68562">
        <ele>421</ele>
        <time>2024-08-27T09:36:32Z</time>
      </trkpt>
      <trkpt lat="46.39256" lon="4.68507">
        <ele>426</ele>
        <time>2024-08-27T09:36:40Z</time>
      </trkpt>
      <trkpt lat="46.39271" lon="4.68464">
        <ele>426</ele>
        <time>2024-08-27T09:36:46Z</time>
      </trkpt>
      <trkpt lat="46.393" lon="4.68455">
        <ele>427</ele>
        <time>2024-08-27T09:36:51Z</time>
      </trkpt>
      <trkpt lat="46.39304" lon="4.68452">
        <ele>427</ele>
        <time>2024-08-27T09:36:52Z</time>
      </trkpt>
      <trkpt lat="46.39374" lon="4.68378">
        <ele>429</ele>
        <time>2024-08-27T09:37:07Z</time>
      </trkpt>
      <trkpt lat="46.39419" lon="4.68349">
        <ele>433</ele>
        <time>2024-08-27T09:37:16Z</time>
      </trkpt>
      <trkpt lat="46.39434" lon="4.68335">
        <ele>433</ele>
        <time>2024-08-27T09:37:19Z</time>
      </trkpt>
      <trkpt lat="46.3946" lon="4.68283">
        <ele>438</ele>
        <time>2024-08-27T09:37:27Z</time>
      </trkpt>
      <trkpt lat="46.39494" lon="4.68172">
        <ele>447</ele>
        <time>2024-08-27T09:37:42Z</time>
      </trkpt>
      <trkpt lat="46.39514" lon="4.68078">
        <ele>452</ele>
        <time>2024-08-27T09:37:54Z</time>
      </trkpt>
      <trkpt lat="46.39568" lon="4.68089">
        <ele>447</ele>
        <time>2024-08-27T09:38:04Z</time>
      </trkpt>
      <trkpt lat="46.39609" lon="4.68104">
        <ele>448</ele>
        <time>2024-08-27T09:38:11Z</time>
      </trkpt>
      <trkpt lat="46.39645" lon="4.68116">
        <ele>451</ele>
        <time>2024-08-27T09:38:18Z</time>
      </trkpt>
      <trkpt lat="46.39666" lon="4.68135">
        <ele>452</ele>
        <time>2024-08-27T09:38:22Z</time>
      </trkpt>
      <trkpt lat="46.39687" lon="4.68148">
        <ele>455</ele>
        <time>2024-08-27T09:38:26Z</time>
      </trkpt>
      <trkpt lat="46.39733" lon="4.68154">
        <ele>461</ele>
        <time>2024-08-27T09:38:34Z</time>
      </trkpt>
      <trkpt lat="46.39745" lon="4.68158">
        <ele>463</ele>
        <time>2024-08-27T09:38:37Z</time>
      </trkpt>
      <trkpt lat="46.39838" lon="4.68194">
        <ele>467</ele>
        <time>2024-08-27T09:38:54Z</time>
      </trkpt>
      <trkpt lat="46.39848" lon="4.68194">
        <ele>467</ele>
        <time>2024-08-27T09:38:56Z</time>
      </trkpt>
      <trkpt lat="46.39867" lon="4.68189">
        <ele>469</ele>
        <time>2024-08-27T09:38:59Z</time>
      </trkpt>
      <trkpt lat="46.39908" lon="4.68169">
        <ele>472</ele>
        <time>2024-08-27T09:39:07Z</time>
      </trkpt>
      <trkpt lat="46.39931" lon="4.68163">
        <ele>473</ele>
        <time>2024-08-27T09:39:11Z</time>
      </trkpt>
      <trkpt lat="46.39954" lon="4.68173">
        <ele>476</ele>
        <time>2024-08-27T09:39:15Z</time>
      </trkpt>
      <trkpt lat="46.39963" lon="4.68188">
        <ele>476</ele>
        <time>2024-08-27T09:39:18Z</time>
      </trkpt>
      <trkpt lat="46.39994" lon="4.68271">
        <ele>475</ele>
        <time>2024-08-27T09:39:29Z</time>
      </trkpt>
      <trkpt lat="46.40033" lon="4.68351">
        <ele>474</ele>
        <time>2024-08-27T09:39:41Z</time>
      </trkpt>
      <trkpt lat="46.40036" lon="4.68358">
        <ele>474</ele>
        <time>2024-08-27T09:39:42Z</time>
      </trkpt>
      <trkpt lat="46.40042" lon="4.68379">
        <ele>474</ele>
        <time>2024-08-27T09:39:45Z</time>
      </trkpt>
      <trkpt lat="46.40048" lon="4.68419">
        <ele>473</ele>
        <time>2024-08-27T09:39:50Z</time>
      </trkpt>
      <trkpt lat="46.40061" lon="4.68484">
        <ele>475</ele>
        <time>2024-08-27T09:39:58Z</time>
      </trkpt>
      <trkpt lat="46.4007" lon="4.68506">
        <ele>475</ele>
        <time>2024-08-27T09:40:01Z</time>
      </trkpt>
      <trkpt lat="46.40077" lon="4.68548">
        <ele>474</ele>
        <time>2024-08-27T09:40:07Z</time>
      </trkpt>
      <trkpt lat="46.40074" lon="4.68588">
        <ele>474</ele>
        <time>2024-08-27T09:40:12Z</time>
      </trkpt>
      <trkpt lat="46.40076" lon="4.68624">
        <ele>472</ele>
        <time>2024-08-27T09:40:16Z</time>
      </trkpt>
      <trkpt lat="46.40076" lon="4.68701">
        <ele>470</ele>
        <time>2024-08-27T09:40:26Z</time>
      </trkpt>
      <trkpt lat="46.40069" lon="4.68726">
        <ele>469</ele>
        <time>2024-08-27T09:40:29Z</time>
      </trkpt>
      <trkpt lat="46.40084" lon="4.6875">
        <ele>470</ele>
        <time>2024-08-27T09:40:33Z</time>
      </trkpt>
      <trkpt lat="46.4006" lon="4.68762">
        <ele>469</ele>
        <time>2024-08-27T09:40:37Z</time>
      </trkpt>
      <trkpt lat="46.40007" lon="4.68789">
        <ele>467</ele>
        <time>2024-08-27T09:40:47Z</time>
      </trkpt>
      <trkpt lat="46.39992" lon="4.68794">
        <ele>467</ele>
        <time>2024-08-27T09:40:50Z</time>
      </trkpt>
      <trkpt lat="46.3992" lon="4.68809">
        <ele>462</ele>
        <time>2024-08-27T09:41:03Z</time>
      </trkpt>
      <trkpt lat="46.39899" lon="4.6881">
        <ele>461</ele>
        <time>2024-08-27T09:41:07Z</time>
      </trkpt>
      <trkpt lat="46.39854" lon="4.68806">
        <ele>458</ele>
        <time>2024-08-27T09:41:15Z</time>
      </trkpt>
      <trkpt lat="46.39836" lon="4.68807">
        <ele>457</ele>
        <time>2024-08-27T09:41:18Z</time>
      </trkpt>
      <trkpt lat="46.39821" lon="4.68809">
        <ele>456</ele>
        <time>2024-08-27T09:41:21Z</time>
      </trkpt>
      <trkpt lat="46.39807" lon="4.68815">
        <ele>455</ele>
        <time>2024-08-27T09:41:23Z</time>
      </trkpt>
      <trkpt lat="46.39696" lon="4.68898">
        <ele>454</ele>
        <time>2024-08-27T09:41:45Z</time>
      </trkpt>
      <trkpt lat="46.39686" lon="4.68902">
        <ele>454</ele>
        <time>2024-08-27T09:41:47Z</time>
      </trkpt>
      <trkpt lat="46.39614" lon="4.68912">
        <ele>450</ele>
        <time>2024-08-27T09:42:00Z</time>
      </trkpt>
      <trkpt lat="46.39592" lon="4.68924">
        <ele>450</ele>
        <time>2024-08-27T09:42:04Z</time>
      </trkpt>
      <trkpt lat="46.39577" lon="4.68941">
        <ele>450</ele>
        <time>2024-08-27T09:42:08Z</time>
      </trkpt>
      <trkpt lat="46.3956" lon="4.68992">
        <ele>453</ele>
        <time>2024-08-27T09:42:15Z</time>
      </trkpt>
      <trkpt lat="46.39556" lon="4.69003">
        <ele>454</ele>
        <time>2024-08-27T09:42:16Z</time>
      </trkpt>
      <trkpt lat="46.39548" lon="4.69019">
        <ele>455</ele>
        <time>2024-08-27T09:42:19Z</time>
      </trkpt>
      <trkpt lat="46.39496" lon="4.69086">
        <ele>458</ele>
        <time>2024-08-27T09:42:31Z</time>
      </trkpt>
      <trkpt lat="46.39472" lon="4.69112">
        <ele>460</ele>
        <time>2024-08-27T09:42:36Z</time>
      </trkpt>
      <trkpt lat="46.39417" lon="4.69161">
        <ele>463</ele>
        <time>2024-08-27T09:42:48Z</time>
      </trkpt>
      <trkpt lat="46.39399" lon="4.69182">
        <ele>465</ele>
        <time>2024-08-27T09:42:52Z</time>
      </trkpt>
      <trkpt lat="46.39371" lon="4.69209">
        <ele>467</ele>
        <time>2024-08-27T09:42:58Z</time>
      </trkpt>
      <trkpt lat="46.39327" lon="4.69237">
        <ele>468</ele>
        <time>2024-08-27T09:43:06Z</time>
      </trkpt>
      <trkpt lat="46.39288" lon="4.69249">
        <ele>465</ele>
        <time>2024-08-27T09:43:14Z</time>
      </trkpt>
      <trkpt lat="46.39259" lon="4.69269">
        <ele>465</ele>
        <time>2024-08-27T09:43:19Z</time>
      </trkpt>
      <trkpt lat="46.39221" lon="4.69296">
        <ele>466</ele>
        <time>2024-08-27T09:43:27Z</time>
      </trkpt>
      <trkpt lat="46.39085" lon="4.69429">
        <ele>466</ele>
        <time>2024-08-27T09:43:56Z</time>
      </trkpt>
      <trkpt lat="46.38983" lon="4.69515">
        <ele>470</ele>
        <time>2024-08-27T09:44:17Z</time>
      </trkpt>
      <trkpt lat="46.38912" lon="4.69558">
        <ele>470</ele>
        <time>2024-08-27T09:44:31Z</time>
      </trkpt>
      <trkpt lat="46.38898" lon="4.69565">
        <ele>471</ele>
        <time>2024-08-27T09:44:33Z</time>
      </trkpt>
      <trkpt lat="46.38858" lon="4.69579">
        <ele>472</ele>
        <time>2024-08-27T09:44:41Z</time>
      </trkpt>
      <trkpt lat="46.38844" lon="4.69591">
        <ele>471</ele>
        <time>2024-08-27T09:44:44Z</time>
      </trkpt>
      <trkpt lat="46.38858" lon="4.696">
        <ele>472</ele>
        <time>2024-08-27T09:44:46Z</time>
      </trkpt>
      <trkpt lat="46.38894" lon="4.69607">
        <ele>475</ele>
        <time>2024-08-27T09:44:53Z</time>
      </trkpt>
      <trkpt lat="46.38929" lon="4.69623">
        <ele>480</ele>
        <time>2024-08-27T09:44:59Z</time>
      </trkpt>
      <trkpt lat="46.38943" lon="4.69624">
        <ele>482</ele>
        <time>2024-08-27T09:45:02Z</time>
      </trkpt>
      <trkpt lat="46.38964" lon="4.6962">
        <ele>484</ele>
        <time>2024-08-27T09:45:06Z</time>
      </trkpt>
      <trkpt lat="46.38983" lon="4.69614">
        <ele>486</ele>
        <time>2024-08-27T09:45:09Z</time>
      </trkpt>
      <trkpt lat="46.38996" lon="4.69604">
        <ele>487</ele>
        <time>2024-08-27T09:45:12Z</time>
      </trkpt>
      <trkpt lat="46.39047" lon="4.69572">
        <ele>491</ele>
        <time>2024-08-27T09:45:22Z</time>
      </trkpt>
      <trkpt lat="46.39094" lon="4.69553">
        <ele>495</ele>
        <time>2024-08-27T09:45:30Z</time>
      </trkpt>
      <trkpt lat="46.39117" lon="4.69539">
        <ele>497</ele>
        <time>2024-08-27T09:45:35Z</time>
      </trkpt>
      <trkpt lat="46.39148" lon="4.69511">
        <ele>498</ele>
        <time>2024-08-27T09:45:41Z</time>
      </trkpt>
      <trkpt lat="46.39185" lon="4.69486">
        <ele>500</ele>
        <time>2024-08-27T09:45:48Z</time>
      </trkpt>
      <trkpt lat="46.39259" lon="4.6945">
        <ele>505</ele>
        <time>2024-08-27T09:46:02Z</time>
      </trkpt>
      <trkpt lat="46.39308" lon="4.69431">
        <ele>508</ele>
        <time>2024-08-27T09:46:11Z</time>
      </trkpt>
      <trkpt lat="46.39372" lon="4.69413">
        <ele>511</ele>
        <time>2024-08-27T09:46:23Z</time>
      </trkpt>
      <trkpt lat="46.39498" lon="4.69417">
        <ele>520</ele>
        <time>2024-08-27T09:46:45Z</time>
      </trkpt>
      <trkpt lat="46.39553" lon="4.69434">
        <ele>528</ele>
        <time>2024-08-27T09:46:55Z</time>
      </trkpt>
      <trkpt lat="46.39561" lon="4.69439">
        <ele>530</ele>
        <time>2024-08-27T09:46:57Z</time>
      </trkpt>
      <trkpt lat="46.39618" lon="4.69444">
        <ele>538</ele>
        <time>2024-08-27T09:47:07Z</time>
      </trkpt>
      <trkpt lat="46.39664" lon="4.69453">
        <ele>546</ele>
        <time>2024-08-27T09:47:15Z</time>
      </trkpt>
      <trkpt lat="46.39694" lon="4.69478">
        <ele>554</ele>
        <time>2024-08-27T09:47:21Z</time>
      </trkpt>
      <trkpt lat="46.39722" lon="4.69491">
        <ele>557</ele>
        <time>2024-08-27T09:47:27Z</time>
      </trkpt>
      <trkpt lat="46.39789" lon="4.69494">
        <ele>559</ele>
        <time>2024-08-27T09:47:39Z</time>
      </trkpt>
      <trkpt lat="46.39865" lon="4.69484">
        <ele>560</ele>
        <time>2024-08-27T09:47:52Z</time>
      </trkpt>
      <trkpt lat="46.399" lon="4.69472">
        <ele>559</ele>
        <time>2024-08-27T09:47:59Z</time>
      </trkpt>
      <trkpt lat="46.39973" lon="4.69463">
        <ele>559</ele>
        <time>2024-08-27T09:48:12Z</time>
      </trkpt>
      <trkpt lat="46.40072" lon="4.69471">
        <ele>563</ele>
        <time>2024-08-27T09:48:29Z</time>
      </trkpt>
      <trkpt lat="46.40099" lon="4.69465">
        <ele>562</ele>
        <time>2024-08-27T09:48:34Z</time>
      </trkpt>
      <trkpt lat="46.40113" lon="4.69444">
        <ele>559</ele>
        <time>2024-08-27T09:48:38Z</time>
      </trkpt>
      <trkpt lat="46.40137" lon="4.69443">
        <ele>558</ele>
        <time>2024-08-27T09:48:42Z</time>
      </trkpt>
      <trkpt lat="46.40158" lon="4.69442">
        <ele>558</ele>
        <time>2024-08-27T09:48:46Z</time>
      </trkpt>
      <trkpt lat="46.40179" lon="4.69448">
        <ele>557</ele>
        <time>2024-08-27T09:48:50Z</time>
      </trkpt>
      <trkpt lat="46.40187" lon="4.69462">
        <ele>557</ele>
        <time>2024-08-27T09:48:52Z</time>
      </trkpt>
      <trkpt lat="46.40199" lon="4.6949">
        <ele>558</ele>
        <time>2024-08-27T09:48:56Z</time>
      </trkpt>
      <trkpt lat="46.40228" lon="4.69526">
        <ele>554</ele>
        <time>2024-08-27T09:49:03Z</time>
      </trkpt>
      <trkpt lat="46.40248" lon="4.69537">
        <ele>551</ele>
        <time>2024-08-27T09:49:06Z</time>
      </trkpt>
      <trkpt lat="46.40276" lon="4.69572">
        <ele>550</ele>
        <time>2024-08-27T09:49:13Z</time>
      </trkpt>
      <trkpt lat="46.40287" lon="4.69585">
        <ele>549</ele>
        <time>2024-08-27T09:49:16Z</time>
      </trkpt>
      <trkpt lat="46.40359" lon="4.69586">
        <ele>546</ele>
        <time>2024-08-27T09:49:28Z</time>
      </trkpt>
      <trkpt lat="46.40382" lon="4.69588">
        <ele>546</ele>
        <time>2024-08-27T09:49:32Z</time>
      </trkpt>
      <trkpt lat="46.40439" lon="4.696">
        <ele>546</ele>
        <time>2024-08-27T09:49:43Z</time>
      </trkpt>
      <trkpt lat="46.4046" lon="4.696">
        <ele>546</ele>
        <time>2024-08-27T09:49:46Z</time>
      </trkpt>
      <trkpt lat="46.40472" lon="4.69592">
        <ele>548</ele>
        <time>2024-08-27T09:49:49Z</time>
      </trkpt>
      <trkpt lat="46.40482" lon="4.69583">
        <ele>549</ele>
        <time>2024-08-27T09:49:51Z</time>
      </trkpt>
      <trkpt lat="46.40492" lon="4.69567">
        <ele>549</ele>
        <time>2024-08-27T09:49:53Z</time>
      </trkpt>
      <trkpt lat="46.40504" lon="4.69552">
        <ele>549</ele>
        <time>2024-08-27T09:49:56Z</time>
      </trkpt>
      <trkpt lat="46.4056" lon="4.69564">
        <ele>547</ele>
        <time>2024-08-27T09:50:06Z</time>
      </trkpt>
      <trkpt lat="46.40658" lon="4.69617">
        <ele>540</ele>
        <time>2024-08-27T09:50:25Z</time>
      </trkpt>
      <trkpt lat="46.40682" lon="4.69624">
        <ele>538</ele>
        <time>2024-08-27T09:50:29Z</time>
      </trkpt>
      <trkpt lat="46.40739" lon="4.69641">
        <ele>532</ele>
        <time>2024-08-27T09:50:40Z</time>
      </trkpt>
      <trkpt lat="46.40794" lon="4.69661">
        <ele>529</ele>
        <time>2024-08-27T09:50:50Z</time>
      </trkpt>
      <trkpt lat="46.40859" lon="4.69656">
        <ele>526</ele>
        <time>2024-08-27T09:51:01Z</time>
      </trkpt>
      <trkpt lat="46.40932" lon="4.69657">
        <ele>520</ele>
        <time>2024-08-27T09:51:14Z</time>
      </trkpt>
      <trkpt lat="46.40973" lon="4.69674">
        <ele>511</ele>
        <time>2024-08-27T09:51:22Z</time>
      </trkpt>
      <trkpt lat="46.40985" lon="4.6969">
        <ele>508</ele>
        <time>2024-08-27T09:51:25Z</time>
      </trkpt>
      <trkpt lat="46.41011" lon="4.69712">
        <ele>504</ele>
        <time>2024-08-27T09:51:30Z</time>
      </trkpt>
      <trkpt lat="46.41051" lon="4.69732">
        <ele>505</ele>
        <time>2024-08-27T09:51:38Z</time>
      </trkpt>
      <trkpt lat="46.41077" lon="4.6975">
        <ele>506</ele>
        <time>2024-08-27T09:51:43Z</time>
      </trkpt>
      <trkpt lat="46.41089" lon="4.69762">
        <ele>506</ele>
        <time>2024-08-27T09:51:45Z</time>
      </trkpt>
      <trkpt lat="46.41094" lon="4.69768">
        <ele>506</ele>
        <time>2024-08-27T09:51:47Z</time>
      </trkpt>
      <trkpt lat="46.411" lon="4.69757">
        <ele>507</ele>
        <time>2024-08-27T09:51:48Z</time>
      </trkpt>
      <trkpt lat="46.41111" lon="4.69745">
        <ele>507</ele>
        <time>2024-08-27T09:51:51Z</time>
      </trkpt>
      <trkpt lat="46.41142" lon="4.69723">
        <ele>508</ele>
        <time>2024-08-27T09:51:57Z</time>
      </trkpt>
      <trkpt lat="46.41197" lon="4.69688">
        <ele>507</ele>
        <time>2024-08-27T09:52:08Z</time>
      </trkpt>
      <trkpt lat="46.4122" lon="4.6968">
        <ele>507</ele>
        <time>2024-08-27T09:52:12Z</time>
      </trkpt>
      <trkpt lat="46.41235" lon="4.69677">
        <ele>507</ele>
        <time>2024-08-27T09:52:15Z</time>
      </trkpt>
      <trkpt lat="46.41251" lon="4.69677">
        <ele>508</ele>
        <time>2024-08-27T09:52:17Z</time>
      </trkpt>
      <trkpt lat="46.41283" lon="4.69685">
        <ele>506</ele>
        <time>2024-08-27T09:52:23Z</time>
      </trkpt>
      <trkpt lat="46.41309" lon="4.69701">
        <ele>505</ele>
        <time>2024-08-27T09:52:28Z</time>
      </trkpt>
      <trkpt lat="46.41342" lon="4.69735">
        <ele>505</ele>
        <time>2024-08-27T09:52:35Z</time>
      </trkpt>
      <trkpt lat="46.41366" lon="4.69746">
        <ele>505</ele>
        <time>2024-08-27T09:52:40Z</time>
      </trkpt>
      <trkpt lat="46.41412" lon="4.69754">
        <ele>503</ele>
        <time>2024-08-27T09:52:48Z</time>
      </trkpt>
      <trkpt lat="46.41427" lon="4.69749">
        <ele>503</ele>
        <time>2024-08-27T09:52:51Z</time>
      </trkpt>
      <trkpt lat="46.41443" lon="4.69733">
        <ele>501</ele>
        <time>2024-08-27T09:52:54Z</time>
      </trkpt>
      <trkpt lat="46.41453" lon="4.69718">
        <ele>499</ele>
        <time>2024-08-27T09:52:57Z</time>
      </trkpt>
      <trkpt lat="46.41478" lon="4.69686">
        <ele>494</ele>
        <time>2024-08-27T09:53:03Z</time>
      </trkpt>
      <trkpt lat="46.41487" lon="4.69678">
        <ele>493</ele>
        <time>2024-08-27T09:53:05Z</time>
      </trkpt>
      <trkpt lat="46.41536" lon="4.69664">
        <ele>491</ele>
        <time>2024-08-27T09:53:14Z</time>
      </trkpt>
      <trkpt lat="46.41583" lon="4.69636">
        <ele>486</ele>
        <time>2024-08-27T09:53:23Z</time>
      </trkpt>
      <trkpt lat="46.41649" lon="4.69608">
        <ele>490</ele>
        <time>2024-08-27T09:53:35Z</time>
      </trkpt>
      <trkpt lat="46.41661" lon="4.69599">
        <ele>491</ele>
        <time>2024-08-27T09:53:37Z</time>
      </trkpt>
      <trkpt lat="46.41672" lon="4.69582">
        <ele>490</ele>
        <time>2024-08-27T09:53:40Z</time>
      </trkpt>
      <trkpt lat="46.41676" lon="4.6957">
        <ele>489</ele>
        <time>2024-08-27T09:53:42Z</time>
      </trkpt>
      <trkpt lat="46.41694" lon="4.69467">
        <ele>485</ele>
        <time>2024-08-27T09:53:55Z</time>
      </trkpt>
      <trkpt lat="46.41695" lon="4.69438">
        <ele>485</ele>
        <time>2024-08-27T09:53:58Z</time>
      </trkpt>
      <trkpt lat="46.41692" lon="4.69409">
        <ele>484</ele>
        <time>2024-08-27T09:54:02Z</time>
      </trkpt>
      <trkpt lat="46.41685" lon="4.69384">
        <ele>485</ele>
        <time>2024-08-27T09:54:05Z</time>
      </trkpt>
      <trkpt lat="46.41667" lon="4.69346">
        <ele>484</ele>
        <time>2024-08-27T09:54:11Z</time>
      </trkpt>
      <trkpt lat="46.41613" lon="4.6926">
        <ele>477</ele>
        <time>2024-08-27T09:54:25Z</time>
      </trkpt>
      <trkpt lat="46.41601" lon="4.69235">
        <ele>475</ele>
        <time>2024-08-27T09:54:29Z</time>
      </trkpt>
      <trkpt lat="46.41596" lon="4.69219">
        <ele>474</ele>
        <time>2024-08-27T09:54:31Z</time>
      </trkpt>
      <trkpt lat="46.41594" lon="4.69189">
        <ele>473</ele>
        <time>2024-08-27T09:54:35Z</time>
      </trkpt>
      <trkpt lat="46.41602" lon="4.69218">
        <ele>475</ele>
        <time>2024-08-27T09:54:39Z</time>
      </trkpt>
      <trkpt lat="46.41615" lon="4.69243">
        <ele>478</ele>
        <time>2024-08-27T09:54:42Z</time>
      </trkpt>
      <trkpt lat="46.41636" lon="4.69276">
        <ele>482</ele>
        <time>2024-08-27T09:54:48Z</time>
      </trkpt>
      <trkpt lat="46.41661" lon="4.69305">
        <ele>485</ele>
        <time>2024-08-27T09:54:54Z</time>
      </trkpt>
      <trkpt lat="46.41676" lon="4.69319">
        <ele>487</ele>
        <time>2024-08-27T09:54:57Z</time>
      </trkpt>
      <trkpt lat="46.41701" lon="4.69337">
        <ele>489</ele>
        <time>2024-08-27T09:55:02Z</time>
      </trkpt>
      <trkpt lat="46.41735" lon="4.69352">
        <ele>493</ele>
        <time>2024-08-27T09:55:08Z</time>
      </trkpt>
      <trkpt lat="46.41756" lon="4.69365">
        <ele>496</ele>
        <time>2024-08-27T09:55:12Z</time>
      </trkpt>
      <trkpt lat="46.41789" lon="4.69403">
        <ele>498</ele>
        <time>2024-08-27T09:55:20Z</time>
      </trkpt>
      <trkpt lat="46.41839" lon="4.69464">
        <ele>501</ele>
        <time>2024-08-27T09:55:31Z</time>
      </trkpt>
      <trkpt lat="46.41884" lon="4.69519">
        <ele>503</ele>
        <time>2024-08-27T09:55:42Z</time>
      </trkpt>
      <trkpt lat="46.41892" lon="4.6953">
        <ele>504</ele>
        <time>2024-08-27T09:55:44Z</time>
      </trkpt>
      <trkpt lat="46.41903" lon="4.69554">
        <ele>505</ele>
        <time>2024-08-27T09:55:47Z</time>
      </trkpt>
      <trkpt lat="46.41922" lon="4.69614">
        <ele>508</ele>
        <time>2024-08-27T09:55:55Z</time>
      </trkpt>
      <trkpt lat="46.41929" lon="4.69631">
        <ele>509</ele>
        <time>2024-08-27T09:55:58Z</time>
      </trkpt>
      <trkpt lat="46.41981" lon="4.69743">
        <ele>513</ele>
        <time>2024-08-27T09:56:14Z</time>
      </trkpt>
      <trkpt lat="46.41988" lon="4.69762">
        <ele>512</ele>
        <time>2024-08-27T09:56:17Z</time>
      </trkpt>
      <trkpt lat="46.41994" lon="4.69788">
        <ele>512</ele>
        <time>2024-08-27T09:56:20Z</time>
      </trkpt>
      <trkpt lat="46.42011" lon="4.69895">
        <ele>510</ele>
        <time>2024-08-27T09:56:34Z</time>
      </trkpt>
      <trkpt lat="46.42015" lon="4.6993">
        <ele>510</ele>
        <time>2024-08-27T09:56:38Z</time>
      </trkpt>
      <trkpt lat="46.42011" lon="4.69976">
        <ele>510</ele>
        <time>2024-08-27T09:56:44Z</time>
      </trkpt>
      <trkpt lat="46.41988" lon="4.70116">
        <ele>510</ele>
        <time>2024-08-27T09:57:01Z</time>
      </trkpt>
      <trkpt lat="46.41988" lon="4.70123">
        <ele>510</ele>
        <time>2024-08-27T09:57:02Z</time>
      </trkpt>
      <trkpt lat="46.41991" lon="4.70128">
        <ele>509</ele>
        <time>2024-08-27T09:57:03Z</time>
      </trkpt>
      <trkpt lat="46.41995" lon="4.70133">
        <ele>509</ele>
        <time>2024-08-27T09:57:04Z</time>
      </trkpt>
      <trkpt lat="46.42086" lon="4.70116">
        <ele>509</ele>
        <time>2024-08-27T09:57:20Z</time>
      </trkpt>
      <trkpt lat="46.42101" lon="4.70103">
        <ele>512</ele>
        <time>2024-08-27T09:57:24Z</time>
      </trkpt>
      <trkpt lat="46.42153" lon="4.70045">
        <ele>516</ele>
        <time>2024-08-27T09:57:35Z</time>
      </trkpt>
      <trkpt lat="46.42187" lon="4.70012">
        <ele>516</ele>
        <time>2024-08-27T09:57:42Z</time>
      </trkpt>
      <trkpt lat="46.42211" lon="4.69997">
        <ele>517</ele>
        <time>2024-08-27T09:57:47Z</time>
      </trkpt>
      <trkpt lat="46.42236" lon="4.69991">
        <ele>518</ele>
        <time>2024-08-27T09:57:52Z</time>
      </trkpt>
      <trkpt lat="46.42289" lon="4.69996">
        <ele>519</ele>
        <time>2024-08-27T09:58:01Z</time>
      </trkpt>
      <trkpt lat="46.42321" lon="4.69994">
        <ele>517</ele>
        <time>2024-08-27T09:58:07Z</time>
      </trkpt>
      <trkpt lat="46.42347" lon="4.6999">
        <ele>516</ele>
        <time>2024-08-27T09:58:11Z</time>
      </trkpt>
      <trkpt lat="46.42416" lon="4.6996">
        <ele>510</ele>
        <time>2024-08-27T09:58:24Z</time>
      </trkpt>
      <trkpt lat="46.42455" lon="4.69955">
        <ele>508</ele>
        <time>2024-08-27T09:58:31Z</time>
      </trkpt>
      <trkpt lat="46.42504" lon="4.69959">
        <ele>507</ele>
        <time>2024-08-27T09:58:40Z</time>
      </trkpt>
      <trkpt lat="46.42544" lon="4.69969">
        <ele>507</ele>
        <time>2024-08-27T09:58:47Z</time>
      </trkpt>
      <trkpt lat="46.42561" lon="4.69974">
        <ele>507</ele>
        <time>2024-08-27T09:58:50Z</time>
      </trkpt>
      <trkpt lat="46.426" lon="4.69992">
        <ele>507</ele>
        <time>2024-08-27T09:58:58Z</time>
      </trkpt>
      <trkpt lat="46.42616" lon="4.70003">
        <ele>507</ele>
        <time>2024-08-27T09:59:01Z</time>
      </trkpt>
      <trkpt lat="46.42641" lon="4.70028">
        <ele>507</ele>
        <time>2024-08-27T09:59:06Z</time>
      </trkpt>
      <trkpt lat="46.42656" lon="4.70044">
        <ele>507</ele>
        <time>2024-08-27T09:59:09Z</time>
      </trkpt>
      <trkpt lat="46.42674" lon="4.7007">
        <ele>505</ele>
        <time>2024-08-27T09:59:14Z</time>
      </trkpt>
      <trkpt lat="46.42676" lon="4.70087">
        <ele>506</ele>
        <time>2024-08-27T09:59:16Z</time>
      </trkpt>
      <trkpt lat="46.42719" lon="4.70163">
        <ele>508</ele>
        <time>2024-08-27T09:59:28Z</time>
      </trkpt>
      <trkpt lat="46.42737" lon="4.7019">
        <ele>509</ele>
        <time>2024-08-27T09:59:33Z</time>
      </trkpt>
      <trkpt lat="46.42759" lon="4.70216">
        <ele>509</ele>
        <time>2024-08-27T09:59:38Z</time>
      </trkpt>
      <trkpt lat="46.42832" lon="4.70276">
        <ele>506</ele>
        <time>2024-08-27T09:59:53Z</time>
      </trkpt>
      <trkpt lat="46.42921" lon="4.70359">
        <ele>507</ele>
        <time>2024-08-27T10:00:12Z</time>
      </trkpt>
      <trkpt lat="46.42931" lon="4.70375">
        <ele>507</ele>
        <time>2024-08-27T10:00:14Z</time>
      </trkpt>
      <trkpt lat="46.42941" lon="4.70399">
        <ele>507</ele>
        <time>2024-08-27T10:00:18Z</time>
      </trkpt>
      <trkpt lat="46.42947" lon="4.70427">
        <ele>507</ele>
        <time>2024-08-27T10:00:21Z</time>
      </trkpt>
      <trkpt lat="46.42947" lon="4.70455">
        <ele>505</ele>
        <time>2024-08-27T10:00:25Z</time>
      </trkpt>
      <trkpt lat="46.42939" lon="4.70473">
        <ele>505</ele>
        <time>2024-08-27T10:00:27Z</time>
      </trkpt>
      <trkpt lat="46.42929" lon="4.70489">
        <ele>507</ele>
        <time>2024-08-27T10:00:30Z</time>
      </trkpt>
      <trkpt lat="46.4291" lon="4.70514">
        <ele>509</ele>
        <time>2024-08-27T10:00:34Z</time>
      </trkpt>
      <trkpt lat="46.42885" lon="4.7054">
        <ele>511</ele>
        <time>2024-08-27T10:00:40Z</time>
      </trkpt>
      <trkpt lat="46.42876" lon="4.70549">
        <ele>512</ele>
        <time>2024-08-27T10:00:42Z</time>
      </trkpt>
      <trkpt lat="46.42823" lon="4.70584">
        <ele>520</ele>
        <time>2024-08-27T10:00:52Z</time>
      </trkpt>
      <trkpt lat="46.42808" lon="4.706">
        <ele>519</ele>
        <time>2024-08-27T10:00:56Z</time>
      </trkpt>
      <trkpt lat="46.42796" lon="4.7062">
        <ele>517</ele>
        <time>2024-08-27T10:00:59Z</time>
      </trkpt>
      <trkpt lat="46.42785" lon="4.70665">
        <ele>508</ele>
        <time>2024-08-27T10:01:05Z</time>
      </trkpt>
      <trkpt lat="46.42783" lon="4.70668">
        <ele>508</ele>
        <time>2024-08-27T10:01:05Z</time>
      </trkpt>
      <trkpt lat="46.42762" lon="4.70695">
        <ele>508</ele>
        <time>2024-08-27T10:01:10Z</time>
      </trkpt>
      <trkpt lat="46.42755" lon="4.70708">
        <ele>509</ele>
        <time>2024-08-27T10:01:12Z</time>
      </trkpt>
      <trkpt lat="46.42729" lon="4.70767">
        <ele>509</ele>
        <time>2024-08-27T10:01:21Z</time>
      </trkpt>
      <trkpt lat="46.42725" lon="4.70781">
        <ele>510</ele>
        <time>2024-08-27T10:01:23Z</time>
      </trkpt>
      <trkpt lat="46.42722" lon="4.70823">
        <ele>512</ele>
        <time>2024-08-27T10:01:28Z</time>
      </trkpt>
      <trkpt lat="46.42718" lon="4.70847">
        <ele>514</ele>
        <time>2024-08-27T10:01:31Z</time>
      </trkpt>
      <trkpt lat="46.42732" lon="4.70874">
        <ele>515</ele>
        <time>2024-08-27T10:01:35Z</time>
      </trkpt>
      <trkpt lat="46.42741" lon="4.70885">
        <ele>515</ele>
        <time>2024-08-27T10:01:37Z</time>
      </trkpt>
      <trkpt lat="46.4285" lon="4.7101">
        <ele>512</ele>
        <time>2024-08-27T10:02:02Z</time>
      </trkpt>
      <trkpt lat="46.42867" lon="4.71036">
        <ele>512</ele>
        <time>2024-08-27T10:02:06Z</time>
      </trkpt>
      <trkpt lat="46.42881" lon="4.71063">
        <ele>512</ele>
        <time>2024-08-27T10:02:10Z</time>
      </trkpt>
      <trkpt lat="46.42886" lon="4.71075">
        <ele>513</ele>
        <time>2024-08-27T10:02:12Z</time>
      </trkpt>
      <trkpt lat="46.42889" lon="4.71098">
        <ele>513</ele>
        <time>2024-08-27T10:02:15Z</time>
      </trkpt>
      <trkpt lat="46.42888" lon="4.71114">
        <ele>513</ele>
        <time>2024-08-27T10:02:17Z</time>
      </trkpt>
      <trkpt lat="46.42882" lon="4.71154">
        <ele>514</ele>
        <time>2024-08-27T10:02:22Z</time>
      </trkpt>
      <trkpt lat="46.42872" lon="4.71192">
        <ele>515</ele>
        <time>2024-08-27T10:02:27Z</time>
      </trkpt>
      <trkpt lat="46.42864" lon="4.7121">
        <ele>516</ele>
        <time>2024-08-27T10:02:30Z</time>
      </trkpt>
      <trkpt lat="46.42846" lon="4.71241">
        <ele>516</ele>
        <time>2024-08-27T10:02:35Z</time>
      </trkpt>
      <trkpt lat="46.42844" lon="4.71252">
        <ele>516</ele>
        <time>2024-08-27T10:02:36Z</time>
      </trkpt>
      <trkpt lat="46.42845" lon="4.7128">
        <ele>517</ele>
        <time>2024-08-27T10:02:39Z</time>
      </trkpt>
      <trkpt lat="46.42851" lon="4.71317">
        <ele>517</ele>
        <time>2024-08-27T10:02:44Z</time>
      </trkpt>
      <trkpt lat="46.42866" lon="4.71445">
        <ele>522</ele>
        <time>2024-08-27T10:03:00Z</time>
      </trkpt>
      <trkpt lat="46.42863" lon="4.7151">
        <ele>527</ele>
        <time>2024-08-27T10:03:08Z</time>
      </trkpt>
      <trkpt lat="46.42867" lon="4.71537">
        <ele>528</ele>
        <time>2024-08-27T10:03:11Z</time>
      </trkpt>
      <trkpt lat="46.42873" lon="4.71556">
        <ele>528</ele>
        <time>2024-08-27T10:03:14Z</time>
      </trkpt>
      <trkpt lat="46.42886" lon="4.71579">
        <ele>528</ele>
        <time>2024-08-27T10:03:18Z</time>
      </trkpt>
      <trkpt lat="46.42916" lon="4.71612">
        <ele>525</ele>
        <time>2024-08-27T10:03:24Z</time>
      </trkpt>
      <trkpt lat="46.42943" lon="4.71608">
        <ele>524</ele>
        <time>2024-08-27T10:03:29Z</time>
      </trkpt>
      <trkpt lat="46.42972" lon="4.71646">
        <ele>525</ele>
        <time>2024-08-27T10:03:36Z</time>
      </trkpt>
      <trkpt lat="46.43091" lon="4.71655">
        <ele>522</ele>
        <time>2024-08-27T10:03:57Z</time>
      </trkpt>
      <trkpt lat="46.43156" lon="4.71687">
        <ele>523</ele>
        <time>2024-08-27T10:04:09Z</time>
      </trkpt>
      <trkpt lat="46.43192" lon="4.71724">
        <ele>524</ele>
        <time>2024-08-27T10:04:17Z</time>
      </trkpt>
      <trkpt lat="46.43246" lon="4.71683">
        <ele>521</ele>
        <time>2024-08-27T10:04:28Z</time>
      </trkpt>
      <trkpt lat="46.43343" lon="4.7162">
        <ele>517</ele>
        <time>2024-08-27T10:04:47Z</time>
      </trkpt>
      <trkpt lat="46.43432" lon="4.71538">
        <ele>520</ele>
        <time>2024-08-27T10:05:06Z</time>
      </trkpt>
      <trkpt lat="46.43482" lon="4.71495">
        <ele>520</ele>
        <time>2024-08-27T10:05:16Z</time>
      </trkpt>
      <trkpt lat="46.43515" lon="4.71467">
        <ele>519</ele>
        <time>2024-08-27T10:05:23Z</time>
      </trkpt>
      <trkpt lat="46.43589" lon="4.7141">
        <ele>514</ele>
        <time>2024-08-27T10:05:38Z</time>
      </trkpt>
      <trkpt lat="46.43643" lon="4.71376">
        <ele>516</ele>
        <time>2024-08-27T10:05:48Z</time>
      </trkpt>
      <trkpt lat="46.43676" lon="4.71355">
        <ele>519</ele>
        <time>2024-08-27T10:05:55Z</time>
      </trkpt>
      <trkpt lat="46.43715" lon="4.71336">
        <ele>523</ele>
        <time>2024-08-27T10:06:02Z</time>
      </trkpt>
      <trkpt lat="46.43777" lon="4.71318">
        <ele>530</ele>
        <time>2024-08-27T10:06:13Z</time>
      </trkpt>
      <trkpt lat="46.43838" lon="4.71324">
        <ele>538</ele>
        <time>2024-08-27T10:06:24Z</time>
      </trkpt>
      <trkpt lat="46.43969" lon="4.71272">
        <ele>537</ele>
        <time>2024-08-27T10:06:48Z</time>
      </trkpt>
      <trkpt lat="46.44044" lon="4.71235">
        <ele>531</ele>
        <time>2024-08-27T10:07:02Z</time>
      </trkpt>
      <trkpt lat="46.4407" lon="4.71235">
        <ele>530</ele>
        <time>2024-08-27T10:07:07Z</time>
      </trkpt>
      <trkpt lat="46.44113" lon="4.71239">
        <ele>526</ele>
        <time>2024-08-27T10:07:15Z</time>
      </trkpt>
      <trkpt lat="46.4415" lon="4.71258">
        <ele>523</ele>
        <time>2024-08-27T10:07:22Z</time>
      </trkpt>
      <trkpt lat="46.44201" lon="4.71303">
        <ele>517</ele>
        <time>2024-08-27T10:07:32Z</time>
      </trkpt>
      <trkpt lat="46.44249" lon="4.71337">
        <ele>507</ele>
        <time>2024-08-27T10:07:42Z</time>
      </trkpt>
      <trkpt lat="46.44261" lon="4.71343">
        <ele>504</ele>
        <time>2024-08-27T10:07:44Z</time>
      </trkpt>
      <trkpt lat="46.44289" lon="4.71356">
        <ele>498</ele>
        <time>2024-08-27T10:07:49Z</time>
      </trkpt>
      <trkpt lat="46.44344" lon="4.71401">
        <ele>490</ele>
        <time>2024-08-27T10:08:01Z</time>
      </trkpt>
      <trkpt lat="46.44354" lon="4.71395">
        <ele>490</ele>
        <time>2024-08-27T10:08:02Z</time>
      </trkpt>
      <trkpt lat="46.44372" lon="4.71433">
        <ele>489</ele>
        <time>2024-08-27T10:08:08Z</time>
      </trkpt>
      <trkpt lat="46.4438" lon="4.71428">
        <ele>489</ele>
        <time>2024-08-27T10:08:10Z</time>
      </trkpt>
      <trkpt lat="46.4439" lon="4.71426">
        <ele>489</ele>
        <time>2024-08-27T10:08:11Z</time>
      </trkpt>
      <trkpt lat="46.44402" lon="4.71434">
        <ele>488</ele>
        <time>2024-08-27T10:08:14Z</time>
      </trkpt>
      <trkpt lat="46.44432" lon="4.71462">
        <ele>488</ele>
        <time>2024-08-27T10:08:20Z</time>
      </trkpt>
      <trkpt lat="46.44476" lon="4.71521">
        <ele>488</ele>
        <time>2024-08-27T10:08:31Z</time>
      </trkpt>
      <trkpt lat="46.44514" lon="4.71535">
        <ele>489</ele>
        <time>2024-08-27T10:08:38Z</time>
      </trkpt>
      <trkpt lat="46.44531" lon="4.71544">
        <ele>488</ele>
        <time>2024-08-27T10:08:41Z</time>
      </trkpt>
      <trkpt lat="46.44533" lon="4.71533">
        <ele>489</ele>
        <time>2024-08-27T10:08:42Z</time>
      </trkpt>
      <trkpt lat="46.4453" lon="4.71522">
        <ele>490</ele>
        <time>2024-08-27T10:08:44Z</time>
      </trkpt>
      <trkpt lat="46.44519" lon="4.71512">
        <ele>490</ele>
        <time>2024-08-27T10:08:46Z</time>
      </trkpt>
      <trkpt lat="46.4452" lon="4.71482">
        <ele>492</ele>
        <time>2024-08-27T10:08:50Z</time>
      </trkpt>
      <trkpt lat="46.44523" lon="4.71471">
        <ele>493</ele>
        <time>2024-08-27T10:08:51Z</time>
      </trkpt>
      <trkpt lat="46.44533" lon="4.71437">
        <ele>496</ele>
        <time>2024-08-27T10:08:56Z</time>
      </trkpt>
      <trkpt lat="46.44547" lon="4.71399">
        <ele>498</ele>
        <time>2024-08-27T10:09:01Z</time>
      </trkpt>
      <trkpt lat="46.44554" lon="4.71393">
        <ele>498</ele>
        <time>2024-08-27T10:09:03Z</time>
      </trkpt>
      <trkpt lat="46.44592" lon="4.71404">
        <ele>497</ele>
        <time>2024-08-27T10:09:09Z</time>
      </trkpt>
      <trkpt lat="46.44602" lon="4.71404">
        <ele>497</ele>
        <time>2024-08-27T10:09:11Z</time>
      </trkpt>
      <trkpt lat="46.44621" lon="4.71395">
        <ele>496</ele>
        <time>2024-08-27T10:09:15Z</time>
      </trkpt>
      <trkpt lat="46.44646" lon="4.71394">
        <ele>494</ele>
        <time>2024-08-27T10:09:19Z</time>
      </trkpt>
      <trkpt lat="46.44669" lon="4.71388">
        <ele>492</ele>
        <time>2024-08-27T10:09:23Z</time>
      </trkpt>
      <trkpt lat="46.44688" lon="4.71378">
        <ele>491</ele>
        <time>2024-08-27T10:09:27Z</time>
      </trkpt>
      <trkpt lat="46.44703" lon="4.71367">
        <ele>490</ele>
        <time>2024-08-27T10:09:30Z</time>
      </trkpt>
      <trkpt lat="46.44708" lon="4.71367">
        <ele>490</ele>
        <time>2024-08-27T10:09:31Z</time>
      </trkpt>
      <trkpt lat="46.44741" lon="4.71404">
        <ele>489</ele>
        <time>2024-08-27T10:09:38Z</time>
      </trkpt>
      <trkpt lat="46.44752" lon="4.71409">
        <ele>489</ele>
        <time>2024-08-27T10:09:40Z</time>
      </trkpt>
      <trkpt lat="46.44772" lon="4.71411">
        <ele>489</ele>
        <time>2024-08-27T10:09:44Z</time>
      </trkpt>
      <trkpt lat="46.44791" lon="4.71417">
        <ele>489</ele>
        <time>2024-08-27T10:09:47Z</time>
      </trkpt>
      <trkpt lat="46.44843" lon="4.71418">
        <ele>490</ele>
        <time>2024-08-27T10:09:57Z</time>
      </trkpt>
      <trkpt lat="46.44854" lon="4.71418">
        <ele>490</ele>
        <time>2024-08-27T10:09:59Z</time>
      </trkpt>
      <trkpt lat="46.44871" lon="4.71424">
        <ele>490</ele>
        <time>2024-08-27T10:10:02Z</time>
      </trkpt>
      <trkpt lat="46.44884" lon="4.71444">
        <ele>490</ele>
        <time>2024-08-27T10:10:05Z</time>
      </trkpt>
      <trkpt lat="46.44907" lon="4.71468">
        <ele>491</ele>
        <time>2024-08-27T10:10:10Z</time>
      </trkpt>
      <trkpt lat="46.44917" lon="4.71473">
        <ele>492</ele>
        <time>2024-08-27T10:10:12Z</time>
      </trkpt>
      <trkpt lat="46.44926" lon="4.71473">
        <ele>492</ele>
        <time>2024-08-27T10:10:14Z</time>
      </trkpt>
      <trkpt lat="46.44971" lon="4.71462">
        <ele>488</ele>
        <time>2024-08-27T10:10:22Z</time>
      </trkpt>
      <trkpt lat="46.44982" lon="4.71465">
        <ele>488</ele>
        <time>2024-08-27T10:10:24Z</time>
      </trkpt>
      <trkpt lat="46.45003" lon="4.71474">
        <ele>488</ele>
        <time>2024-08-27T10:10:28Z</time>
      </trkpt>
      <trkpt lat="46.45022" lon="4.71488">
        <ele>488</ele>
        <time>2024-08-27T10:10:31Z</time>
      </trkpt>
      <trkpt lat="46.45035" lon="4.715">
        <ele>488</ele>
        <time>2024-08-27T10:10:34Z</time>
      </trkpt>
      <trkpt lat="46.45054" lon="4.71511">
        <ele>485</ele>
        <time>2024-08-27T10:10:38Z</time>
      </trkpt>
      <trkpt lat="46.45145" lon="4.71542">
        <ele>478</ele>
        <time>2024-08-27T10:10:54Z</time>
      </trkpt>
      <trkpt lat="46.4516" lon="4.71549">
        <ele>477</ele>
        <time>2024-08-27T10:10:57Z</time>
      </trkpt>
      <trkpt lat="46.45175" lon="4.7155">
        <ele>477</ele>
        <time>2024-08-27T10:11:00Z</time>
      </trkpt>
      <trkpt lat="46.45188" lon="4.71563">
        <ele>477</ele>
        <time>2024-08-27T10:11:03Z</time>
      </trkpt>
      <trkpt lat="46.45228" lon="4.71584">
        <ele>479</ele>
        <time>2024-08-27T10:11:10Z</time>
      </trkpt>
      <trkpt lat="46.45256" lon="4.71596">
        <ele>478</ele>
        <time>2024-08-27T10:11:15Z</time>
      </trkpt>
      <trkpt lat="46.45276" lon="4.716">
        <ele>478</ele>
        <time>2024-08-27T10:11:19Z</time>
      </trkpt>
      <trkpt lat="46.45289" lon="4.716">
        <ele>477</ele>
        <time>2024-08-27T10:11:21Z</time>
      </trkpt>
      <trkpt lat="46.45307" lon="4.7159">
        <ele>477</ele>
        <time>2024-08-27T10:11:25Z</time>
      </trkpt>
      <trkpt lat="46.45338" lon="4.71583">
        <ele>477</ele>
        <time>2024-08-27T10:11:30Z</time>
      </trkpt>
      <trkpt lat="46.45392" lon="4.71576">
        <ele>477</ele>
        <time>2024-08-27T10:11:40Z</time>
      </trkpt>
      <trkpt lat="46.45414" lon="4.71614">
        <ele>477</ele>
        <time>2024-08-27T10:11:46Z</time>
      </trkpt>
      <trkpt lat="46.45447" lon="4.71661">
        <ele>475</ele>
        <time>2024-08-27T10:11:54Z</time>
      </trkpt>
      <trkpt lat="46.45464" lon="4.71685">
        <ele>473</ele>
        <time>2024-08-27T10:11:59Z</time>
      </trkpt>
      <trkpt lat="46.45556" lon="4.71822">
        <ele>455</ele>
        <time>2024-08-27T10:12:22Z</time>
      </trkpt>
      <trkpt lat="46.45579" lon="4.7178">
        <ele>458</ele>
        <time>2024-08-27T10:12:29Z</time>
      </trkpt>
      <trkpt lat="46.45595" lon="4.71765">
        <ele>460</ele>
        <time>2024-08-27T10:12:32Z</time>
      </trkpt>
      <trkpt lat="46.45601" lon="4.71761">
        <ele>460</ele>
        <time>2024-08-27T10:12:33Z</time>
      </trkpt>
      <trkpt lat="46.45617" lon="4.71753">
        <ele>461</ele>
        <time>2024-08-27T10:12:36Z</time>
      </trkpt>
      <trkpt lat="46.4566" lon="4.71742">
        <ele>463</ele>
        <time>2024-08-27T10:12:44Z</time>
      </trkpt>
      <trkpt lat="46.45667" lon="4.71736">
        <ele>464</ele>
        <time>2024-08-27T10:12:45Z</time>
      </trkpt>
      <trkpt lat="46.45677" lon="4.71735">
        <ele>464</ele>
        <time>2024-08-27T10:12:47Z</time>
      </trkpt>
      <trkpt lat="46.4568" lon="4.71732">
        <ele>464</ele>
        <time>2024-08-27T10:12:48Z</time>
      </trkpt>
      <trkpt lat="46.45691" lon="4.71704">
        <ele>464</ele>
        <time>2024-08-27T10:12:52Z</time>
      </trkpt>
      <trkpt lat="46.45697" lon="4.71701">
        <ele>464</ele>
        <time>2024-08-27T10:12:53Z</time>
      </trkpt>
      <trkpt lat="46.45705" lon="4.71704">
        <ele>464</ele>
        <time>2024-08-27T10:12:54Z</time>
      </trkpt>
      <trkpt lat="46.45725" lon="4.71719">
        <ele>464</ele>
        <time>2024-08-27T10:12:58Z</time>
      </trkpt>
      <trkpt lat="46.45748" lon="4.71736">
        <ele>466</ele>
        <time>2024-08-27T10:13:03Z</time>
      </trkpt>
      <trkpt lat="46.45768" lon="4.71733">
        <ele>465</ele>
        <time>2024-08-27T10:13:07Z</time>
      </trkpt>
      <trkpt lat="46.45803" lon="4.71721">
        <ele>463</ele>
        <time>2024-08-27T10:13:13Z</time>
      </trkpt>
      <trkpt lat="46.45858" lon="4.71744">
        <ele>467</ele>
        <time>2024-08-27T10:13:23Z</time>
      </trkpt>
      <trkpt lat="46.45982" lon="4.71744">
        <ele>465</ele>
        <time>2024-08-27T10:13:45Z</time>
      </trkpt>
      <trkpt lat="46.46042" lon="4.71738">
        <ele>463</ele>
        <time>2024-08-27T10:13:56Z</time>
      </trkpt>
      <trkpt lat="46.46061" lon="4.71745">
        <ele>465</ele>
        <time>2024-08-27T10:13:59Z</time>
      </trkpt>
      <trkpt lat="46.4607" lon="4.71746">
        <ele>465</ele>
        <time>2024-08-27T10:14:01Z</time>
      </trkpt>
      <trkpt lat="46.4609" lon="4.71741">
        <ele>463</ele>
        <time>2024-08-27T10:14:05Z</time>
      </trkpt>
      <trkpt lat="46.46094" lon="4.71752">
        <ele>466</ele>
        <time>2024-08-27T10:14:06Z</time>
      </trkpt>
      <trkpt lat="46.46092" lon="4.71767">
        <ele>466</ele>
        <time>2024-08-27T10:14:08Z</time>
      </trkpt>
      <trkpt lat="46.46094" lon="4.7178">
        <ele>467</ele>
        <time>2024-08-27T10:14:10Z</time>
      </trkpt>
      <trkpt lat="46.46107" lon="4.71798">
        <ele>467</ele>
        <time>2024-08-27T10:14:13Z</time>
      </trkpt>
      <trkpt lat="46.46132" lon="4.71823">
        <ele>468</ele>
        <time>2024-08-27T10:14:18Z</time>
      </trkpt>
      <trkpt lat="46.46153" lon="4.71871">
        <ele>469</ele>
        <time>2024-08-27T10:14:25Z</time>
      </trkpt>
      <trkpt lat="46.46153" lon="4.7188">
        <ele>469</ele>
        <time>2024-08-27T10:14:26Z</time>
      </trkpt>
      <trkpt lat="46.46147" lon="4.71893">
        <ele>469</ele>
        <time>2024-08-27T10:14:28Z</time>
      </trkpt>
      <trkpt lat="46.46146" lon="4.71901">
        <ele>469</ele>
        <time>2024-08-27T10:14:29Z</time>
      </trkpt>
      <trkpt lat="46.46146" lon="4.71911">
        <ele>469</ele>
        <time>2024-08-27T10:14:30Z</time>
      </trkpt>
      <trkpt lat="46.46147" lon="4.71916">
        <ele>469</ele>
        <time>2024-08-27T10:14:31Z</time>
      </trkpt>
      <trkpt lat="46.46151" lon="4.71931">
        <ele>470</ele>
        <time>2024-08-27T10:14:33Z</time>
      </trkpt>
      <trkpt lat="46.4616" lon="4.71965">
        <ele>471</ele>
        <time>2024-08-27T10:14:37Z</time>
      </trkpt>
      <trkpt lat="46.46166" lon="4.72007">
        <ele>473</ele>
        <time>2024-08-27T10:14:43Z</time>
      </trkpt>
      <trkpt lat="46.46182" lon="4.72053">
        <ele>475</ele>
        <time>2024-08-27T10:14:49Z</time>
      </trkpt>
      <trkpt lat="46.4624" lon="4.72197">
        <ele>477</ele>
        <time>2024-08-27T10:15:09Z</time>
      </trkpt>
      <trkpt lat="46.4625" lon="4.7225">
        <ele>474</ele>
        <time>2024-08-27T10:15:16Z</time>
      </trkpt>
      <trkpt lat="46.46251" lon="4.72269">
        <ele>473</ele>
        <time>2024-08-27T10:15:19Z</time>
      </trkpt>
      <trkpt lat="46.4626" lon="4.7232">
        <ele>472</ele>
        <time>2024-08-27T10:15:25Z</time>
      </trkpt>
      <trkpt lat="46.4626" lon="4.7234">
        <ele>471</ele>
        <time>2024-08-27T10:15:27Z</time>
      </trkpt>
      <trkpt lat="46.46252" lon="4.72394">
        <ele>469</ele>
        <time>2024-08-27T10:15:34Z</time>
      </trkpt>
      <trkpt lat="46.46231" lon="4.7243">
        <ele>468</ele>
        <time>2024-08-27T10:15:40Z</time>
      </trkpt>
      <trkpt lat="46.46227" lon="4.72443">
        <ele>468</ele>
        <time>2024-08-27T10:15:42Z</time>
      </trkpt>
      <trkpt lat="46.46219" lon="4.72485">
        <ele>469</ele>
        <time>2024-08-27T10:15:47Z</time>
      </trkpt>
      <trkpt lat="46.46221" lon="4.72527">
        <ele>468</ele>
        <time>2024-08-27T10:15:52Z</time>
      </trkpt>
      <trkpt lat="46.46233" lon="4.72578">
        <ele>468</ele>
        <time>2024-08-27T10:15:59Z</time>
      </trkpt>
      <trkpt lat="46.46255" lon="4.7264">
        <ele>465</ele>
        <time>2024-08-27T10:16:07Z</time>
      </trkpt>
      <trkpt lat="46.46253" lon="4.72679">
        <ele>462</ele>
        <time>2024-08-27T10:16:12Z</time>
      </trkpt>
      <trkpt lat="46.46234" lon="4.72764">
        <ele>455</ele>
        <time>2024-08-27T10:16:23Z</time>
      </trkpt>
      <trkpt lat="46.4621" lon="4.72822">
        <ele>453</ele>
        <time>2024-08-27T10:16:31Z</time>
      </trkpt>
      <trkpt lat="46.46191" lon="4.72882">
        <ele>452</ele>
        <time>2024-08-27T10:16:40Z</time>
      </trkpt>
      <trkpt lat="46.46184" lon="4.72916">
        <ele>452</ele>
        <time>2024-08-27T10:16:44Z</time>
      </trkpt>
      <trkpt lat="46.46184" lon="4.72953">
        <ele>452</ele>
        <time>2024-08-27T10:16:48Z</time>
      </trkpt>
      <trkpt lat="46.46182" lon="4.72969">
        <ele>452</ele>
        <time>2024-08-27T10:16:50Z</time>
      </trkpt>
      <trkpt lat="46.46182" lon="4.72978">
        <ele>452</ele>
        <time>2024-08-27T10:16:52Z</time>
      </trkpt>
      <trkpt lat="46.46175" lon="4.73016">
        <ele>452</ele>
        <time>2024-08-27T10:16:56Z</time>
      </trkpt>
      <trkpt lat="46.46169" lon="4.73035">
        <ele>452</ele>
        <time>2024-08-27T10:16:59Z</time>
      </trkpt>
      <trkpt lat="46.46162" lon="4.73051">
        <ele>451</ele>
        <time>2024-08-27T10:17:01Z</time>
      </trkpt>
      <trkpt lat="46.46127" lon="4.73122">
        <ele>449</ele>
        <time>2024-08-27T10:17:12Z</time>
      </trkpt>
      <trkpt lat="46.46133" lon="4.7313">
        <ele>448</ele>
        <time>2024-08-27T10:17:13Z</time>
      </trkpt>
      <trkpt lat="46.46136" lon="4.7316">
        <ele>448</ele>
        <time>2024-08-27T10:17:17Z</time>
      </trkpt>
      <trkpt lat="46.46145" lon="4.73183">
        <ele>448</ele>
        <time>2024-08-27T10:17:20Z</time>
      </trkpt>
      <trkpt lat="46.46168" lon="4.73224">
        <ele>450</ele>
        <time>2024-08-27T10:17:27Z</time>
      </trkpt>
      <trkpt lat="46.46192" lon="4.7327">
        <ele>451</ele>
        <time>2024-08-27T10:17:34Z</time>
      </trkpt>
      <trkpt lat="46.46235" lon="4.7333">
        <ele>453</ele>
        <time>2024-08-27T10:17:45Z</time>
      </trkpt>
      <trkpt lat="46.46246" lon="4.73351">
        <ele>454</ele>
        <time>2024-08-27T10:17:48Z</time>
      </trkpt>
      <trkpt lat="46.46253" lon="4.73359">
        <ele>454</ele>
        <time>2024-08-27T10:17:49Z</time>
      </trkpt>
      <trkpt lat="46.46305" lon="4.73416">
        <ele>457</ele>
        <time>2024-08-27T10:18:01Z</time>
      </trkpt>
      <trkpt lat="46.46344" lon="4.73449">
        <ele>456</ele>
        <time>2024-08-27T10:18:09Z</time>
      </trkpt>
      <trkpt lat="46.464" lon="4.73492">
        <ele>452</ele>
        <time>2024-08-27T10:18:20Z</time>
      </trkpt>
      <trkpt lat="46.46442" lon="4.73538">
        <ele>449</ele>
        <time>2024-08-27T10:18:30Z</time>
      </trkpt>
      <trkpt lat="46.46459" lon="4.73561">
        <ele>447</ele>
        <time>2024-08-27T10:18:34Z</time>
      </trkpt>
      <trkpt lat="46.46467" lon="4.73576">
        <ele>446</ele>
        <time>2024-08-27T10:18:36Z</time>
      </trkpt>
      <trkpt lat="46.4647" lon="4.73587">
        <ele>446</ele>
        <time>2024-08-27T10:18:38Z</time>
      </trkpt>
      <trkpt lat="46.46474" lon="4.73592">
        <ele>445</ele>
        <time>2024-08-27T10:18:38Z</time>
      </trkpt>
      <trkpt lat="46.46476" lon="4.73607">
        <ele>445</ele>
        <time>2024-08-27T10:18:40Z</time>
      </trkpt>
      <trkpt lat="46.46474" lon="4.73623">
        <ele>445</ele>
        <time>2024-08-27T10:18:42Z</time>
      </trkpt>
      <trkpt lat="46.46462" lon="4.73672">
        <ele>447</ele>
        <time>2024-08-27T10:18:49Z</time>
      </trkpt>
      <trkpt lat="46.46462" lon="4.73687">
        <ele>447</ele>
        <time>2024-08-27T10:18:51Z</time>
      </trkpt>
      <trkpt lat="46.46463" lon="4.73697">
        <ele>447</ele>
        <time>2024-08-27T10:18:52Z</time>
      </trkpt>
      <trkpt lat="46.46473" lon="4.7372">
        <ele>446</ele>
        <time>2024-08-27T10:18:55Z</time>
      </trkpt>
      <trkpt lat="46.46498" lon="4.73749">
        <ele>442</ele>
        <time>2024-08-27T10:19:01Z</time>
      </trkpt>
      <trkpt lat="46.46585" lon="4.73831">
        <ele>432</ele>
        <time>2024-08-27T10:19:19Z</time>
      </trkpt>
      <trkpt lat="46.46675" lon="4.73901">
        <ele>432</ele>
        <time>2024-08-27T10:19:37Z</time>
      </trkpt>
      <trkpt lat="46.46709" lon="4.73919">
        <ele>429</ele>
        <time>2024-08-27T10:19:44Z</time>
      </trkpt>
      <trkpt lat="46.46742" lon="4.73947">
        <ele>426</ele>
        <time>2024-08-27T10:19:51Z</time>
      </trkpt>
      <trkpt lat="46.46763" lon="4.73977">
        <ele>425</ele>
        <time>2024-08-27T10:19:56Z</time>
      </trkpt>
      <trkpt lat="46.46776" lon="4.74003">
        <ele>426</ele>
        <time>2024-08-27T10:20:00Z</time>
      </trkpt>
      <trkpt lat="46.46775" lon="4.74024">
        <ele>429</ele>
        <time>2024-08-27T10:20:02Z</time>
      </trkpt>
      <trkpt lat="46.46783" lon="4.74061">
        <ele>432</ele>
        <time>2024-08-27T10:20:07Z</time>
      </trkpt>
      <trkpt lat="46.46868" lon="4.74082">
        <ele>429</ele>
        <time>2024-08-27T10:20:23Z</time>
      </trkpt>
      <trkpt lat="46.46895" lon="4.74105">
        <ele>432</ele>
        <time>2024-08-27T10:20:28Z</time>
      </trkpt>
      <trkpt lat="46.46971" lon="4.74345">
        <ele>449</ele>
        <time>2024-08-27T10:21:00Z</time>
      </trkpt>
      <trkpt lat="46.47046" lon="4.7454">
        <ele>457</ele>
        <time>2024-08-27T10:21:28Z</time>
      </trkpt>
      <trkpt lat="46.47075" lon="4.74603">
        <ele>462</ele>
        <time>2024-08-27T10:21:37Z</time>
      </trkpt>
      <trkpt lat="46.47105" lon="4.74641">
        <ele>466</ele>
        <time>2024-08-27T10:21:44Z</time>
      </trkpt>
      <trkpt lat="46.47168" lon="4.74702">
        <ele>470</ele>
        <time>2024-08-27T10:21:58Z</time>
      </trkpt>
      <trkpt lat="46.47187" lon="4.7474">
        <ele>474</ele>
        <time>2024-08-27T10:22:03Z</time>
      </trkpt>
      <trkpt lat="46.4717" lon="4.7479">
        <ele>479</ele>
        <time>2024-08-27T10:22:10Z</time>
      </trkpt>
      <trkpt lat="46.47167" lon="4.74808">
        <ele>481</ele>
        <time>2024-08-27T10:22:13Z</time>
      </trkpt>
      <trkpt lat="46.47166" lon="4.74812">
        <ele>481</ele>
        <time>2024-08-27T10:22:13Z</time>
      </trkpt>
      <trkpt lat="46.4719" lon="4.74866">
        <ele>485</ele>
        <time>2024-08-27T10:22:21Z</time>
      </trkpt>
      <trkpt lat="46.47202" lon="4.74925">
        <ele>490</ele>
        <time>2024-08-27T10:22:28Z</time>
      </trkpt>
      <trkpt lat="46.472" lon="4.74938">
        <ele>491</ele>
        <time>2024-08-27T10:22:30Z</time>
      </trkpt>
      <trkpt lat="46.47273" lon="4.74908">
        <ele>490</ele>
        <time>2024-08-27T10:22:44Z</time>
      </trkpt>
      <trkpt lat="46.47283" lon="4.74911">
        <ele>490</ele>
        <time>2024-08-27T10:22:45Z</time>
      </trkpt>
      <trkpt lat="46.47297" lon="4.74915">
        <ele>490</ele>
        <time>2024-08-27T10:22:48Z</time>
      </trkpt>
      <trkpt lat="46.47372" lon="4.74969">
        <ele>493</ele>
        <time>2024-08-27T10:23:03Z</time>
      </trkpt>
      <trkpt lat="46.47525" lon="4.75097">
        <ele>491</ele>
        <time>2024-08-27T10:23:34Z</time>
      </trkpt>
      <trkpt lat="46.47549" lon="4.75115">
        <ele>491</ele>
        <time>2024-08-27T10:23:39Z</time>
      </trkpt>
      <trkpt lat="46.47662" lon="4.75149">
        <ele>496</ele>
        <time>2024-08-27T10:24:00Z</time>
      </trkpt>
      <trkpt lat="46.47708" lon="4.75164">
        <ele>497</ele>
        <time>2024-08-27T10:24:08Z</time>
      </trkpt>
      <trkpt lat="46.47776" lon="4.75178">
        <ele>495</ele>
        <time>2024-08-27T10:24:20Z</time>
      </trkpt>
      <trkpt lat="46.47833" lon="4.75186">
        <ele>491</ele>
        <time>2024-08-27T10:24:30Z</time>
      </trkpt>
      <trkpt lat="46.47844" lon="4.75185">
        <ele>491</ele>
        <time>2024-08-27T10:24:32Z</time>
      </trkpt>
      <trkpt lat="46.4785" lon="4.75182">
        <ele>491</ele>
        <time>2024-08-27T10:24:33Z</time>
      </trkpt>
      <trkpt lat="46.47854" lon="4.75177">
        <ele>490</ele>
        <time>2024-08-27T10:24:34Z</time>
      </trkpt>
      <trkpt lat="46.47859" lon="4.75172">
        <ele>490</ele>
        <time>2024-08-27T10:24:35Z</time>
      </trkpt>
      <trkpt lat="46.4787" lon="4.75173">
        <ele>490</ele>
        <time>2024-08-27T10:24:37Z</time>
      </trkpt>
      <trkpt lat="46.47897" lon="4.75165">
        <ele>490</ele>
        <time>2024-08-27T10:24:42Z</time>
      </trkpt>
      <trkpt lat="46.47938" lon="4.75165">
        <ele>493</ele>
        <time>2024-08-27T10:24:50Z</time>
      </trkpt>
      <trkpt lat="46.4797" lon="4.75175">
        <ele>496</ele>
        <time>2024-08-27T10:24:55Z</time>
      </trkpt>
      <trkpt lat="46.48036" lon="4.75203">
        <ele>501</ele>
        <time>2024-08-27T10:25:08Z</time>
      </trkpt>
      <trkpt lat="46.48097" lon="4.75222">
        <ele>506</ele>
        <time>2024-08-27T10:25:19Z</time>
      </trkpt>
      <trkpt lat="46.48127" lon="4.75223">
        <ele>509</ele>
        <time>2024-08-27T10:25:24Z</time>
      </trkpt>
      <trkpt lat="46.48147" lon="4.75218">
        <ele>511</ele>
        <time>2024-08-27T10:25:28Z</time>
      </trkpt>
      <trkpt lat="46.48161" lon="4.75209">
        <ele>512</ele>
        <time>2024-08-27T10:25:30Z</time>
      </trkpt>
      <trkpt lat="46.48172" lon="4.75185">
        <ele>512</ele>
        <time>2024-08-27T10:25:34Z</time>
      </trkpt>
      <trkpt lat="46.48183" lon="4.75176">
        <ele>512</ele>
        <time>2024-08-27T10:25:36Z</time>
      </trkpt>
      <trkpt lat="46.48207" lon="4.75169">
        <ele>513</ele>
        <time>2024-08-27T10:25:41Z</time>
      </trkpt>
      <trkpt lat="46.48225" lon="4.75172">
        <ele>514</ele>
        <time>2024-08-27T10:25:44Z</time>
      </trkpt>
      <trkpt lat="46.48253" lon="4.75189">
        <ele>516</ele>
        <time>2024-08-27T10:25:49Z</time>
      </trkpt>
      <trkpt lat="46.48286" lon="4.75246">
        <ele>520</ele>
        <time>2024-08-27T10:25:58Z</time>
      </trkpt>
      <trkpt lat="46.48357" lon="4.75321">
        <ele>520</ele>
        <time>2024-08-27T10:26:14Z</time>
      </trkpt>
      <trkpt lat="46.4843" lon="4.75359">
        <ele>518</ele>
        <time>2024-08-27T10:26:28Z</time>
      </trkpt>
      <trkpt lat="46.48474" lon="4.75384">
        <ele>518</ele>
        <time>2024-08-27T10:26:36Z</time>
      </trkpt>
      <trkpt lat="46.48549" lon="4.7545">
        <ele>517</ele>
        <time>2024-08-27T10:26:52Z</time>
      </trkpt>
      <trkpt lat="46.486" lon="4.75482">
        <ele>519</ele>
        <time>2024-08-27T10:27:02Z</time>
      </trkpt>
      <trkpt lat="46.48698" lon="4.7551">
        <ele>524</ele>
        <time>2024-08-27T10:27:19Z</time>
      </trkpt>
      <trkpt lat="46.48801" lon="4.75545">
        <ele>531</ele>
        <time>2024-08-27T10:27:38Z</time>
      </trkpt>
      <trkpt lat="46.4892" lon="4.75601">
        <ele>536</ele>
        <time>2024-08-27T10:28:01Z</time>
      </trkpt>
      <trkpt lat="46.48932" lon="4.75606">
        <ele>535</ele>
        <time>2024-08-27T10:28:03Z</time>
      </trkpt>
      <trkpt lat="46.48978" lon="4.75643">
        <ele>535</ele>
        <time>2024-08-27T10:28:12Z</time>
      </trkpt>
      <trkpt lat="46.49023" lon="4.757">
        <ele>535</ele>
        <time>2024-08-27T10:28:23Z</time>
      </trkpt>
      <trkpt lat="46.49049" lon="4.75722">
        <ele>536</ele>
        <time>2024-08-27T10:28:28Z</time>
      </trkpt>
      <trkpt lat="46.49069" lon="4.75728">
        <ele>538</ele>
        <time>2024-08-27T10:28:32Z</time>
      </trkpt>
      <trkpt lat="46.49091" lon="4.75724">
        <ele>540</ele>
        <time>2024-08-27T10:28:36Z</time>
      </trkpt>
      <trkpt lat="46.49214" lon="4.75732">
        <ele>550</ele>
        <time>2024-08-27T10:28:58Z</time>
      </trkpt>
      <trkpt lat="46.49223" lon="4.75732">
        <ele>550</ele>
        <time>2024-08-27T10:28:59Z</time>
      </trkpt>
      <trkpt lat="46.49259" lon="4.75793">
        <ele>547</ele>
        <time>2024-08-27T10:29:09Z</time>
      </trkpt>
      <trkpt lat="46.49267" lon="4.75806">
        <ele>546</ele>
        <time>2024-08-27T10:29:11Z</time>
      </trkpt>
      <trkpt lat="46.49288" lon="4.75828">
        <ele>543</ele>
        <time>2024-08-27T10:29:16Z</time>
      </trkpt>
      <trkpt lat="46.49345" lon="4.75866">
        <ele>535</ele>
        <time>2024-08-27T10:29:27Z</time>
      </trkpt>
      <trkpt lat="46.4935" lon="4.75872">
        <ele>535</ele>
        <time>2024-08-27T10:29:28Z</time>
      </trkpt>
      <trkpt lat="46.49352" lon="4.75878">
        <ele>534</ele>
        <time>2024-08-27T10:29:29Z</time>
      </trkpt>
      <trkpt lat="46.49351" lon="4.7589">
        <ele>533</ele>
        <time>2024-08-27T10:29:30Z</time>
      </trkpt>
      <trkpt lat="46.49344" lon="4.75902">
        <ele>532</ele>
        <time>2024-08-27T10:29:32Z</time>
      </trkpt>
      <trkpt lat="46.49291" lon="4.7596">
        <ele>527</ele>
        <time>2024-08-27T10:29:44Z</time>
      </trkpt>
      <trkpt lat="46.49274" lon="4.75965">
        <ele>527</ele>
        <time>2024-08-27T10:29:47Z</time>
      </trkpt>
      <trkpt lat="46.49221" lon="4.75958">
        <ele>526</ele>
        <time>2024-08-27T10:29:57Z</time>
      </trkpt>
      <trkpt lat="46.49137" lon="4.75932">
        <ele>522</ele>
        <time>2024-08-27T10:30:12Z</time>
      </trkpt>
      <trkpt lat="46.49105" lon="4.75932">
        <ele>516</ele>
        <time>2024-08-27T10:30:18Z</time>
      </trkpt>
      <trkpt lat="46.49081" lon="4.75946">
        <ele>510</ele>
        <time>2024-08-27T10:30:22Z</time>
      </trkpt>
      <trkpt lat="46.49056" lon="4.75966">
        <ele>507</ele>
        <time>2024-08-27T10:30:27Z</time>
      </trkpt>
      <trkpt lat="46.49039" lon="4.75987">
        <ele>504</ele>
        <time>2024-08-27T10:30:31Z</time>
      </trkpt>
      <trkpt lat="46.48989" lon="4.76061">
        <ele>496</ele>
        <time>2024-08-27T10:30:44Z</time>
      </trkpt>
      <trkpt lat="46.4897" lon="4.7609">
        <ele>493</ele>
        <time>2024-08-27T10:30:49Z</time>
      </trkpt>
      <trkpt lat="46.48942" lon="4.76143">
        <ele>488</ele>
        <time>2024-08-27T10:30:57Z</time>
      </trkpt>
      <trkpt lat="46.4892" lon="4.76209">
        <ele>484</ele>
        <time>2024-08-27T10:31:06Z</time>
      </trkpt>
      <trkpt lat="46.48902" lon="4.76278">
        <ele>478</ele>
        <time>2024-08-27T10:31:15Z</time>
      </trkpt>
      <trkpt lat="46.48838" lon="4.76228">
        <ele>477.3</ele>
      </trkpt>
      <trkpt lat="46.48785" lon="4.76142">
        <ele>474.7</ele>
      </trkpt>
      <trkpt lat="46.48775" lon="4.76118">
        <ele>474.5</ele>
      </trkpt>
      <trkpt lat="46.48759" lon="4.76098">
        <ele>474</ele>
      </trkpt>
      <trkpt lat="46.48195" lon="4.75509">
        <ele>467.4</ele>
      </trkpt>
      <trkpt lat="46.48179" lon="4.75507">
        <ele>466.2</ele>
      </trkpt>
      <trkpt lat="46.4811" lon="4.75455">
        <ele>465.4</ele>
      </trkpt>
      <trkpt lat="46.4809" lon="4.75453">
        <ele>463.2</ele>
      </trkpt>
      <trkpt lat="46.48073" lon="4.7546">
        <ele>461.9</ele>
      </trkpt>
      <trkpt lat="46.48047" lon="4.75485">
        <ele>459.6</ele>
      </trkpt>
      <trkpt lat="46.48017" lon="4.75484">
        <ele>458.8</ele>
      </trkpt>
      <trkpt lat="46.48004" lon="4.75496">
        <ele>456.5</ele>
      </trkpt>
      <trkpt lat="46.47986" lon="4.75544">
        <ele>454.6</ele>
      </trkpt>
      <trkpt lat="46.47973" lon="4.75556">
        <ele>451.9</ele>
      </trkpt>
      <trkpt lat="46.47934" lon="4.75553">
        <ele>450</ele>
      </trkpt>
      <trkpt lat="46.47707" lon="4.75516">
        <ele>436.3</ele>
      </trkpt>
      <trkpt lat="46.47612" lon="4.75503">
        <ele>430.7</ele>
      </trkpt>
      <trkpt lat="46.47584" lon="4.75503">
        <ele>429.7</ele>
      </trkpt>
      <trkpt lat="46.47534" lon="4.75503">
        <ele>426.1</ele>
      </trkpt>
      <trkpt lat="46.47453" lon="4.7551">
        <ele>421.2</ele>
      </trkpt>
      <trkpt lat="46.47414" lon="4.75508">
        <ele>418.9</ele>
      </trkpt>
      <trkpt lat="46.47288" lon="4.75481">
        <ele>410.9</ele>
      </trkpt>
      <trkpt lat="46.47228" lon="4.75478">
        <ele>407.4</ele>
      </trkpt>
      <trkpt lat="46.47119" lon="4.75487">
        <ele>401.2</ele>
      </trkpt>
      <trkpt lat="46.47057" lon="4.75477">
        <ele>396.5</ele>
      </trkpt>
      <trkpt lat="46.46983" lon="4.75486">
        <ele>391.3</ele>
      </trkpt>
      <trkpt lat="46.46959" lon="4.75491">
        <ele>389.5</ele>
      </trkpt>
      <trkpt lat="46.46928" lon="4.75504">
        <ele>387.1</ele>
      </trkpt>
      <trkpt lat="46.46819" lon="4.75562">
        <ele>378.8</ele>
      </trkpt>
      <trkpt lat="46.46661" lon="4.7564">
        <ele>366.7</ele>
      </trkpt>
      <trkpt lat="46.46638" lon="4.75648">
        <ele>365</ele>
      </trkpt>
      <trkpt lat="46.46579" lon="4.75654">
        <ele>359.5</ele>
      </trkpt>
      <trkpt lat="46.4653" lon="4.75668">
        <ele>358.8</ele>
      </trkpt>
      <trkpt lat="46.46502" lon="4.75667">
        <ele>359</ele>
      </trkpt>
      <trkpt lat="46.46497" lon="4.75679">
        <ele>358.6</ele>
      </trkpt>
      <trkpt lat="46.4649" lon="4.75753">
        <ele>353.7</ele>
      </trkpt>
      <trkpt lat="46.46491" lon="4.75762">
        <ele>353</ele>
      </trkpt>
      <trkpt lat="46.46494" lon="4.75769">
        <ele>352.5</ele>
      </trkpt>
      <trkpt lat="46.46476" lon="4.75771">
        <ele>351.8</ele>
      </trkpt>
      <trkpt lat="46.4642" lon="4.75768">
        <ele>349.7</ele>
      </trkpt>
      <trkpt lat="46.46391" lon="4.75759">
        <ele>349.1</ele>
      </trkpt>
      <trkpt lat="46.46363" lon="4.75743">
        <ele>348.4</ele>
      </trkpt>
      <trkpt lat="46.46328" lon="4.75912">
        <ele>337.2</ele>
      </trkpt>
      <trkpt lat="46.46327" lon="4.75932">
        <ele>336.5</ele>
      </trkpt>
      <trkpt lat="46.46329" lon="4.75963">
        <ele>339.3</ele>
      </trkpt>
      <trkpt lat="46.46317" lon="4.75967">
        <ele>338.6</ele>
      </trkpt>
      <trkpt lat="46.46287" lon="4.7597">
        <ele>338.3</ele>
      </trkpt>
      <trkpt lat="46.46257" lon="4.75964">
        <ele>338</ele>
      </trkpt>
      <trkpt lat="46.46159" lon="4.75923">
        <ele>332</ele>
      </trkpt>
      <trkpt lat="46.46118" lon="4.75898">
        <ele>329.2</ele>
      </trkpt>
      <trkpt lat="46.46102" lon="4.75883">
        <ele>327.8</ele>
      </trkpt>
      <trkpt lat="46.46083" lon="4.75857">
        <ele>326</ele>
      </trkpt>
      <trkpt lat="46.46068" lon="4.75883">
        <ele>327.9</ele>
      </trkpt>
      <trkpt lat="46.46057" lon="4.7591">
        <ele>331.1</ele>
      </trkpt>
      <trkpt lat="46.46017" lon="4.75912">
        <ele>331.6</ele>
      </trkpt>
      <trkpt lat="46.45998" lon="4.75911">
        <ele>331.8</ele>
      </trkpt>
      <trkpt lat="46.45954" lon="4.75895">
        <ele>329.3</ele>
      </trkpt>
      <trkpt lat="46.45914" lon="4.75876">
        <ele>326</ele>
      </trkpt>
      <trkpt lat="46.4588" lon="4.75852">
        <ele>323.8</ele>
      </trkpt>
      <trkpt lat="46.45852" lon="4.75839">
        <ele>322.3</ele>
      </trkpt>
      <trkpt lat="46.45832" lon="4.75845">
        <ele>322.3</ele>
      </trkpt>
      <trkpt lat="46.45806" lon="4.75876">
        <ele>320.8</ele>
      </trkpt>
      <trkpt lat="46.45778" lon="4.75896">
        <ele>318.6</ele>
      </trkpt>
      <trkpt lat="46.45762" lon="4.75894">
        <ele>317.7</ele>
      </trkpt>
      <trkpt lat="46.45692" lon="4.75884">
        <ele>316.3</ele>
      </trkpt>
      <trkpt lat="46.45647" lon="4.75885">
        <ele>315.7</ele>
      </trkpt>
      <trkpt lat="46.45615" lon="4.75871">
        <ele>315</ele>
      </trkpt>
      <trkpt lat="46.45571" lon="4.75859">
        <ele>314.5</ele>
      </trkpt>
      <trkpt lat="46.45526" lon="4.75854">
        <ele>314.2</ele>
      </trkpt>
      <trkpt lat="46.45486" lon="4.75828">
        <ele>312.3</ele>
      </trkpt>
      <trkpt lat="46.45381" lon="4.75734">
        <ele>308.2</ele>
      </trkpt>
      <trkpt lat="46.45345" lon="4.75673">
        <ele>304.8</ele>
      </trkpt>
      <trkpt lat="46.45287" lon="4.75594">
        <ele>306</ele>
      </trkpt>
      <trkpt lat="46.45261" lon="4.75551">
        <ele>305</ele>
      </trkpt>
      <trkpt lat="46.45228" lon="4.75498">
        <ele>301.4</ele>
      </trkpt>
      <trkpt lat="46.45131" lon="4.75421">
        <ele>296.7</ele>
      </trkpt>
      <trkpt lat="46.45045" lon="4.7539">
        <ele>293.3</ele>
      </trkpt>
      <trkpt lat="46.44997" lon="4.75386">
        <ele>293.1</ele>
      </trkpt>
      <trkpt lat="46.44961" lon="4.75393">
        <ele>293.1</ele>
      </trkpt>
      <trkpt lat="46.44946" lon="4.75397">
        <ele>294.1</ele>
      </trkpt>
      <trkpt lat="46.4479" lon="4.754">
        <ele>289.5</ele>
      </trkpt>
      <trkpt lat="46.44747" lon="4.75395">
        <ele>286.7</ele>
      </trkpt>
      <trkpt lat="46.44707" lon="4.75393">
        <ele>285.9</ele>
      </trkpt>
      <trkpt lat="46.44684" lon="4.75388">
        <ele>284.5</ele>
      </trkpt>
      <trkpt lat="46.446" lon="4.75386">
        <ele>285</ele>
      </trkpt>
      <trkpt lat="46.44581" lon="4.75383">
        <ele>285.2</ele>
      </trkpt>
      <trkpt lat="46.4451" lon="4.75362">
        <ele>283.5</ele>
      </trkpt>
      <trkpt lat="46.44467" lon="4.75356">
        <ele>280.8</ele>
      </trkpt>
      <trkpt lat="46.44441" lon="4.75357">
        <ele>278.3</ele>
      </trkpt>
      <trkpt lat="46.4438" lon="4.75374">
        <ele>274.7</ele>
      </trkpt>
      <trkpt lat="46.4428" lon="4.75413">
        <ele>270.8</ele>
      </trkpt>
      <trkpt lat="46.44252" lon="4.75426">
        <ele>269.6</ele>
      </trkpt>
      <trkpt lat="46.44166" lon="4.75494">
        <ele>264.5</ele>
      </trkpt>
      <trkpt lat="46.44029" lon="4.75643">
        <ele>256.8</ele>
      </trkpt>
      <trkpt lat="46.44007" lon="4.75654">
        <ele>255.8</ele>
      </trkpt>
      <trkpt lat="46.43989" lon="4.75655">
        <ele>254.8</ele>
      </trkpt>
      <trkpt lat="46.43942" lon="4.75623">
        <ele>256.4</ele>
      </trkpt>
      <trkpt lat="46.43918" lon="4.75612">
        <ele>258.9</ele>
      </trkpt>
      <trkpt lat="46.43919" lon="4.75606">
        <ele>259.2</ele>
      </trkpt>
      <trkpt lat="46.43905" lon="4.75599">
        <ele>261.1</ele>
      </trkpt>
      <trkpt lat="46.43864" lon="4.75585">
        <ele>266.7</ele>
      </trkpt>
      <trkpt lat="46.43853" lon="4.75572">
        <ele>268.3</ele>
      </trkpt>
      <trkpt lat="46.43804" lon="4.75668">
        <ele>271.2</ele>
      </trkpt>
      <trkpt lat="46.43791" lon="4.75689">
        <ele>272.5</ele>
      </trkpt>
      <trkpt lat="46.43785" lon="4.75695">
        <ele>272.7</ele>
      </trkpt>
      <trkpt lat="46.43761" lon="4.75712">
        <ele>273.6</ele>
      </trkpt>
      <trkpt lat="46.43724" lon="4.75737">
        <ele>274.4</ele>
      </trkpt>
      <trkpt lat="46.43712" lon="4.75745">
        <ele>274.5</ele>
      </trkpt>
      <trkpt lat="46.43688" lon="4.75756">
        <ele>274.4</ele>
      </trkpt>
      <trkpt lat="46.43668" lon="4.75762">
        <ele>273.6</ele>
      </trkpt>
      <trkpt lat="46.43642" lon="4.75764">
        <ele>273</ele>
      </trkpt>
      <trkpt lat="46.43583" lon="4.75762">
        <ele>270.6</ele>
      </trkpt>
      <trkpt lat="46.43541" lon="4.75767">
        <ele>268.3</ele>
      </trkpt>
      <trkpt lat="46.43492" lon="4.75784">
        <ele>266.9</ele>
      </trkpt>
      <trkpt lat="46.43456" lon="4.75791">
        <ele>265</ele>
      </trkpt>
      <trkpt lat="46.43346" lon="4.7578">
        <ele>259.3</ele>
      </trkpt>
      <trkpt lat="46.43313" lon="4.75838">
        <ele>255.1</ele>
      </trkpt>
      <trkpt lat="46.43282" lon="4.75949">
        <ele>251</ele>
      </trkpt>
      <trkpt lat="46.43242" lon="4.76092">
        <ele>248.4</ele>
      </trkpt>
      <trkpt lat="46.4325" lon="4.76111">
        <ele>248</ele>
      </trkpt>
      <trkpt lat="46.43261" lon="4.76127">
        <ele>247.6</ele>
      </trkpt>
      <trkpt lat="46.43276" lon="4.76143">
        <ele>246.9</ele>
      </trkpt>
      <trkpt lat="46.43316" lon="4.76173">
        <ele>245</ele>
      </trkpt>
      <trkpt lat="46.43333" lon="4.76195">
        <ele>243</ele>
      </trkpt>
      <trkpt lat="46.4333" lon="4.76215">
        <ele>242.1</ele>
      </trkpt>
      <trkpt lat="46.43328" lon="4.76318">
        <ele>239.8</ele>
      </trkpt>
      <trkpt lat="46.43333" lon="4.76329">
        <ele>240</ele>
      </trkpt>
      <trkpt lat="46.43335" lon="4.76331">
        <ele>240</ele>
      </trkpt>
      <trkpt lat="46.43365" lon="4.76314">
        <ele>240</ele>
      </trkpt>
      <trkpt lat="46.43373" lon="4.76313">
        <ele>240</ele>
      </trkpt>
      <trkpt lat="46.43375" lon="4.76316">
        <ele>240</ele>
      </trkpt>
      <trkpt lat="46.43373" lon="4.76463">
        <ele>243.1</ele>
        <extensions>
          <visugpx:TrkExtension xmlns:visugpx="https://www.visugpx.com/editgpx/">
            <visugpx:node>1</visugpx:node>
            </visugpx:TrkExtension>
        </extensions>
      </trkpt>
    </trkseg>
  </trk>
</gpx>